<?xml version="1.0" encoding="UTF-8" standalone="no" ?>
<gpx xmlns="http://www.topografix.com/GPX/1/1" creator="www.cicloide.com" version="1.1" xmlns:xsi="http://www.w3.org/2001/XMLSchema-instance" xsi:schemaLocation="http://www.topografix.com/GPX/1/1 http://www.topografix.com/GPX/1/1/gpx.xsd">
  <trk>
    <name>www.cicloide.com 34676</name>
    <desc>www.cicloide.com 34676</desc>
    <trkseg>
      <trkpt lat="41.605786540" lon="2.540379440">
        <ele>117.42</ele>
        <time>2015-12-20T06:06:47Z</time>
      </trkpt>
      <trkpt lat="41.605800790" lon="2.540391760">
        <ele>117.42</ele>
        <time>2015-12-20T06:06:55Z</time>
      </trkpt>
      <trkpt lat="41.605857950" lon="2.540379860">
        <ele>117.42</ele>
        <time>2015-12-20T06:07:01Z</time>
      </trkpt>
      <trkpt lat="41.605962980" lon="2.540367710">
        <ele>117.42</ele>
        <time>2015-12-20T06:07:07Z</time>
      </trkpt>
      <trkpt lat="41.606044200" lon="2.540356730">
        <ele>117.42</ele>
        <time>2015-12-20T06:07:09Z</time>
      </trkpt>
      <trkpt lat="41.606291970" lon="2.540442810">
        <ele>117.42</ele>
        <time>2015-12-20T06:07:17Z</time>
      </trkpt>
      <trkpt lat="41.606491790" lon="2.540545240">
        <ele>117.90</ele>
        <time>2015-12-20T06:07:25Z</time>
      </trkpt>
      <trkpt lat="41.606699410" lon="2.540627800">
        <ele>118.86</ele>
        <time>2015-12-20T06:07:33Z</time>
      </trkpt>
      <trkpt lat="41.606726070" lon="2.540641630">
        <ele>118.86</ele>
        <time>2015-12-20T06:07:34Z</time>
      </trkpt>
      <trkpt lat="41.607009120" lon="2.540767860">
        <ele>119.82</ele>
        <time>2015-12-20T06:07:45Z</time>
      </trkpt>
      <trkpt lat="41.607209530" lon="2.540827540">
        <ele>120.30</ele>
        <time>2015-12-20T06:07:52Z</time>
      </trkpt>
      <trkpt lat="41.607500810" lon="2.540857380">
        <ele>121.26</ele>
        <time>2015-12-20T06:08:02Z</time>
      </trkpt>
      <trkpt lat="41.607688060" lon="2.540837350">
        <ele>121.74</ele>
        <time>2015-12-20T06:08:09Z</time>
      </trkpt>
      <trkpt lat="41.607944880" lon="2.540794260">
        <ele>122.71</ele>
        <time>2015-12-20T06:08:18Z</time>
      </trkpt>
      <trkpt lat="41.608234140" lon="2.540755710">
        <ele>123.67</ele>
        <time>2015-12-20T06:08:28Z</time>
      </trkpt>
      <trkpt lat="41.608456090" lon="2.540708260">
        <ele>124.15</ele>
        <time>2015-12-20T06:08:36Z</time>
      </trkpt>
      <trkpt lat="41.608667310" lon="2.540662000">
        <ele>124.63</ele>
        <time>2015-12-20T06:08:44Z</time>
      </trkpt>
      <trkpt lat="41.608863870" lon="2.540601560">
        <ele>125.59</ele>
        <time>2015-12-20T06:08:51Z</time>
      </trkpt>
      <trkpt lat="41.609078870" lon="2.540566020">
        <ele>126.07</ele>
        <time>2015-12-20T06:08:59Z</time>
      </trkpt>
      <trkpt lat="41.609283220" lon="2.540549930">
        <ele>126.55</ele>
        <time>2015-12-20T06:09:07Z</time>
      </trkpt>
      <trkpt lat="41.609549430" lon="2.540527550">
        <ele>127.51</ele>
        <time>2015-12-20T06:09:17Z</time>
      </trkpt>
      <trkpt lat="41.609746570" lon="2.540503500">
        <ele>128.47</ele>
        <time>2015-12-20T06:09:24Z</time>
      </trkpt>
      <trkpt lat="41.609969280" lon="2.540436520">
        <ele>128.95</ele>
        <time>2015-12-20T06:09:32Z</time>
      </trkpt>
      <trkpt lat="41.610203470" lon="2.540308950">
        <ele>129.92</ele>
        <time>2015-12-20T06:09:41Z</time>
      </trkpt>
      <trkpt lat="41.610431200" lon="2.540191270">
        <ele>130.88</ele>
        <time>2015-12-20T06:09:49Z</time>
      </trkpt>
      <trkpt lat="41.610704450" lon="2.540039390">
        <ele>131.84</ele>
        <time>2015-12-20T06:09:59Z</time>
      </trkpt>
      <trkpt lat="41.610861190" lon="2.539963950">
        <ele>132.32</ele>
        <time>2015-12-20T06:10:05Z</time>
      </trkpt>
      <trkpt lat="41.611150200" lon="2.539821880">
        <ele>133.28</ele>
        <time>2015-12-20T06:10:15Z</time>
      </trkpt>
      <trkpt lat="41.611367800" lon="2.539709390">
        <ele>134.24</ele>
        <time>2015-12-20T06:10:23Z</time>
      </trkpt>
      <trkpt lat="41.611583460" lon="2.539529770">
        <ele>134.72</ele>
        <time>2015-12-20T06:10:32Z</time>
      </trkpt>
      <trkpt lat="41.611767280" lon="2.539352830">
        <ele>135.68</ele>
        <time>2015-12-20T06:10:40Z</time>
      </trkpt>
      <trkpt lat="41.611909770" lon="2.539164990">
        <ele>136.64</ele>
        <time>2015-12-20T06:10:47Z</time>
      </trkpt>
      <trkpt lat="41.612002890" lon="2.539070860">
        <ele>137.13</ele>
        <time>2015-12-20T06:10:51Z</time>
      </trkpt>
      <trkpt lat="41.612152340" lon="2.538829290">
        <ele>138.09</ele>
        <time>2015-12-20T06:11:00Z</time>
      </trkpt>
      <trkpt lat="41.612262400" lon="2.538621090">
        <ele>139.05</ele>
        <time>2015-12-20T06:11:07Z</time>
      </trkpt>
      <trkpt lat="41.612415370" lon="2.538357980">
        <ele>139.53</ele>
        <time>2015-12-20T06:11:15Z</time>
      </trkpt>
      <trkpt lat="41.612631790" lon="2.538048020">
        <ele>140.49</ele>
        <time>2015-12-20T06:11:25Z</time>
      </trkpt>
      <trkpt lat="41.612853070" lon="2.537783990">
        <ele>142.41</ele>
        <time>2015-12-20T06:11:35Z</time>
      </trkpt>
      <trkpt lat="41.613082060" lon="2.537527670">
        <ele>143.37</ele>
        <time>2015-12-20T06:11:45Z</time>
      </trkpt>
      <trkpt lat="41.613263110" lon="2.537323990">
        <ele>143.85</ele>
        <time>2015-12-20T06:11:53Z</time>
      </trkpt>
      <trkpt lat="41.613485990" lon="2.537058370">
        <ele>144.34</ele>
        <time>2015-12-20T06:12:03Z</time>
      </trkpt>
      <trkpt lat="41.613606940" lon="2.536882930">
        <ele>145.30</ele>
        <time>2015-12-20T06:12:10Z</time>
      </trkpt>
      <trkpt lat="41.613645830" lon="2.536819150">
        <ele>145.30</ele>
        <time>2015-12-20T06:12:13Z</time>
      </trkpt>
      <trkpt lat="41.613670470" lon="2.536515390">
        <ele>146.26</ele>
        <time>2015-12-20T06:12:22Z</time>
      </trkpt>
      <trkpt lat="41.613805510" lon="2.536199140">
        <ele>147.22</ele>
        <time>2015-12-20T06:12:32Z</time>
      </trkpt>
      <trkpt lat="41.613944640" lon="2.535868890">
        <ele>148.66</ele>
        <time>2015-12-20T06:12:42Z</time>
      </trkpt>
      <trkpt lat="41.614076660" lon="2.535487010">
        <ele>149.62</ele>
        <time>2015-12-20T06:12:53Z</time>
      </trkpt>
      <trkpt lat="41.614158300" lon="2.535166570">
        <ele>150.58</ele>
        <time>2015-12-20T06:13:02Z</time>
      </trkpt>
      <trkpt lat="41.614274220" lon="2.534821240">
        <ele>152.03</ele>
        <time>2015-12-20T06:13:12Z</time>
      </trkpt>
      <trkpt lat="41.614373550" lon="2.534496350">
        <ele>153.95</ele>
        <time>2015-12-20T06:13:21Z</time>
      </trkpt>
      <trkpt lat="41.614483520" lon="2.534104000">
        <ele>154.91</ele>
        <time>2015-12-20T06:13:32Z</time>
      </trkpt>
      <trkpt lat="41.614597600" lon="2.533731170">
        <ele>156.35</ele>
        <time>2015-12-20T06:13:42Z</time>
      </trkpt>
      <trkpt lat="41.614690470" lon="2.533428080">
        <ele>157.31</ele>
        <time>2015-12-20T06:13:50Z</time>
      </trkpt>
      <trkpt lat="41.614766910" lon="2.533114510">
        <ele>157.79</ele>
        <time>2015-12-20T06:13:58Z</time>
      </trkpt>
      <trkpt lat="41.614887360" lon="2.532703550">
        <ele>159.24</ele>
        <time>2015-12-20T06:14:09Z</time>
      </trkpt>
      <trkpt lat="41.614994310" lon="2.532339440">
        <ele>160.20</ele>
        <time>2015-12-20T06:14:19Z</time>
      </trkpt>
      <trkpt lat="41.615060110" lon="2.531946660">
        <ele>161.16</ele>
        <time>2015-12-20T06:14:29Z</time>
      </trkpt>
      <trkpt lat="41.615090870" lon="2.531510800">
        <ele>162.60</ele>
        <time>2015-12-20T06:14:40Z</time>
      </trkpt>
      <trkpt lat="41.615107130" lon="2.531196400">
        <ele>163.56</ele>
        <time>2015-12-20T06:14:48Z</time>
      </trkpt>
      <trkpt lat="41.615141920" lon="2.530777550">
        <ele>164.52</ele>
        <time>2015-12-20T06:14:58Z</time>
      </trkpt>
      <trkpt lat="41.615163960" lon="2.530364830">
        <ele>165.96</ele>
        <time>2015-12-20T06:15:08Z</time>
      </trkpt>
      <trkpt lat="41.615162370" lon="2.530016390">
        <ele>166.93</ele>
        <time>2015-12-20T06:15:17Z</time>
      </trkpt>
      <trkpt lat="41.615174520" lon="2.529629230">
        <ele>167.89</ele>
        <time>2015-12-20T06:15:27Z</time>
      </trkpt>
      <trkpt lat="41.615187850" lon="2.529231180">
        <ele>169.33</ele>
        <time>2015-12-20T06:15:37Z</time>
      </trkpt>
      <trkpt lat="41.615203190" lon="2.528947370">
        <ele>170.29</ele>
        <time>2015-12-20T06:15:44Z</time>
      </trkpt>
      <trkpt lat="41.615295640" lon="2.528501530">
        <ele>170.77</ele>
        <time>2015-12-20T06:15:55Z</time>
      </trkpt>
      <trkpt lat="41.615358250" lon="2.528193580">
        <ele>171.73</ele>
        <time>2015-12-20T06:16:03Z</time>
      </trkpt>
      <trkpt lat="41.615413660" lon="2.527926620">
        <ele>172.21</ele>
        <time>2015-12-20T06:16:10Z</time>
      </trkpt>
      <trkpt lat="41.615496640" lon="2.527546330">
        <ele>173.66</ele>
        <time>2015-12-20T06:16:20Z</time>
      </trkpt>
      <trkpt lat="41.615553050" lon="2.527243990">
        <ele>174.62</ele>
        <time>2015-12-20T06:16:28Z</time>
      </trkpt>
      <trkpt lat="41.615585990" lon="2.526978290">
        <ele>176.06</ele>
        <time>2015-12-20T06:16:35Z</time>
      </trkpt>
      <trkpt lat="41.615602670" lon="2.526685260">
        <ele>177.50</ele>
        <time>2015-12-20T06:16:43Z</time>
      </trkpt>
      <trkpt lat="41.615570230" lon="2.526420720">
        <ele>177.98</ele>
        <time>2015-12-20T06:16:50Z</time>
      </trkpt>
      <trkpt lat="41.615533430" lon="2.526176810">
        <ele>178.94</ele>
        <time>2015-12-20T06:16:57Z</time>
      </trkpt>
      <trkpt lat="41.615521780" lon="2.525841700">
        <ele>179.90</ele>
        <time>2015-12-20T06:17:06Z</time>
      </trkpt>
      <trkpt lat="41.615531260" lon="2.525510280">
        <ele>180.87</ele>
        <time>2015-12-20T06:17:14Z</time>
      </trkpt>
      <trkpt lat="41.615530330" lon="2.525138130">
        <ele>181.83</ele>
        <time>2015-12-20T06:17:22Z</time>
      </trkpt>
      <trkpt lat="41.615554220" lon="2.524794050">
        <ele>182.79</ele>
        <time>2015-12-20T06:17:30Z</time>
      </trkpt>
      <trkpt lat="41.615588670" lon="2.524514760">
        <ele>183.75</ele>
        <time>2015-12-20T06:17:37Z</time>
      </trkpt>
      <trkpt lat="41.615608700" lon="2.524238080">
        <ele>184.71</ele>
        <time>2015-12-20T06:17:44Z</time>
      </trkpt>
      <trkpt lat="41.615635610" lon="2.523907160">
        <ele>187.11</ele>
        <time>2015-12-20T06:17:53Z</time>
      </trkpt>
      <trkpt lat="41.615647600" lon="2.523682110">
        <ele>187.59</ele>
        <time>2015-12-20T06:17:59Z</time>
      </trkpt>
      <trkpt lat="41.615687830" lon="2.523288570">
        <ele>188.56</ele>
        <time>2015-12-20T06:18:09Z</time>
      </trkpt>
      <trkpt lat="41.615723370" lon="2.523000400">
        <ele>189.52</ele>
        <time>2015-12-20T06:18:17Z</time>
      </trkpt>
      <trkpt lat="41.615763940" lon="2.522699160">
        <ele>190.48</ele>
        <time>2015-12-20T06:18:25Z</time>
      </trkpt>
      <trkpt lat="41.615786650" lon="2.522481820">
        <ele>191.44</ele>
        <time>2015-12-20T06:18:31Z</time>
      </trkpt>
      <trkpt lat="41.615824620" lon="2.522215860">
        <ele>192.88</ele>
        <time>2015-12-20T06:18:38Z</time>
      </trkpt>
      <trkpt lat="41.615866030" lon="2.521964990">
        <ele>193.36</ele>
        <time>2015-12-20T06:18:45Z</time>
      </trkpt>
      <trkpt lat="41.615899720" lon="2.521687040">
        <ele>193.84</ele>
        <time>2015-12-20T06:18:52Z</time>
      </trkpt>
      <trkpt lat="41.615941300" lon="2.521388400">
        <ele>194.32</ele>
        <time>2015-12-20T06:18:59Z</time>
      </trkpt>
      <trkpt lat="41.615965860" lon="2.521209440">
        <ele>194.80</ele>
        <time>2015-12-20T06:19:04Z</time>
      </trkpt>
      <trkpt lat="41.616039030" lon="2.520942140">
        <ele>195.28</ele>
        <time>2015-12-20T06:19:11Z</time>
      </trkpt>
      <trkpt lat="41.616100970" lon="2.520680040">
        <ele>195.77</ele>
        <time>2015-12-20T06:19:18Z</time>
      </trkpt>
      <trkpt lat="41.616186220" lon="2.520372340">
        <ele>196.73</ele>
        <time>2015-12-20T06:19:26Z</time>
      </trkpt>
      <trkpt lat="41.616277750" lon="2.520134550">
        <ele>197.21</ele>
        <time>2015-12-20T06:19:34Z</time>
      </trkpt>
      <trkpt lat="41.616417390" lon="2.519993900">
        <ele>195.77</ele>
        <time>2015-12-20T06:19:39Z</time>
      </trkpt>
      <trkpt lat="41.616451170" lon="2.519965570">
        <ele>195.77</ele>
        <time>2015-12-20T06:19:40Z</time>
      </trkpt>
      <trkpt lat="41.616594580" lon="2.519877220">
        <ele>195.77</ele>
        <time>2015-12-20T06:19:46Z</time>
      </trkpt>
      <trkpt lat="41.616747970" lon="2.519777310">
        <ele>197.21</ele>
        <time>2015-12-20T06:19:52Z</time>
      </trkpt>
      <trkpt lat="41.616997250" lon="2.519704560">
        <ele>198.65</ele>
        <time>2015-12-20T06:20:01Z</time>
      </trkpt>
      <trkpt lat="41.617205620" lon="2.519666340">
        <ele>199.61</ele>
        <time>2015-12-20T06:20:08Z</time>
      </trkpt>
      <trkpt lat="41.617418860" lon="2.519636830">
        <ele>200.09</ele>
        <time>2015-12-20T06:20:15Z</time>
      </trkpt>
      <trkpt lat="41.617596810" lon="2.519610260">
        <ele>201.53</ele>
        <time>2015-12-20T06:20:22Z</time>
      </trkpt>
      <trkpt lat="41.617773830" lon="2.519607080">
        <ele>202.49</ele>
        <time>2015-12-20T06:20:31Z</time>
      </trkpt>
      <trkpt lat="41.617813140" lon="2.519612270">
        <ele>202.49</ele>
        <time>2015-12-20T06:20:39Z</time>
      </trkpt>
      <trkpt lat="41.617806690" lon="2.519638760">
        <ele>203.46</ele>
        <time>2015-12-20T06:20:45Z</time>
      </trkpt>
      <trkpt lat="41.617812560" lon="2.519661050">
        <ele>203.94</ele>
        <time>2015-12-20T06:20:49Z</time>
      </trkpt>
      <trkpt lat="41.617843150" lon="2.519733220">
        <ele>203.94</ele>
        <time>2015-12-20T06:20:53Z</time>
      </trkpt>
      <trkpt lat="41.617902500" lon="2.519815450">
        <ele>204.42</ele>
        <time>2015-12-20T06:20:58Z</time>
      </trkpt>
      <trkpt lat="41.617911630" lon="2.519863390">
        <ele>204.42</ele>
        <time>2015-12-20T06:21:00Z</time>
      </trkpt>
      <trkpt lat="41.617837700" lon="2.520049640">
        <ele>205.86</ele>
        <time>2015-12-20T06:21:07Z</time>
      </trkpt>
      <trkpt lat="41.617820940" lon="2.520065150">
        <ele>206.34</ele>
        <time>2015-12-20T06:21:08Z</time>
      </trkpt>
      <trkpt lat="41.617716000" lon="2.520169250">
        <ele>208.74</ele>
        <time>2015-12-20T06:21:16Z</time>
      </trkpt>
      <trkpt lat="41.617685660" lon="2.520316690">
        <ele>210.19</ele>
        <time>2015-12-20T06:21:23Z</time>
      </trkpt>
      <trkpt lat="41.617666460" lon="2.520554150">
        <ele>211.63</ele>
        <time>2015-12-20T06:21:32Z</time>
      </trkpt>
      <trkpt lat="41.617660260" lon="2.520727150">
        <ele>211.63</ele>
        <time>2015-12-20T06:21:39Z</time>
      </trkpt>
      <trkpt lat="41.617706530" lon="2.520940890">
        <ele>212.59</ele>
        <time>2015-12-20T06:21:48Z</time>
      </trkpt>
      <trkpt lat="41.617764860" lon="2.521141380">
        <ele>213.55</ele>
        <time>2015-12-20T06:21:57Z</time>
      </trkpt>
      <trkpt lat="41.617838460" lon="2.521371050">
        <ele>214.51</ele>
        <time>2015-12-20T06:22:06Z</time>
      </trkpt>
      <trkpt lat="41.617908360" lon="2.521579420">
        <ele>216.43</ele>
        <time>2015-12-20T06:22:16Z</time>
      </trkpt>
      <trkpt lat="41.617917420" lon="2.521594340">
        <ele>216.43</ele>
        <time>2015-12-20T06:22:17Z</time>
      </trkpt>
      <trkpt lat="41.617978100" lon="2.521606660">
        <ele>217.40</ele>
        <time>2015-12-20T06:22:21Z</time>
      </trkpt>
      <trkpt lat="41.618035180" lon="2.521483870">
        <ele>219.80</ele>
        <time>2015-12-20T06:22:29Z</time>
      </trkpt>
      <trkpt lat="41.618091590" lon="2.521357890">
        <ele>221.24</ele>
        <time>2015-12-20T06:22:37Z</time>
      </trkpt>
      <trkpt lat="41.618166690" lon="2.521235430">
        <ele>222.68</ele>
        <time>2015-12-20T06:22:45Z</time>
      </trkpt>
      <trkpt lat="41.618244480" lon="2.521082960">
        <ele>224.61</ele>
        <time>2015-12-20T06:22:54Z</time>
      </trkpt>
      <trkpt lat="41.618277840" lon="2.520977680">
        <ele>226.05</ele>
        <time>2015-12-20T06:23:00Z</time>
      </trkpt>
      <trkpt lat="41.618298790" lon="2.520862350">
        <ele>227.49</ele>
        <time>2015-12-20T06:23:06Z</time>
      </trkpt>
      <trkpt lat="41.618341200" lon="2.520712150">
        <ele>228.93</ele>
        <time>2015-12-20T06:23:14Z</time>
      </trkpt>
      <trkpt lat="41.618455870" lon="2.520609550">
        <ele>230.37</ele>
        <time>2015-12-20T06:23:23Z</time>
      </trkpt>
      <trkpt lat="41.618594250" lon="2.520574770">
        <ele>231.81</ele>
        <time>2015-12-20T06:23:32Z</time>
      </trkpt>
      <trkpt lat="41.618705650" lon="2.520555240">
        <ele>232.78</ele>
        <time>2015-12-20T06:23:39Z</time>
      </trkpt>
      <trkpt lat="41.618812940" lon="2.520528160">
        <ele>233.74</ele>
        <time>2015-12-20T06:23:46Z</time>
      </trkpt>
      <trkpt lat="41.618940340" lon="2.520457920">
        <ele>236.14</ele>
        <time>2015-12-20T06:23:56Z</time>
      </trkpt>
      <trkpt lat="41.619074540" lon="2.520384750">
        <ele>238.06</ele>
        <time>2015-12-20T06:24:06Z</time>
      </trkpt>
      <trkpt lat="41.619219800" lon="2.520308390">
        <ele>239.99</ele>
        <time>2015-12-20T06:24:16Z</time>
      </trkpt>
      <trkpt lat="41.619382570" lon="2.520304950">
        <ele>242.39</ele>
        <time>2015-12-20T06:24:26Z</time>
      </trkpt>
      <trkpt lat="41.619488440" lon="2.520339740">
        <ele>243.83</ele>
        <time>2015-12-20T06:24:34Z</time>
      </trkpt>
      <trkpt lat="41.619603270" lon="2.520329090">
        <ele>245.75</ele>
        <time>2015-12-20T06:24:42Z</time>
      </trkpt>
      <trkpt lat="41.619735950" lon="2.520282910">
        <ele>248.16</ele>
        <time>2015-12-20T06:24:52Z</time>
      </trkpt>
      <trkpt lat="41.619863610" lon="2.520231950">
        <ele>250.56</ele>
        <time>2015-12-20T06:25:01Z</time>
      </trkpt>
      <trkpt lat="41.619984640" lon="2.520173360">
        <ele>252.48</ele>
        <time>2015-12-20T06:25:10Z</time>
      </trkpt>
      <trkpt lat="41.620123030" lon="2.520104460">
        <ele>254.41</ele>
        <time>2015-12-20T06:25:20Z</time>
      </trkpt>
      <trkpt lat="41.620255380" lon="2.520106390">
        <ele>255.85</ele>
        <time>2015-12-20T06:25:29Z</time>
      </trkpt>
      <trkpt lat="41.620378680" lon="2.520134880">
        <ele>256.81</ele>
        <time>2015-12-20T06:25:37Z</time>
      </trkpt>
      <trkpt lat="41.620493840" lon="2.520160870">
        <ele>258.25</ele>
        <time>2015-12-20T06:25:45Z</time>
      </trkpt>
      <trkpt lat="41.620609930" lon="2.520184420">
        <ele>259.69</ele>
        <time>2015-12-20T06:25:53Z</time>
      </trkpt>
      <trkpt lat="41.620660480" lon="2.520183410">
        <ele>260.65</ele>
        <time>2015-12-20T06:25:57Z</time>
      </trkpt>
      <trkpt lat="41.620744550" lon="2.520191630">
        <ele>261.62</ele>
        <time>2015-12-20T06:26:03Z</time>
      </trkpt>
      <trkpt lat="41.620869940" lon="2.520215520">
        <ele>263.06</ele>
        <time>2015-12-20T06:26:12Z</time>
      </trkpt>
      <trkpt lat="41.620967930" lon="2.520234210">
        <ele>264.50</ele>
        <time>2015-12-20T06:26:19Z</time>
      </trkpt>
      <trkpt lat="41.621072530" lon="2.520258600">
        <ele>265.46</ele>
        <time>2015-12-20T06:26:26Z</time>
      </trkpt>
      <trkpt lat="41.621182420" lon="2.520270340">
        <ele>266.42</ele>
        <time>2015-12-20T06:26:34Z</time>
      </trkpt>
      <trkpt lat="41.621325080" lon="2.520276870">
        <ele>268.83</ele>
        <time>2015-12-20T06:26:43Z</time>
      </trkpt>
      <trkpt lat="41.621474530" lon="2.520317020">
        <ele>270.75</ele>
        <time>2015-12-20T06:26:53Z</time>
      </trkpt>
      <trkpt lat="41.621630600" lon="2.520367570">
        <ele>272.67</ele>
        <time>2015-12-20T06:27:04Z</time>
      </trkpt>
      <trkpt lat="41.621740320" lon="2.520383410">
        <ele>275.56</ele>
        <time>2015-12-20T06:27:12Z</time>
      </trkpt>
      <trkpt lat="41.621854230" lon="2.520407970">
        <ele>277.96</ele>
        <time>2015-12-20T06:27:20Z</time>
      </trkpt>
      <trkpt lat="41.622019520" lon="2.520447860">
        <ele>280.84</ele>
        <time>2015-12-20T06:27:31Z</time>
      </trkpt>
      <trkpt lat="41.622126890" lon="2.520423470">
        <ele>282.28</ele>
        <time>2015-12-20T06:27:39Z</time>
      </trkpt>
      <trkpt lat="41.622267960" lon="2.520388270">
        <ele>284.69</ele>
        <time>2015-12-20T06:27:49Z</time>
      </trkpt>
      <trkpt lat="41.622364600" lon="2.520365890">
        <ele>285.65</ele>
        <time>2015-12-20T06:27:56Z</time>
      </trkpt>
      <trkpt lat="41.622409440" lon="2.520358680">
        <ele>286.61</ele>
        <time>2015-12-20T06:27:59Z</time>
      </trkpt>
      <trkpt lat="41.622475580" lon="2.520452050">
        <ele>287.57</ele>
        <time>2015-12-20T06:28:07Z</time>
      </trkpt>
      <trkpt lat="41.622398970" lon="2.520495050">
        <ele>288.53</ele>
        <time>2015-12-20T06:28:14Z</time>
      </trkpt>
      <trkpt lat="41.622357810" lon="2.520496310">
        <ele>289.49</ele>
        <time>2015-12-20T06:28:17Z</time>
      </trkpt>
      <trkpt lat="41.622330400" lon="2.520508300">
        <ele>289.97</ele>
        <time>2015-12-20T06:28:19Z</time>
      </trkpt>
      <trkpt lat="41.622278600" lon="2.520541830">
        <ele>290.94</ele>
        <time>2015-12-20T06:28:23Z</time>
      </trkpt>
      <trkpt lat="41.622151450" lon="2.520656910">
        <ele>292.38</ele>
        <time>2015-12-20T06:28:34Z</time>
      </trkpt>
      <trkpt lat="41.622126050" lon="2.520671740">
        <ele>292.86</ele>
        <time>2015-12-20T06:28:36Z</time>
      </trkpt>
      <trkpt lat="41.622009540" lon="2.520757320">
        <ele>295.26</ele>
        <time>2015-12-20T06:28:46Z</time>
      </trkpt>
      <trkpt lat="41.621888170" lon="2.520868640">
        <ele>296.22</ele>
        <time>2015-12-20T06:28:55Z</time>
      </trkpt>
      <trkpt lat="41.621763700" lon="2.520980620">
        <ele>297.67</ele>
        <time>2015-12-20T06:29:03Z</time>
      </trkpt>
      <trkpt lat="41.621634290" lon="2.521002160">
        <ele>298.63</ele>
        <time>2015-12-20T06:29:10Z</time>
      </trkpt>
      <trkpt lat="41.621476790" lon="2.520942980">
        <ele>299.59</ele>
        <time>2015-12-20T06:29:19Z</time>
      </trkpt>
      <trkpt lat="41.621294070" lon="2.520966870">
        <ele>300.55</ele>
        <time>2015-12-20T06:29:28Z</time>
      </trkpt>
      <trkpt lat="41.621171350" lon="2.520991010">
        <ele>301.51</ele>
        <time>2015-12-20T06:29:35Z</time>
      </trkpt>
      <trkpt lat="41.621153840" lon="2.520997300">
        <ele>301.99</ele>
        <time>2015-12-20T06:29:36Z</time>
      </trkpt>
      <trkpt lat="41.621116280" lon="2.521049680">
        <ele>301.99</ele>
        <time>2015-12-20T06:29:39Z</time>
      </trkpt>
      <trkpt lat="41.621168670" lon="2.521117580">
        <ele>302.95</ele>
        <time>2015-12-20T06:29:44Z</time>
      </trkpt>
      <trkpt lat="41.621297670" lon="2.521121770">
        <ele>305.36</ele>
        <time>2015-12-20T06:29:52Z</time>
      </trkpt>
      <trkpt lat="41.621322230" lon="2.521150850">
        <ele>305.84</ele>
        <time>2015-12-20T06:29:54Z</time>
      </trkpt>
      <trkpt lat="41.621399760" lon="2.521269710">
        <ele>307.76</ele>
        <time>2015-12-20T06:30:02Z</time>
      </trkpt>
      <trkpt lat="41.621434550" lon="2.521320670">
        <ele>308.72</ele>
        <time>2015-12-20T06:30:06Z</time>
      </trkpt>
      <trkpt lat="41.621478380" lon="2.521383620">
        <ele>309.68</ele>
        <time>2015-12-20T06:30:10Z</time>
      </trkpt>
      <trkpt lat="41.621569490" lon="2.521533660">
        <ele>311.12</ele>
        <time>2015-12-20T06:30:19Z</time>
      </trkpt>
      <trkpt lat="41.621636880" lon="2.521645220">
        <ele>312.09</ele>
        <time>2015-12-20T06:30:26Z</time>
      </trkpt>
      <trkpt lat="41.621704110" lon="2.521786710">
        <ele>314.01</ele>
        <time>2015-12-20T06:30:35Z</time>
      </trkpt>
      <trkpt lat="41.621777780" lon="2.521928280">
        <ele>315.45</ele>
        <time>2015-12-20T06:30:43Z</time>
      </trkpt>
      <trkpt lat="41.621846430" lon="2.522074460">
        <ele>317.37</ele>
        <time>2015-12-20T06:30:51Z</time>
      </trkpt>
      <trkpt lat="41.621901170" lon="2.522225920">
        <ele>318.81</ele>
        <time>2015-12-20T06:30:59Z</time>
      </trkpt>
      <trkpt lat="41.621970650" lon="2.522216610">
        <ele>319.78</ele>
        <time>2015-12-20T06:31:05Z</time>
      </trkpt>
      <trkpt lat="41.621970320" lon="2.522167660">
        <ele>320.74</ele>
        <time>2015-12-20T06:31:08Z</time>
      </trkpt>
      <trkpt lat="41.621956820" lon="2.521960290">
        <ele>323.14</ele>
        <time>2015-12-20T06:31:18Z</time>
      </trkpt>
      <trkpt lat="41.621995460" lon="2.521766090">
        <ele>323.62</ele>
        <time>2015-12-20T06:31:27Z</time>
      </trkpt>
      <trkpt lat="41.622055230" lon="2.521588470">
        <ele>325.54</ele>
        <time>2015-12-20T06:31:36Z</time>
      </trkpt>
      <trkpt lat="41.622162600" lon="2.521490240">
        <ele>326.99</ele>
        <time>2015-12-20T06:31:44Z</time>
      </trkpt>
      <trkpt lat="41.622272900" lon="2.521534910">
        <ele>327.95</ele>
        <time>2015-12-20T06:31:52Z</time>
      </trkpt>
      <trkpt lat="41.622368210" lon="2.521629210">
        <ele>329.39</ele>
        <time>2015-12-20T06:32:00Z</time>
      </trkpt>
      <trkpt lat="41.622487980" lon="2.521718900">
        <ele>330.83</ele>
        <time>2015-12-20T06:32:08Z</time>
      </trkpt>
      <trkpt lat="41.622644310" lon="2.521811930">
        <ele>333.23</ele>
        <time>2015-12-20T06:32:18Z</time>
      </trkpt>
      <trkpt lat="41.622786710" lon="2.521822240">
        <ele>333.71</ele>
        <time>2015-12-20T06:32:26Z</time>
      </trkpt>
      <trkpt lat="41.622964750" lon="2.521816710">
        <ele>336.12</ele>
        <time>2015-12-20T06:32:36Z</time>
      </trkpt>
      <trkpt lat="41.623127860" lon="2.521778490">
        <ele>337.56</ele>
        <time>2015-12-20T06:32:46Z</time>
      </trkpt>
      <trkpt lat="41.623201280" lon="2.521785780">
        <ele>338.52</ele>
        <time>2015-12-20T06:32:50Z</time>
      </trkpt>
      <trkpt lat="41.623350820" lon="2.521972200">
        <ele>339.48</ele>
        <time>2015-12-20T06:33:01Z</time>
      </trkpt>
      <trkpt lat="41.623492970" lon="2.522131200">
        <ele>339.96</ele>
        <time>2015-12-20T06:33:10Z</time>
      </trkpt>
      <trkpt lat="41.623654830" lon="2.522275120">
        <ele>340.92</ele>
        <time>2015-12-20T06:33:20Z</time>
      </trkpt>
      <trkpt lat="41.623832520" lon="2.522423060">
        <ele>342.37</ele>
        <time>2015-12-20T06:33:30Z</time>
      </trkpt>
      <trkpt lat="41.623990520" lon="2.522591700">
        <ele>342.85</ele>
        <time>2015-12-20T06:33:40Z</time>
      </trkpt>
      <trkpt lat="41.624092360" lon="2.522781130">
        <ele>343.81</ele>
        <time>2015-12-20T06:33:48Z</time>
      </trkpt>
      <trkpt lat="41.624194960" lon="2.523049860">
        <ele>344.29</ele>
        <time>2015-12-20T06:33:58Z</time>
      </trkpt>
      <trkpt lat="41.624280450" lon="2.523372560">
        <ele>344.29</ele>
        <time>2015-12-20T06:34:09Z</time>
      </trkpt>
      <trkpt lat="41.624338710" lon="2.523571630">
        <ele>345.25</ele>
        <time>2015-12-20T06:34:16Z</time>
      </trkpt>
      <trkpt lat="41.624418170" lon="2.523749410">
        <ele>346.69</ele>
        <time>2015-12-20T06:34:24Z</time>
      </trkpt>
      <trkpt lat="41.624521430" lon="2.523968510">
        <ele>347.65</ele>
        <time>2015-12-20T06:34:33Z</time>
      </trkpt>
      <trkpt lat="41.624589910" lon="2.524130370">
        <ele>349.10</ele>
        <time>2015-12-20T06:34:40Z</time>
      </trkpt>
      <trkpt lat="41.624678090" lon="2.524385680">
        <ele>351.02</ele>
        <time>2015-12-20T06:34:50Z</time>
      </trkpt>
      <trkpt lat="41.624755040" lon="2.524601940">
        <ele>351.98</ele>
        <time>2015-12-20T06:34:58Z</time>
      </trkpt>
      <trkpt lat="41.624836170" lon="2.524809550">
        <ele>352.94</ele>
        <time>2015-12-20T06:35:06Z</time>
      </trkpt>
      <trkpt lat="41.624926110" lon="2.525034190">
        <ele>353.42</ele>
        <time>2015-12-20T06:35:15Z</time>
      </trkpt>
      <trkpt lat="41.625038260" lon="2.525195460">
        <ele>353.42</ele>
        <time>2015-12-20T06:35:22Z</time>
      </trkpt>
      <trkpt lat="41.625226350" lon="2.525398550">
        <ele>353.90</ele>
        <time>2015-12-20T06:35:32Z</time>
      </trkpt>
      <trkpt lat="41.625349650" lon="2.525567780">
        <ele>354.86</ele>
        <time>2015-12-20T06:35:40Z</time>
      </trkpt>
      <trkpt lat="41.625455680" lon="2.525751600">
        <ele>354.86</ele>
        <time>2015-12-20T06:35:48Z</time>
      </trkpt>
      <trkpt lat="41.625571520" lon="2.525934740">
        <ele>355.34</ele>
        <time>2015-12-20T06:35:55Z</time>
      </trkpt>
      <trkpt lat="41.625704540" lon="2.526069190">
        <ele>355.34</ele>
        <time>2015-12-20T06:36:01Z</time>
      </trkpt>
      <trkpt lat="41.625931940" lon="2.526224340">
        <ele>355.34</ele>
        <time>2015-12-20T06:36:09Z</time>
      </trkpt>
      <trkpt lat="41.626087340" lon="2.526373370">
        <ele>354.38</ele>
        <time>2015-12-20T06:36:16Z</time>
      </trkpt>
      <trkpt lat="41.626229750" lon="2.526577380">
        <ele>354.38</ele>
        <time>2015-12-20T06:36:24Z</time>
      </trkpt>
      <trkpt lat="41.626335610" lon="2.526833780">
        <ele>356.31</ele>
        <time>2015-12-20T06:36:33Z</time>
      </trkpt>
      <trkpt lat="41.626339300" lon="2.526858760">
        <ele>356.31</ele>
        <time>2015-12-20T06:36:34Z</time>
      </trkpt>
      <trkpt lat="41.626375930" lon="2.526963790">
        <ele>356.31</ele>
        <time>2015-12-20T06:36:39Z</time>
      </trkpt>
      <trkpt lat="41.626431000" lon="2.527055990">
        <ele>356.79</ele>
        <time>2015-12-20T06:36:44Z</time>
      </trkpt>
      <trkpt lat="41.626432090" lon="2.527188670">
        <ele>357.27</ele>
        <time>2015-12-20T06:36:49Z</time>
      </trkpt>
      <trkpt lat="41.626540800" lon="2.527290850">
        <ele>357.75</ele>
        <time>2015-12-20T06:36:54Z</time>
      </trkpt>
      <trkpt lat="41.626654710" lon="2.527257820">
        <ele>358.71</ele>
        <time>2015-12-20T06:37:00Z</time>
      </trkpt>
      <trkpt lat="41.626675580" lon="2.527246260">
        <ele>359.19</ele>
        <time>2015-12-20T06:37:02Z</time>
      </trkpt>
      <trkpt lat="41.626773400" lon="2.527255730">
        <ele>360.63</ele>
        <time>2015-12-20T06:37:09Z</time>
      </trkpt>
      <trkpt lat="41.626787060" lon="2.527256650">
        <ele>361.59</ele>
        <time>2015-12-20T06:37:10Z</time>
      </trkpt>
      <trkpt lat="41.626893930" lon="2.527275430">
        <ele>362.55</ele>
        <time>2015-12-20T06:37:17Z</time>
      </trkpt>
      <trkpt lat="41.626990410" lon="2.527308280">
        <ele>364.48</ele>
        <time>2015-12-20T06:37:24Z</time>
      </trkpt>
      <trkpt lat="41.627132730" lon="2.527356230">
        <ele>366.40</ele>
        <time>2015-12-20T06:37:33Z</time>
      </trkpt>
      <trkpt lat="41.627252590" lon="2.527424620">
        <ele>367.84</ele>
        <time>2015-12-20T06:37:40Z</time>
      </trkpt>
      <trkpt lat="41.627397600" lon="2.527499560">
        <ele>369.28</ele>
        <time>2015-12-20T06:37:49Z</time>
      </trkpt>
      <trkpt lat="41.627532380" lon="2.527572980">
        <ele>370.24</ele>
        <time>2015-12-20T06:37:57Z</time>
      </trkpt>
      <trkpt lat="41.627648720" lon="2.527648170">
        <ele>371.69</ele>
        <time>2015-12-20T06:38:04Z</time>
      </trkpt>
      <trkpt lat="41.627753910" lon="2.527725200">
        <ele>372.17</ele>
        <time>2015-12-20T06:38:11Z</time>
      </trkpt>
      <trkpt lat="41.627824320" lon="2.527758980">
        <ele>373.13</ele>
        <time>2015-12-20T06:38:15Z</time>
      </trkpt>
      <trkpt lat="41.628012160" lon="2.527865010">
        <ele>374.57</ele>
        <time>2015-12-20T06:38:26Z</time>
      </trkpt>
      <trkpt lat="41.628153900" lon="2.527984120">
        <ele>376.01</ele>
        <time>2015-12-20T06:38:35Z</time>
      </trkpt>
      <trkpt lat="41.628271750" lon="2.528096770">
        <ele>376.97</ele>
        <time>2015-12-20T06:38:43Z</time>
      </trkpt>
      <trkpt lat="41.628425300" lon="2.528262230">
        <ele>378.90</ele>
        <time>2015-12-20T06:38:53Z</time>
      </trkpt>
      <trkpt lat="41.628556900" lon="2.528440340">
        <ele>379.86</ele>
        <time>2015-12-20T06:39:02Z</time>
      </trkpt>
      <trkpt lat="41.628674670" lon="2.528635560">
        <ele>380.34</ele>
        <time>2015-12-20T06:39:10Z</time>
      </trkpt>
      <trkpt lat="41.628831240" lon="2.528968150">
        <ele>380.34</ele>
        <time>2015-12-20T06:39:20Z</time>
      </trkpt>
      <trkpt lat="41.629029720" lon="2.529332770">
        <ele>380.34</ele>
        <time>2015-12-20T06:39:30Z</time>
      </trkpt>
      <trkpt lat="41.629190910" lon="2.529694440">
        <ele>380.34</ele>
        <time>2015-12-20T06:39:39Z</time>
      </trkpt>
      <trkpt lat="41.629307670" lon="2.530013040">
        <ele>382.26</ele>
        <time>2015-12-20T06:39:49Z</time>
      </trkpt>
      <trkpt lat="41.629372120" lon="2.530263990">
        <ele>383.70</ele>
        <time>2015-12-20T06:39:57Z</time>
      </trkpt>
      <trkpt lat="41.629396260" lon="2.530559790">
        <ele>386.11</ele>
        <time>2015-12-20T06:40:06Z</time>
      </trkpt>
      <trkpt lat="41.629407920" lon="2.530905130">
        <ele>387.55</ele>
        <time>2015-12-20T06:40:16Z</time>
      </trkpt>
      <trkpt lat="41.629450330" lon="2.531148450">
        <ele>388.51</ele>
        <time>2015-12-20T06:40:24Z</time>
      </trkpt>
      <trkpt lat="41.629623330" lon="2.531294050">
        <ele>388.51</ele>
        <time>2015-12-20T06:40:31Z</time>
      </trkpt>
      <trkpt lat="41.629798760" lon="2.531402090">
        <ele>386.59</ele>
        <time>2015-12-20T06:40:35Z</time>
      </trkpt>
      <trkpt lat="41.629847710" lon="2.531428240">
        <ele>386.11</ele>
        <time>2015-12-20T06:40:36Z</time>
      </trkpt>
      <trkpt lat="41.630109730" lon="2.531531920">
        <ele>384.66</ele>
        <time>2015-12-20T06:40:40Z</time>
      </trkpt>
      <trkpt lat="41.630256160" lon="2.531588170">
        <ele>383.70</ele>
        <time>2015-12-20T06:40:42Z</time>
      </trkpt>
      <trkpt lat="41.630529670" lon="2.531563520">
        <ele>382.26</ele>
        <time>2015-12-20T06:40:46Z</time>
      </trkpt>
      <trkpt lat="41.630783390" lon="2.531454810">
        <ele>381.78</ele>
        <time>2015-12-20T06:40:50Z</time>
      </trkpt>
      <trkpt lat="41.631171380" lon="2.531443660">
        <ele>381.30</ele>
        <time>2015-12-20T06:40:56Z</time>
      </trkpt>
      <trkpt lat="41.631287470" lon="2.531478450">
        <ele>381.30</ele>
        <time>2015-12-20T06:40:58Z</time>
      </trkpt>
      <trkpt lat="41.631521160" lon="2.531310810">
        <ele>380.82</ele>
        <time>2015-12-20T06:41:03Z</time>
      </trkpt>
      <trkpt lat="41.631554600" lon="2.531252640">
        <ele>380.82</ele>
        <time>2015-12-20T06:41:04Z</time>
      </trkpt>
      <trkpt lat="41.631735740" lon="2.530922230">
        <ele>379.38</ele>
        <time>2015-12-20T06:41:09Z</time>
      </trkpt>
      <trkpt lat="41.631967250" lon="2.530490720">
        <ele>377.45</ele>
        <time>2015-12-20T06:41:16Z</time>
      </trkpt>
      <trkpt lat="41.632113170" lon="2.530507240">
        <ele>376.49</ele>
        <time>2015-12-20T06:41:21Z</time>
      </trkpt>
      <trkpt lat="41.632190870" lon="2.530596340">
        <ele>375.05</ele>
        <time>2015-12-20T06:41:23Z</time>
      </trkpt>
      <trkpt lat="41.632542410" lon="2.530970670">
        <ele>373.61</ele>
        <time>2015-12-20T06:41:30Z</time>
      </trkpt>
      <trkpt lat="41.632864110" lon="2.531349370">
        <ele>371.21</ele>
        <time>2015-12-20T06:41:37Z</time>
      </trkpt>
      <trkpt lat="41.632888750" lon="2.531389350">
        <ele>370.73</ele>
        <time>2015-12-20T06:41:38Z</time>
      </trkpt>
      <trkpt lat="41.632994200" lon="2.531576100">
        <ele>370.73</ele>
        <time>2015-12-20T06:41:41Z</time>
      </trkpt>
      <trkpt lat="41.633133920" lon="2.531776590">
        <ele>372.65</ele>
        <time>2015-12-20T06:41:47Z</time>
      </trkpt>
      <trkpt lat="41.633189240" lon="2.531931160">
        <ele>374.57</ele>
        <time>2015-12-20T06:41:52Z</time>
      </trkpt>
      <trkpt lat="41.633232160" lon="2.532184880">
        <ele>376.49</ele>
        <time>2015-12-20T06:41:59Z</time>
      </trkpt>
      <trkpt lat="41.633223020" lon="2.532431550">
        <ele>378.42</ele>
        <time>2015-12-20T06:42:06Z</time>
      </trkpt>
      <trkpt lat="41.633226120" lon="2.532645380">
        <ele>381.78</ele>
        <time>2015-12-20T06:42:13Z</time>
      </trkpt>
      <trkpt lat="41.633318410" lon="2.532783510">
        <ele>382.26</ele>
        <time>2015-12-20T06:42:19Z</time>
      </trkpt>
      <trkpt lat="41.633496190" lon="2.533023480">
        <ele>379.38</ele>
        <time>2015-12-20T06:42:24Z</time>
      </trkpt>
      <trkpt lat="41.633613280" lon="2.533241330">
        <ele>375.53</ele>
        <time>2015-12-20T06:42:27Z</time>
      </trkpt>
      <trkpt lat="41.633875300" lon="2.533538380">
        <ele>372.65</ele>
        <time>2015-12-20T06:42:32Z</time>
      </trkpt>
      <trkpt lat="41.633957950" lon="2.533540820">
        <ele>373.61</ele>
        <time>2015-12-20T06:42:35Z</time>
      </trkpt>
      <trkpt lat="41.634136650" lon="2.533488850">
        <ele>374.57</ele>
        <time>2015-12-20T06:42:40Z</time>
      </trkpt>
      <trkpt lat="41.634218540" lon="2.533461610">
        <ele>373.13</ele>
        <time>2015-12-20T06:42:42Z</time>
      </trkpt>
      <trkpt lat="41.634431110" lon="2.533464880">
        <ele>370.73</ele>
        <time>2015-12-20T06:42:46Z</time>
      </trkpt>
      <trkpt lat="41.634618530" lon="2.533411060">
        <ele>368.80</ele>
        <time>2015-12-20T06:42:50Z</time>
      </trkpt>
      <trkpt lat="41.634639560" lon="2.533356920">
        <ele>368.80</ele>
        <time>2015-12-20T06:42:51Z</time>
      </trkpt>
      <trkpt lat="41.634641490" lon="2.533007390">
        <ele>367.36</ele>
        <time>2015-12-20T06:42:56Z</time>
      </trkpt>
      <trkpt lat="41.634608630" lon="2.532634480">
        <ele>364.00</ele>
        <time>2015-12-20T06:43:00Z</time>
      </trkpt>
      <trkpt lat="41.634621120" lon="2.532314880">
        <ele>362.55</ele>
        <time>2015-12-20T06:43:03Z</time>
      </trkpt>
      <trkpt lat="41.634684740" lon="2.532130560">
        <ele>362.55</ele>
        <time>2015-12-20T06:43:05Z</time>
      </trkpt>
      <trkpt lat="41.634846680" lon="2.531855300">
        <ele>363.52</ele>
        <time>2015-12-20T06:43:10Z</time>
      </trkpt>
      <trkpt lat="41.634934860" lon="2.531767710">
        <ele>364.96</ele>
        <time>2015-12-20T06:43:14Z</time>
      </trkpt>
      <trkpt lat="41.635082380" lon="2.531819840">
        <ele>367.36</ele>
        <time>2015-12-20T06:43:20Z</time>
      </trkpt>
      <trkpt lat="41.635210620" lon="2.531969460">
        <ele>368.80</ele>
        <time>2015-12-20T06:43:26Z</time>
      </trkpt>
      <trkpt lat="41.635396370" lon="2.532131570">
        <ele>369.28</ele>
        <time>2015-12-20T06:43:33Z</time>
      </trkpt>
      <trkpt lat="41.635466610" lon="2.532126960">
        <ele>369.28</ele>
        <time>2015-12-20T06:43:35Z</time>
      </trkpt>
      <trkpt lat="41.635566100" lon="2.531968120">
        <ele>369.28</ele>
        <time>2015-12-20T06:43:39Z</time>
      </trkpt>
      <trkpt lat="41.635572050" lon="2.531818670">
        <ele>369.28</ele>
        <time>2015-12-20T06:43:42Z</time>
      </trkpt>
      <trkpt lat="41.635636670" lon="2.531480630">
        <ele>369.76</ele>
        <time>2015-12-20T06:43:50Z</time>
      </trkpt>
      <trkpt lat="41.635685290" lon="2.531261610">
        <ele>372.65</ele>
        <time>2015-12-20T06:43:57Z</time>
      </trkpt>
      <trkpt lat="41.635758720" lon="2.531028420">
        <ele>374.57</ele>
        <time>2015-12-20T06:44:04Z</time>
      </trkpt>
      <trkpt lat="41.635892490" lon="2.530917110">
        <ele>376.49</ele>
        <time>2015-12-20T06:44:10Z</time>
      </trkpt>
      <trkpt lat="41.636071700" lon="2.530864140">
        <ele>377.45</ele>
        <time>2015-12-20T06:44:17Z</time>
      </trkpt>
      <trkpt lat="41.636263140" lon="2.530852820">
        <ele>377.94</ele>
        <time>2015-12-20T06:44:25Z</time>
      </trkpt>
      <trkpt lat="41.636318630" lon="2.530974190">
        <ele>377.94</ele>
        <time>2015-12-20T06:44:30Z</time>
      </trkpt>
      <trkpt lat="41.636351480" lon="2.531222880">
        <ele>377.94</ele>
        <time>2015-12-20T06:44:37Z</time>
      </trkpt>
      <trkpt lat="41.636347800" lon="2.531481720">
        <ele>377.94</ele>
        <time>2015-12-20T06:44:44Z</time>
      </trkpt>
      <trkpt lat="41.636381660" lon="2.531765110">
        <ele>376.49</ele>
        <time>2015-12-20T06:44:50Z</time>
      </trkpt>
      <trkpt lat="41.636454500" lon="2.531987310">
        <ele>376.49</ele>
        <time>2015-12-20T06:44:56Z</time>
      </trkpt>
      <trkpt lat="41.636537900" lon="2.532174480">
        <ele>376.49</ele>
        <time>2015-12-20T06:45:02Z</time>
      </trkpt>
      <trkpt lat="41.636526330" lon="2.532434400">
        <ele>376.49</ele>
        <time>2015-12-20T06:45:09Z</time>
      </trkpt>
      <trkpt lat="41.636457260" lon="2.532673460">
        <ele>376.49</ele>
        <time>2015-12-20T06:45:15Z</time>
      </trkpt>
      <trkpt lat="41.636482490" lon="2.532882080">
        <ele>376.49</ele>
        <time>2015-12-20T06:45:20Z</time>
      </trkpt>
      <trkpt lat="41.636683570" lon="2.533094730">
        <ele>376.49</ele>
        <time>2015-12-20T06:45:27Z</time>
      </trkpt>
      <trkpt lat="41.636752050" lon="2.533321630">
        <ele>376.49</ele>
        <time>2015-12-20T06:45:33Z</time>
      </trkpt>
      <trkpt lat="41.636703690" lon="2.533633180">
        <ele>376.49</ele>
        <time>2015-12-20T06:45:40Z</time>
      </trkpt>
      <trkpt lat="41.636599590" lon="2.533919850">
        <ele>376.49</ele>
        <time>2015-12-20T06:45:47Z</time>
      </trkpt>
      <trkpt lat="41.636587020" lon="2.533959580">
        <ele>376.49</ele>
        <time>2015-12-20T06:45:48Z</time>
      </trkpt>
      <trkpt lat="41.636671170" lon="2.534120590">
        <ele>376.49</ele>
        <time>2015-12-20T06:45:53Z</time>
      </trkpt>
      <trkpt lat="41.636703770" lon="2.534128640">
        <ele>376.49</ele>
        <time>2015-12-20T06:45:54Z</time>
      </trkpt>
      <trkpt lat="41.636879460" lon="2.534186390">
        <ele>375.53</ele>
        <time>2015-12-20T06:45:58Z</time>
      </trkpt>
      <trkpt lat="41.637255300" lon="2.534452600">
        <ele>374.09</ele>
        <time>2015-12-20T06:46:05Z</time>
      </trkpt>
      <trkpt lat="41.637315400" lon="2.534487720">
        <ele>373.61</ele>
        <time>2015-12-20T06:46:06Z</time>
      </trkpt>
      <trkpt lat="41.637487320" lon="2.534544460">
        <ele>373.13</ele>
        <time>2015-12-20T06:46:09Z</time>
      </trkpt>
      <trkpt lat="41.637673560" lon="2.534668520">
        <ele>372.17</ele>
        <time>2015-12-20T06:46:13Z</time>
      </trkpt>
      <trkpt lat="41.637742210" lon="2.534757780">
        <ele>371.21</ele>
        <time>2015-12-20T06:46:15Z</time>
      </trkpt>
      <trkpt lat="41.637830390" lon="2.534906140">
        <ele>370.73</ele>
        <time>2015-12-20T06:46:19Z</time>
      </trkpt>
      <trkpt lat="41.637940440" lon="2.534895750">
        <ele>369.76</ele>
        <time>2015-12-20T06:46:23Z</time>
      </trkpt>
      <trkpt lat="41.638201030" lon="2.534658210">
        <ele>368.32</ele>
        <time>2015-12-20T06:46:29Z</time>
      </trkpt>
      <trkpt lat="41.638476210" lon="2.534589310">
        <ele>368.32</ele>
        <time>2015-12-20T06:46:34Z</time>
      </trkpt>
      <trkpt lat="41.638530020" lon="2.534608330">
        <ele>367.84</ele>
        <time>2015-12-20T06:46:35Z</time>
      </trkpt>
      <trkpt lat="41.638987930" lon="2.534872780">
        <ele>367.36</ele>
        <time>2015-12-20T06:46:45Z</time>
      </trkpt>
      <trkpt lat="41.639148190" lon="2.534910250">
        <ele>366.88</ele>
        <time>2015-12-20T06:46:50Z</time>
      </trkpt>
      <trkpt lat="41.639286910" lon="2.534924920">
        <ele>368.32</ele>
        <time>2015-12-20T06:46:56Z</time>
      </trkpt>
      <trkpt lat="41.639419600" lon="2.534928860">
        <ele>369.76</ele>
        <time>2015-12-20T06:47:02Z</time>
      </trkpt>
      <trkpt lat="41.639557560" lon="2.534936650">
        <ele>371.69</ele>
        <time>2015-12-20T06:47:08Z</time>
      </trkpt>
      <trkpt lat="41.639716900" lon="2.534962220">
        <ele>372.65</ele>
        <time>2015-12-20T06:47:15Z</time>
      </trkpt>
      <trkpt lat="41.639894850" lon="2.535018880">
        <ele>374.57</ele>
        <time>2015-12-20T06:47:23Z</time>
      </trkpt>
      <trkpt lat="41.640089730" lon="2.535150900">
        <ele>376.01</ele>
        <time>2015-12-20T06:47:32Z</time>
      </trkpt>
      <trkpt lat="41.640247730" lon="2.535227760">
        <ele>376.49</ele>
        <time>2015-12-20T06:47:39Z</time>
      </trkpt>
      <trkpt lat="41.640487200" lon="2.535178560">
        <ele>376.97</ele>
        <time>2015-12-20T06:47:48Z</time>
      </trkpt>
      <trkpt lat="41.640707730" lon="2.535179390">
        <ele>377.94</ele>
        <time>2015-12-20T06:47:57Z</time>
      </trkpt>
      <trkpt lat="41.640833120" lon="2.535258690">
        <ele>378.42</ele>
        <time>2015-12-20T06:48:03Z</time>
      </trkpt>
      <trkpt lat="41.641016100" lon="2.535412410">
        <ele>378.42</ele>
        <time>2015-12-20T06:48:09Z</time>
      </trkpt>
      <trkpt lat="41.641065630" lon="2.535481230">
        <ele>378.42</ele>
        <time>2015-12-20T06:48:11Z</time>
      </trkpt>
      <trkpt lat="41.641108050" lon="2.535596310">
        <ele>378.42</ele>
        <time>2015-12-20T06:48:15Z</time>
      </trkpt>
      <trkpt lat="41.641212070" lon="2.535865870">
        <ele>379.38</ele>
        <time>2015-12-20T06:48:24Z</time>
      </trkpt>
      <trkpt lat="41.641280460" lon="2.536058570">
        <ele>380.82</ele>
        <time>2015-12-20T06:48:31Z</time>
      </trkpt>
      <trkpt lat="41.641355060" lon="2.536309190">
        <ele>382.74</ele>
        <time>2015-12-20T06:48:41Z</time>
      </trkpt>
      <trkpt lat="41.641403420" lon="2.536516060">
        <ele>383.70</ele>
        <time>2015-12-20T06:48:49Z</time>
      </trkpt>
      <trkpt lat="41.641485820" lon="2.536694420">
        <ele>385.63</ele>
        <time>2015-12-20T06:48:57Z</time>
      </trkpt>
      <trkpt lat="41.641593530" lon="2.536847560">
        <ele>386.59</ele>
        <time>2015-12-20T06:49:05Z</time>
      </trkpt>
      <trkpt lat="41.641645330" lon="2.537058700">
        <ele>387.07</ele>
        <time>2015-12-20T06:49:12Z</time>
      </trkpt>
      <trkpt lat="41.641597550" lon="2.537295490">
        <ele>387.07</ele>
        <time>2015-12-20T06:49:17Z</time>
      </trkpt>
      <trkpt lat="41.641595120" lon="2.537544850">
        <ele>387.07</ele>
        <time>2015-12-20T06:49:23Z</time>
      </trkpt>
      <trkpt lat="41.641622860" lon="2.537860850">
        <ele>388.03</ele>
        <time>2015-12-20T06:49:32Z</time>
      </trkpt>
      <trkpt lat="41.641689330" lon="2.538100990">
        <ele>388.99</ele>
        <time>2015-12-20T06:49:40Z</time>
      </trkpt>
      <trkpt lat="41.641842050" lon="2.538317830">
        <ele>388.99</ele>
        <time>2015-12-20T06:49:46Z</time>
      </trkpt>
      <trkpt lat="41.642144470" lon="2.538498710">
        <ele>387.55</ele>
        <time>2015-12-20T06:49:54Z</time>
      </trkpt>
      <trkpt lat="41.642323250" lon="2.538504080">
        <ele>387.55</ele>
        <time>2015-12-20T06:50:00Z</time>
      </trkpt>
      <trkpt lat="41.642515450" lon="2.538566690">
        <ele>389.95</ele>
        <time>2015-12-20T06:50:07Z</time>
      </trkpt>
      <trkpt lat="41.642745790" lon="2.538799790">
        <ele>389.95</ele>
        <time>2015-12-20T06:50:15Z</time>
      </trkpt>
      <trkpt lat="41.642931610" lon="2.538940940">
        <ele>388.03</ele>
        <time>2015-12-20T06:50:20Z</time>
      </trkpt>
      <trkpt lat="41.643218690" lon="2.539093240">
        <ele>385.63</ele>
        <time>2015-12-20T06:50:27Z</time>
      </trkpt>
      <trkpt lat="41.643288100" lon="2.539161640">
        <ele>384.18</ele>
        <time>2015-12-20T06:50:29Z</time>
      </trkpt>
      <trkpt lat="41.643468470" lon="2.539410910">
        <ele>380.82</ele>
        <time>2015-12-20T06:50:35Z</time>
      </trkpt>
      <trkpt lat="41.643606690" lon="2.539493730">
        <ele>378.90</ele>
        <time>2015-12-20T06:50:38Z</time>
      </trkpt>
      <trkpt lat="41.643799480" lon="2.539601690">
        <ele>376.49</ele>
        <time>2015-12-20T06:50:42Z</time>
      </trkpt>
      <trkpt lat="41.644058060" lon="2.539867140">
        <ele>373.13</ele>
        <time>2015-12-20T06:50:48Z</time>
      </trkpt>
      <trkpt lat="41.644139360" lon="2.539966470">
        <ele>371.69</ele>
        <time>2015-12-20T06:50:50Z</time>
      </trkpt>
      <trkpt lat="41.644209010" lon="2.540069900">
        <ele>369.76</ele>
        <time>2015-12-20T06:50:52Z</time>
      </trkpt>
      <trkpt lat="41.644292080" lon="2.540306520">
        <ele>367.36</ele>
        <time>2015-12-20T06:50:56Z</time>
      </trkpt>
      <trkpt lat="41.644412190" lon="2.540432920">
        <ele>363.52</ele>
        <time>2015-12-20T06:51:01Z</time>
      </trkpt>
      <trkpt lat="41.644482600" lon="2.540369380">
        <ele>363.04</ele>
        <time>2015-12-20T06:51:03Z</time>
      </trkpt>
      <trkpt lat="41.644565750" lon="2.540095380">
        <ele>360.15</ele>
        <time>2015-12-20T06:51:08Z</time>
      </trkpt>
      <trkpt lat="41.644598270" lon="2.539978960">
        <ele>358.71</ele>
        <time>2015-12-20T06:51:10Z</time>
      </trkpt>
      <trkpt lat="41.644733470" lon="2.539843840">
        <ele>356.79</ele>
        <time>2015-12-20T06:51:14Z</time>
      </trkpt>
      <trkpt lat="41.644783180" lon="2.539863370">
        <ele>355.83</ele>
        <time>2015-12-20T06:51:15Z</time>
      </trkpt>
      <trkpt lat="41.644974700" lon="2.539960770">
        <ele>353.90</ele>
        <time>2015-12-20T06:51:19Z</time>
      </trkpt>
      <trkpt lat="41.645330260" lon="2.540134940">
        <ele>351.02</ele>
        <time>2015-12-20T06:51:26Z</time>
      </trkpt>
      <trkpt lat="41.645436380" lon="2.540145250">
        <ele>350.54</ele>
        <time>2015-12-20T06:51:28Z</time>
      </trkpt>
      <trkpt lat="41.645630330" lon="2.540194200">
        <ele>348.62</ele>
        <time>2015-12-20T06:51:33Z</time>
      </trkpt>
      <trkpt lat="41.645635360" lon="2.540193110">
        <ele>348.13</ele>
        <time>2015-12-20T06:51:38Z</time>
      </trkpt>
      <trkpt lat="41.645693950" lon="2.540210630">
        <ele>348.13</ele>
        <time>2015-12-20T06:51:45Z</time>
      </trkpt>
      <trkpt lat="41.645788500" lon="2.540260590">
        <ele>349.58</ele>
        <time>2015-12-20T06:51:49Z</time>
      </trkpt>
      <trkpt lat="41.645928560" lon="2.540380450">
        <ele>351.02</ele>
        <time>2015-12-20T06:51:56Z</time>
      </trkpt>
      <trkpt lat="41.646019930" lon="2.540533330">
        <ele>352.94</ele>
        <time>2015-12-20T06:52:03Z</time>
      </trkpt>
      <trkpt lat="41.646166690" lon="2.540644060">
        <ele>355.34</ele>
        <time>2015-12-20T06:52:12Z</time>
      </trkpt>
      <trkpt lat="41.646308090" lon="2.540712120">
        <ele>357.75</ele>
        <time>2015-12-20T06:52:21Z</time>
      </trkpt>
      <trkpt lat="41.646427290" lon="2.540751520">
        <ele>360.15</ele>
        <time>2015-12-20T06:52:29Z</time>
      </trkpt>
      <trkpt lat="41.646545140" lon="2.540794930">
        <ele>363.04</ele>
        <time>2015-12-20T06:52:37Z</time>
      </trkpt>
      <trkpt lat="41.646681260" lon="2.540819740">
        <ele>364.96</ele>
        <time>2015-12-20T06:52:45Z</time>
      </trkpt>
      <trkpt lat="41.646861640" lon="2.540773060">
        <ele>366.88</ele>
        <time>2015-12-20T06:52:56Z</time>
      </trkpt>
      <trkpt lat="41.646993230" lon="2.540752190">
        <ele>367.84</ele>
        <time>2015-12-20T06:53:03Z</time>
      </trkpt>
      <trkpt lat="41.647147630" lon="2.540752190">
        <ele>368.80</ele>
        <time>2015-12-20T06:53:11Z</time>
      </trkpt>
      <trkpt lat="41.647373520" lon="2.540766180">
        <ele>369.76</ele>
        <time>2015-12-20T06:53:23Z</time>
      </trkpt>
      <trkpt lat="41.647513920" lon="2.540827960">
        <ele>372.17</ele>
        <time>2015-12-20T06:53:32Z</time>
      </trkpt>
      <trkpt lat="41.647651130" lon="2.540962320">
        <ele>375.05</ele>
        <time>2015-12-20T06:53:43Z</time>
      </trkpt>
      <trkpt lat="41.647788590" lon="2.541091570">
        <ele>376.97</ele>
        <time>2015-12-20T06:53:53Z</time>
      </trkpt>
      <trkpt lat="41.647926390" lon="2.541209500">
        <ele>379.86</ele>
        <time>2015-12-20T06:54:03Z</time>
      </trkpt>
      <trkpt lat="41.648071140" lon="2.541254510">
        <ele>381.30</ele>
        <time>2015-12-20T06:54:12Z</time>
      </trkpt>
      <trkpt lat="41.648216570" lon="2.541295250">
        <ele>382.26</ele>
        <time>2015-12-20T06:54:20Z</time>
      </trkpt>
      <trkpt lat="41.648377000" lon="2.541345210">
        <ele>383.22</ele>
        <time>2015-12-20T06:54:28Z</time>
      </trkpt>
      <trkpt lat="41.648557800" lon="2.541378310">
        <ele>384.66</ele>
        <time>2015-12-20T06:54:37Z</time>
      </trkpt>
      <trkpt lat="41.648720990" lon="2.541400110">
        <ele>385.15</ele>
        <time>2015-12-20T06:54:45Z</time>
      </trkpt>
      <trkpt lat="41.648896090" lon="2.541512930">
        <ele>386.59</ele>
        <time>2015-12-20T06:54:54Z</time>
      </trkpt>
      <trkpt lat="41.649004970" lon="2.541657850">
        <ele>387.55</ele>
        <time>2015-12-20T06:55:01Z</time>
      </trkpt>
      <trkpt lat="41.649067420" lon="2.541877120">
        <ele>388.03</ele>
        <time>2015-12-20T06:55:09Z</time>
      </trkpt>
      <trkpt lat="41.649048060" lon="2.542114410">
        <ele>388.99</ele>
        <time>2015-12-20T06:55:17Z</time>
      </trkpt>
      <trkpt lat="41.649072450" lon="2.542396970">
        <ele>389.95</ele>
        <time>2015-12-20T06:55:26Z</time>
      </trkpt>
      <trkpt lat="41.649138580" lon="2.542675080">
        <ele>390.43</ele>
        <time>2015-12-20T06:55:35Z</time>
      </trkpt>
      <trkpt lat="41.649252410" lon="2.542937180">
        <ele>391.87</ele>
        <time>2015-12-20T06:55:44Z</time>
      </trkpt>
      <trkpt lat="41.649330690" lon="2.543179590">
        <ele>392.84</ele>
        <time>2015-12-20T06:55:52Z</time>
      </trkpt>
      <trkpt lat="41.649374360" lon="2.543424000">
        <ele>394.28</ele>
        <time>2015-12-20T06:56:00Z</time>
      </trkpt>
      <trkpt lat="41.649425740" lon="2.543683670">
        <ele>395.72</ele>
        <time>2015-12-20T06:56:08Z</time>
      </trkpt>
      <trkpt lat="41.649454160" lon="2.544072930">
        <ele>397.64</ele>
        <time>2015-12-20T06:56:20Z</time>
      </trkpt>
      <trkpt lat="41.649519120" lon="2.544339310">
        <ele>398.12</ele>
        <time>2015-12-20T06:56:28Z</time>
      </trkpt>
      <trkpt lat="41.649650290" lon="2.544546000">
        <ele>399.57</ele>
        <time>2015-12-20T06:56:36Z</time>
      </trkpt>
      <trkpt lat="41.649766800" lon="2.544709870">
        <ele>400.53</ele>
        <time>2015-12-20T06:56:43Z</time>
      </trkpt>
      <trkpt lat="41.649919520" lon="2.544724200">
        <ele>401.49</ele>
        <time>2015-12-20T06:56:50Z</time>
      </trkpt>
      <trkpt lat="41.650123200" lon="2.544632420">
        <ele>403.41</ele>
        <time>2015-12-20T06:57:00Z</time>
      </trkpt>
      <trkpt lat="41.650330910" lon="2.544622530">
        <ele>404.85</ele>
        <time>2015-12-20T06:57:09Z</time>
      </trkpt>
      <trkpt lat="41.650554870" lon="2.544672320">
        <ele>406.77</ele>
        <time>2015-12-20T06:57:19Z</time>
      </trkpt>
      <trkpt lat="41.650702390" lon="2.544771560">
        <ele>407.74</ele>
        <time>2015-12-20T06:57:27Z</time>
      </trkpt>
      <trkpt lat="41.650816800" lon="2.544887230">
        <ele>409.18</ele>
        <time>2015-12-20T06:57:34Z</time>
      </trkpt>
      <trkpt lat="41.650929460" lon="2.545022180">
        <ele>411.10</ele>
        <time>2015-12-20T06:57:42Z</time>
      </trkpt>
      <trkpt lat="41.651073460" lon="2.545029560">
        <ele>412.54</ele>
        <time>2015-12-20T06:57:49Z</time>
      </trkpt>
      <trkpt lat="41.651244620" lon="2.544949340">
        <ele>413.98</ele>
        <time>2015-12-20T06:57:58Z</time>
      </trkpt>
      <trkpt lat="41.651401270" lon="2.544902900">
        <ele>415.43</ele>
        <time>2015-12-20T06:58:07Z</time>
      </trkpt>
      <trkpt lat="41.651529270" lon="2.544929140">
        <ele>416.87</ele>
        <time>2015-12-20T06:58:14Z</time>
      </trkpt>
      <trkpt lat="41.651709980" lon="2.544900560">
        <ele>419.27</ele>
        <time>2015-12-20T06:58:24Z</time>
      </trkpt>
      <trkpt lat="41.651803520" lon="2.544796960">
        <ele>420.23</ele>
        <time>2015-12-20T06:58:31Z</time>
      </trkpt>
      <trkpt lat="41.651933780" lon="2.544676930">
        <ele>422.64</ele>
        <time>2015-12-20T06:58:40Z</time>
      </trkpt>
      <trkpt lat="41.652032680" lon="2.544582380">
        <ele>425.04</ele>
        <time>2015-12-20T06:58:47Z</time>
      </trkpt>
      <trkpt lat="41.652165620" lon="2.544511050">
        <ele>426.48</ele>
        <time>2015-12-20T06:58:54Z</time>
      </trkpt>
      <trkpt lat="41.652361840" lon="2.544430250">
        <ele>428.89</ele>
        <time>2015-12-20T06:59:05Z</time>
      </trkpt>
      <trkpt lat="41.652515310" lon="2.544399820">
        <ele>428.89</ele>
        <time>2015-12-20T06:59:13Z</time>
      </trkpt>
      <trkpt lat="41.652674230" lon="2.544400580">
        <ele>429.85</ele>
        <time>2015-12-20T06:59:22Z</time>
      </trkpt>
      <trkpt lat="41.652847240" lon="2.544396220">
        <ele>431.77</ele>
        <time>2015-12-20T06:59:32Z</time>
      </trkpt>
      <trkpt lat="41.652977490" lon="2.544391780">
        <ele>433.21</ele>
        <time>2015-12-20T06:59:40Z</time>
      </trkpt>
      <trkpt lat="41.653130380" lon="2.544346680">
        <ele>435.13</ele>
        <time>2015-12-20T06:59:50Z</time>
      </trkpt>
      <trkpt lat="41.653281750" lon="2.544316510">
        <ele>436.58</ele>
        <time>2015-12-20T07:00:00Z</time>
      </trkpt>
      <trkpt lat="41.653397930" lon="2.544320360">
        <ele>439.46</ele>
        <time>2015-12-20T07:00:08Z</time>
      </trkpt>
      <trkpt lat="41.653496330" lon="2.544425720">
        <ele>440.42</ele>
        <time>2015-12-20T07:00:16Z</time>
      </trkpt>
      <trkpt lat="41.653623480" lon="2.544510380">
        <ele>442.34</ele>
        <time>2015-12-20T07:00:24Z</time>
      </trkpt>
      <trkpt lat="41.653719630" lon="2.544601740">
        <ele>444.27</ele>
        <time>2015-12-20T07:00:31Z</time>
      </trkpt>
      <trkpt lat="41.653756760" lon="2.544553970">
        <ele>444.27</ele>
        <time>2015-12-20T07:00:35Z</time>
      </trkpt>
      <trkpt lat="41.653778890" lon="2.544361520">
        <ele>447.15</ele>
        <time>2015-12-20T07:00:44Z</time>
      </trkpt>
      <trkpt lat="41.653852650" lon="2.544219440">
        <ele>447.63</ele>
        <time>2015-12-20T07:00:53Z</time>
      </trkpt>
      <trkpt lat="41.653939650" lon="2.544010730">
        <ele>447.15</ele>
        <time>2015-12-20T07:01:01Z</time>
      </trkpt>
      <trkpt lat="41.654051210" lon="2.543827000">
        <ele>447.15</ele>
        <time>2015-12-20T07:01:09Z</time>
      </trkpt>
      <trkpt lat="41.654088600" lon="2.543792720">
        <ele>447.15</ele>
        <time>2015-12-20T07:01:11Z</time>
      </trkpt>
      <trkpt lat="41.654272330" lon="2.543745030">
        <ele>447.15</ele>
        <time>2015-12-20T07:01:17Z</time>
      </trkpt>
      <trkpt lat="41.654314070" lon="2.543727760">
        <ele>445.71</ele>
        <time>2015-12-20T07:01:18Z</time>
      </trkpt>
      <trkpt lat="41.654435520" lon="2.543683840">
        <ele>445.23</ele>
        <time>2015-12-20T07:01:21Z</time>
      </trkpt>
      <trkpt lat="41.654709280" lon="2.543540590">
        <ele>445.23</ele>
        <time>2015-12-20T07:01:28Z</time>
      </trkpt>
      <trkpt lat="41.654804240" lon="2.543479740">
        <ele>446.67</ele>
        <time>2015-12-20T07:01:31Z</time>
      </trkpt>
      <trkpt lat="41.654967520" lon="2.543323500">
        <ele>445.23</ele>
        <time>2015-12-20T07:01:35Z</time>
      </trkpt>
      <trkpt lat="41.655074390" lon="2.543263400">
        <ele>444.75</ele>
        <time>2015-12-20T07:01:37Z</time>
      </trkpt>
      <trkpt lat="41.655233980" lon="2.543062740">
        <ele>445.71</ele>
        <time>2015-12-20T07:01:42Z</time>
      </trkpt>
      <trkpt lat="41.655367090" lon="2.542809270">
        <ele>446.67</ele>
        <time>2015-12-20T07:01:49Z</time>
      </trkpt>
      <trkpt lat="41.655463900" lon="2.542777250">
        <ele>446.67</ele>
        <time>2015-12-20T07:01:52Z</time>
      </trkpt>
      <trkpt lat="41.655622990" lon="2.542819080">
        <ele>443.31</ele>
        <time>2015-12-20T07:01:55Z</time>
      </trkpt>
      <trkpt lat="41.655866570" lon="2.542913120">
        <ele>438.98</ele>
        <time>2015-12-20T07:02:00Z</time>
      </trkpt>
      <trkpt lat="41.656023730" lon="2.542942040">
        <ele>437.06</ele>
        <time>2015-12-20T07:02:04Z</time>
      </trkpt>
      <trkpt lat="41.656186000" lon="2.543009430">
        <ele>434.17</ele>
        <time>2015-12-20T07:02:08Z</time>
      </trkpt>
      <trkpt lat="41.656389680" lon="2.542915300">
        <ele>434.17</ele>
        <time>2015-12-20T07:02:14Z</time>
      </trkpt>
      <trkpt lat="41.656462180" lon="2.542783210">
        <ele>434.17</ele>
        <time>2015-12-20T07:02:18Z</time>
      </trkpt>
      <trkpt lat="41.656493870" lon="2.542677510">
        <ele>436.10</ele>
        <time>2015-12-20T07:02:21Z</time>
      </trkpt>
      <trkpt lat="41.656541060" lon="2.542446000">
        <ele>434.65</ele>
        <time>2015-12-20T07:02:26Z</time>
      </trkpt>
      <trkpt lat="41.656548600" lon="2.542390430">
        <ele>434.65</ele>
        <time>2015-12-20T07:02:27Z</time>
      </trkpt>
      <trkpt lat="41.656591430" lon="2.542177530">
        <ele>430.81</ele>
        <time>2015-12-20T07:02:32Z</time>
      </trkpt>
      <trkpt lat="41.656594620" lon="2.542134860">
        <ele>430.33</ele>
        <time>2015-12-20T07:02:33Z</time>
      </trkpt>
      <trkpt lat="41.656572990" lon="2.541923720">
        <ele>426.48</ele>
        <time>2015-12-20T07:02:38Z</time>
      </trkpt>
      <trkpt lat="41.656680110" lon="2.541948950">
        <ele>424.56</ele>
        <time>2015-12-20T07:02:41Z</time>
      </trkpt>
      <trkpt lat="41.656719340" lon="2.541978370">
        <ele>424.08</ele>
        <time>2015-12-20T07:02:42Z</time>
      </trkpt>
      <trkpt lat="41.656910360" lon="2.542204430">
        <ele>422.64</ele>
        <time>2015-12-20T07:02:48Z</time>
      </trkpt>
      <trkpt lat="41.656979850" lon="2.542462180">
        <ele>422.16</ele>
        <time>2015-12-20T07:02:53Z</time>
      </trkpt>
      <trkpt lat="41.657083950" lon="2.542693430">
        <ele>420.71</ele>
        <time>2015-12-20T07:02:59Z</time>
      </trkpt>
      <trkpt lat="41.657120670" lon="2.542731150">
        <ele>419.75</ele>
        <time>2015-12-20T07:03:00Z</time>
      </trkpt>
      <trkpt lat="41.657249920" lon="2.542893010">
        <ele>416.87</ele>
        <time>2015-12-20T07:03:05Z</time>
      </trkpt>
      <trkpt lat="41.657382680" lon="2.542848750">
        <ele>416.39</ele>
        <time>2015-12-20T07:03:09Z</time>
      </trkpt>
      <trkpt lat="41.657398190" lon="2.542777760">
        <ele>418.31</ele>
        <time>2015-12-20T07:03:12Z</time>
      </trkpt>
      <trkpt lat="41.657409760" lon="2.542629400">
        <ele>419.75</ele>
        <time>2015-12-20T07:03:18Z</time>
      </trkpt>
      <trkpt lat="41.657470110" lon="2.542422450">
        <ele>421.68</ele>
        <time>2015-12-20T07:03:26Z</time>
      </trkpt>
      <trkpt lat="41.657542190" lon="2.542258580">
        <ele>422.16</ele>
        <time>2015-12-20T07:03:33Z</time>
      </trkpt>
      <trkpt lat="41.657553680" lon="2.542051720">
        <ele>422.16</ele>
        <time>2015-12-20T07:03:40Z</time>
      </trkpt>
      <trkpt lat="41.657563060" lon="2.541890950">
        <ele>422.16</ele>
        <time>2015-12-20T07:03:46Z</time>
      </trkpt>
      <trkpt lat="41.657578150" lon="2.541804030">
        <ele>422.64</ele>
        <time>2015-12-20T07:03:49Z</time>
      </trkpt>
      <trkpt lat="41.657647970" lon="2.541624570">
        <ele>424.56</ele>
        <time>2015-12-20T07:03:56Z</time>
      </trkpt>
      <trkpt lat="41.657668510" lon="2.541502120">
        <ele>425.04</ele>
        <time>2015-12-20T07:04:00Z</time>
      </trkpt>
      <trkpt lat="41.657743020" lon="2.541433130">
        <ele>426.00</ele>
        <time>2015-12-20T07:04:05Z</time>
      </trkpt>
      <trkpt lat="41.657895910" lon="2.541462970">
        <ele>425.04</ele>
        <time>2015-12-20T07:04:11Z</time>
      </trkpt>
      <trkpt lat="41.657980900" lon="2.541510750">
        <ele>424.08</ele>
        <time>2015-12-20T07:04:13Z</time>
      </trkpt>
      <trkpt lat="41.658018200" lon="2.541531620">
        <ele>423.60</ele>
        <time>2015-12-20T07:04:14Z</time>
      </trkpt>
      <trkpt lat="41.658101680" lon="2.541563220">
        <ele>420.71</ele>
        <time>2015-12-20T07:04:16Z</time>
      </trkpt>
      <trkpt lat="41.658241410" lon="2.541682830">
        <ele>418.79</ele>
        <time>2015-12-20T07:04:19Z</time>
      </trkpt>
      <trkpt lat="41.658398320" lon="2.541786510">
        <ele>418.31</ele>
        <time>2015-12-20T07:04:22Z</time>
      </trkpt>
      <trkpt lat="41.658561350" lon="2.541973180">
        <ele>417.35</ele>
        <time>2015-12-20T07:04:26Z</time>
      </trkpt>
      <trkpt lat="41.658706190" lon="2.542079540">
        <ele>414.47</ele>
        <time>2015-12-20T07:04:30Z</time>
      </trkpt>
      <trkpt lat="41.658820430" lon="2.541943340">
        <ele>412.06</ele>
        <time>2015-12-20T07:04:34Z</time>
      </trkpt>
      <trkpt lat="41.658778190" lon="2.541766060">
        <ele>412.06</ele>
        <time>2015-12-20T07:04:38Z</time>
      </trkpt>
      <trkpt lat="41.658722360" lon="2.541648210">
        <ele>413.98</ele>
        <time>2015-12-20T07:04:42Z</time>
      </trkpt>
      <trkpt lat="41.658679030" lon="2.541467500">
        <ele>414.47</ele>
        <time>2015-12-20T07:04:48Z</time>
      </trkpt>
      <trkpt lat="41.658759410" lon="2.541296420">
        <ele>414.47</ele>
        <time>2015-12-20T07:04:53Z</time>
      </trkpt>
      <trkpt lat="41.658815650" lon="2.541131130">
        <ele>415.43</ele>
        <time>2015-12-20T07:04:59Z</time>
      </trkpt>
      <trkpt lat="41.658747010" lon="2.540969190">
        <ele>415.91</ele>
        <time>2015-12-20T07:05:06Z</time>
      </trkpt>
      <trkpt lat="41.658649190" lon="2.540780350">
        <ele>418.31</ele>
        <time>2015-12-20T07:05:14Z</time>
      </trkpt>
      <trkpt lat="41.658579200" lon="2.540686470">
        <ele>419.27</ele>
        <time>2015-12-20T07:05:18Z</time>
      </trkpt>
      <trkpt lat="41.658491530" lon="2.540554710">
        <ele>421.19</ele>
        <time>2015-12-20T07:05:25Z</time>
      </trkpt>
      <trkpt lat="41.658467470" lon="2.540515650">
        <ele>421.68</ele>
        <time>2015-12-20T07:05:27Z</time>
      </trkpt>
      <trkpt lat="41.658468640" lon="2.540322610">
        <ele>423.12</ele>
        <time>2015-12-20T07:05:35Z</time>
      </trkpt>
      <trkpt lat="41.658496970" lon="2.540269300">
        <ele>424.08</ele>
        <time>2015-12-20T07:05:38Z</time>
      </trkpt>
      <trkpt lat="41.658595550" lon="2.540172410">
        <ele>426.00</ele>
        <time>2015-12-20T07:05:46Z</time>
      </trkpt>
      <trkpt lat="41.658713230" lon="2.540047770">
        <ele>427.44</ele>
        <time>2015-12-20T07:05:54Z</time>
      </trkpt>
      <trkpt lat="41.658765360" lon="2.539983820">
        <ele>428.40</ele>
        <time>2015-12-20T07:05:58Z</time>
      </trkpt>
      <trkpt lat="41.658846420" lon="2.539901000">
        <ele>429.37</ele>
        <time>2015-12-20T07:06:04Z</time>
      </trkpt>
      <trkpt lat="41.658866110" lon="2.539737140">
        <ele>431.29</ele>
        <time>2015-12-20T07:06:11Z</time>
      </trkpt>
      <trkpt lat="41.658851030" lon="2.539690280">
        <ele>431.29</ele>
        <time>2015-12-20T07:06:13Z</time>
      </trkpt>
      <trkpt lat="41.658752540" lon="2.539637640">
        <ele>431.77</ele>
        <time>2015-12-20T07:06:19Z</time>
      </trkpt>
      <trkpt lat="41.658603170" lon="2.539589530">
        <ele>432.25</ele>
        <time>2015-12-20T07:06:25Z</time>
      </trkpt>
      <trkpt lat="41.658434190" lon="2.539455510">
        <ele>432.25</ele>
        <time>2015-12-20T07:06:32Z</time>
      </trkpt>
      <trkpt lat="41.658197910" lon="2.539414770">
        <ele>432.73</ele>
        <time>2015-12-20T07:06:41Z</time>
      </trkpt>
      <trkpt lat="41.658020380" lon="2.539281920">
        <ele>433.21</ele>
        <time>2015-12-20T07:06:49Z</time>
      </trkpt>
      <trkpt lat="41.658063130" lon="2.539086950">
        <ele>433.69</ele>
        <time>2015-12-20T07:06:56Z</time>
      </trkpt>
      <trkpt lat="41.658125150" lon="2.538984950">
        <ele>434.65</ele>
        <time>2015-12-20T07:07:01Z</time>
      </trkpt>
      <trkpt lat="41.658222720" lon="2.538845810">
        <ele>436.10</ele>
        <time>2015-12-20T07:07:08Z</time>
      </trkpt>
      <trkpt lat="41.658286420" lon="2.538639860">
        <ele>438.50</ele>
        <time>2015-12-20T07:07:16Z</time>
      </trkpt>
      <trkpt lat="41.658251220" lon="2.538439370">
        <ele>439.94</ele>
        <time>2015-12-20T07:07:23Z</time>
      </trkpt>
      <trkpt lat="41.658208390" lon="2.538179030">
        <ele>441.38</ele>
        <time>2015-12-20T07:07:32Z</time>
      </trkpt>
      <trkpt lat="41.658225320" lon="2.537941650">
        <ele>441.86</ele>
        <time>2015-12-20T07:07:38Z</time>
      </trkpt>
      <trkpt lat="41.658289270" lon="2.537728080">
        <ele>441.86</ele>
        <time>2015-12-20T07:07:44Z</time>
      </trkpt>
      <trkpt lat="41.658326990" lon="2.537534460">
        <ele>441.86</ele>
        <time>2015-12-20T07:07:50Z</time>
      </trkpt>
      <trkpt lat="41.658229420" lon="2.537318620">
        <ele>442.82</ele>
        <time>2015-12-20T07:07:57Z</time>
      </trkpt>
      <trkpt lat="41.658160020" lon="2.537148140">
        <ele>444.75</ele>
        <time>2015-12-20T07:08:04Z</time>
      </trkpt>
      <trkpt lat="41.658133790" lon="2.536918390">
        <ele>448.11</ele>
        <time>2015-12-20T07:08:13Z</time>
      </trkpt>
      <trkpt lat="41.658110490" lon="2.536688050">
        <ele>450.03</ele>
        <time>2015-12-20T07:08:22Z</time>
      </trkpt>
      <trkpt lat="41.658129180" lon="2.536503230">
        <ele>451.96</ele>
        <time>2015-12-20T07:08:29Z</time>
      </trkpt>
      <trkpt lat="41.658232860" lon="2.536360570">
        <ele>451.96</ele>
        <time>2015-12-20T07:08:35Z</time>
      </trkpt>
      <trkpt lat="41.658325310" lon="2.536079690">
        <ele>450.52</ele>
        <time>2015-12-20T07:08:40Z</time>
      </trkpt>
      <trkpt lat="41.658327070" lon="2.535971320">
        <ele>450.03</ele>
        <time>2015-12-20T07:08:42Z</time>
      </trkpt>
      <trkpt lat="41.658283070" lon="2.535682390">
        <ele>449.55</ele>
        <time>2015-12-20T07:08:49Z</time>
      </trkpt>
      <trkpt lat="41.658147280" lon="2.535418860">
        <ele>448.11</ele>
        <time>2015-12-20T07:08:56Z</time>
      </trkpt>
      <trkpt lat="41.658031860" lon="2.535133040">
        <ele>447.15</ele>
        <time>2015-12-20T07:09:03Z</time>
      </trkpt>
      <trkpt lat="41.657848300" lon="2.534878740">
        <ele>443.79</ele>
        <time>2015-12-20T07:09:09Z</time>
      </trkpt>
      <trkpt lat="41.657749480" lon="2.534788290">
        <ele>441.86</ele>
        <time>2015-12-20T07:09:11Z</time>
      </trkpt>
      <trkpt lat="41.657596670" lon="2.534681010">
        <ele>438.98</ele>
        <time>2015-12-20T07:09:14Z</time>
      </trkpt>
      <trkpt lat="41.657307420" lon="2.534539020">
        <ele>434.65</ele>
        <time>2015-12-20T07:09:19Z</time>
      </trkpt>
      <trkpt lat="41.657249750" lon="2.534505490">
        <ele>434.17</ele>
        <time>2015-12-20T07:09:20Z</time>
      </trkpt>
      <trkpt lat="41.656954290" lon="2.534179430">
        <ele>432.73</ele>
        <time>2015-12-20T07:09:26Z</time>
      </trkpt>
      <trkpt lat="41.656781030" lon="2.533809370">
        <ele>432.25</ele>
        <time>2015-12-20T07:09:32Z</time>
      </trkpt>
      <trkpt lat="41.656738620" lon="2.533498240">
        <ele>432.25</ele>
        <time>2015-12-20T07:09:38Z</time>
      </trkpt>
      <trkpt lat="41.656759240" lon="2.533280050">
        <ele>431.77</ele>
        <time>2015-12-20T07:09:42Z</time>
      </trkpt>
      <trkpt lat="41.656714650" lon="2.533019460">
        <ele>429.85</ele>
        <time>2015-12-20T07:09:46Z</time>
      </trkpt>
      <trkpt lat="41.656500990" lon="2.532537080">
        <ele>426.48</ele>
        <time>2015-12-20T07:09:53Z</time>
      </trkpt>
      <trkpt lat="41.656417840" lon="2.532279170">
        <ele>425.04</ele>
        <time>2015-12-20T07:09:56Z</time>
      </trkpt>
      <trkpt lat="41.656142920" lon="2.531880030">
        <ele>422.64</ele>
        <time>2015-12-20T07:10:02Z</time>
      </trkpt>
      <trkpt lat="41.655871930" lon="2.531742060">
        <ele>421.68</ele>
        <time>2015-12-20T07:10:06Z</time>
      </trkpt>
      <trkpt lat="41.655535230" lon="2.531621860">
        <ele>421.19</ele>
        <time>2015-12-20T07:10:11Z</time>
      </trkpt>
      <trkpt lat="41.655435820" lon="2.531548860">
        <ele>421.19</ele>
        <time>2015-12-20T07:10:13Z</time>
      </trkpt>
      <trkpt lat="41.655257700" lon="2.531212410">
        <ele>421.19</ele>
        <time>2015-12-20T07:10:19Z</time>
      </trkpt>
      <trkpt lat="41.655286620" lon="2.531062200">
        <ele>420.71</ele>
        <time>2015-12-20T07:10:21Z</time>
      </trkpt>
      <trkpt lat="41.655364410" lon="2.530630620">
        <ele>419.27</ele>
        <time>2015-12-20T07:10:27Z</time>
      </trkpt>
      <trkpt lat="41.655388460" lon="2.530375980">
        <ele>419.27</ele>
        <time>2015-12-20T07:10:32Z</time>
      </trkpt>
      <trkpt lat="41.655412430" lon="2.530302470">
        <ele>420.71</ele>
        <time>2015-12-20T07:10:34Z</time>
      </trkpt>
      <trkpt lat="41.655527010" lon="2.530063830">
        <ele>422.64</ele>
        <time>2015-12-20T07:10:42Z</time>
      </trkpt>
      <trkpt lat="41.655681330" lon="2.529750100">
        <ele>422.64</ele>
        <time>2015-12-20T07:10:50Z</time>
      </trkpt>
      <trkpt lat="41.655882410" lon="2.529466290">
        <ele>419.75</ele>
        <time>2015-12-20T07:10:58Z</time>
      </trkpt>
      <trkpt lat="41.656135120" lon="2.529233860">
        <ele>416.39</ele>
        <time>2015-12-20T07:11:04Z</time>
      </trkpt>
      <trkpt lat="41.656356660" lon="2.529035460">
        <ele>413.02</ele>
        <time>2015-12-20T07:11:08Z</time>
      </trkpt>
      <trkpt lat="41.656480120" lon="2.528948370">
        <ele>411.10</ele>
        <time>2015-12-20T07:11:10Z</time>
      </trkpt>
      <trkpt lat="41.656578610" lon="2.528858180">
        <ele>410.14</ele>
        <time>2015-12-20T07:11:12Z</time>
      </trkpt>
      <trkpt lat="41.656642980" lon="2.528628180">
        <ele>407.74</ele>
        <time>2015-12-20T07:11:15Z</time>
      </trkpt>
      <trkpt lat="41.656776170" lon="2.528295250">
        <ele>406.77</ele>
        <time>2015-12-20T07:11:20Z</time>
      </trkpt>
      <trkpt lat="41.657042040" lon="2.528090990">
        <ele>407.26</ele>
        <time>2015-12-20T07:11:26Z</time>
      </trkpt>
      <trkpt lat="41.657404560" lon="2.527907930">
        <ele>406.77</ele>
        <time>2015-12-20T07:11:34Z</time>
      </trkpt>
      <trkpt lat="41.657605730" lon="2.527897620">
        <ele>405.81</ele>
        <time>2015-12-20T07:11:38Z</time>
      </trkpt>
      <trkpt lat="41.657743940" lon="2.527909180">
        <ele>405.33</ele>
        <time>2015-12-20T07:11:41Z</time>
      </trkpt>
      <trkpt lat="41.657863550" lon="2.527961230">
        <ele>403.89</ele>
        <time>2015-12-20T07:11:45Z</time>
      </trkpt>
      <trkpt lat="41.657846040" lon="2.528010100">
        <ele>403.41</ele>
        <time>2015-12-20T07:11:50Z</time>
      </trkpt>
      <trkpt lat="41.657774710" lon="2.528023930">
        <ele>402.45</ele>
        <time>2015-12-20T07:11:58Z</time>
      </trkpt>
      <trkpt lat="41.657765650" lon="2.528034910">
        <ele>401.97</ele>
        <time>2015-12-20T07:12:06Z</time>
      </trkpt>
      <trkpt lat="41.657738240" lon="2.528029300">
        <ele>401.97</ele>
        <time>2015-12-20T07:12:20Z</time>
      </trkpt>
      <trkpt lat="41.657592990" lon="2.528052680">
        <ele>400.05</ele>
        <time>2015-12-20T07:12:27Z</time>
      </trkpt>
      <trkpt lat="41.657494500" lon="2.528102640">
        <ele>399.08</ele>
        <time>2015-12-20T07:12:32Z</time>
      </trkpt>
      <trkpt lat="41.657356110" lon="2.528279580">
        <ele>396.68</ele>
        <time>2015-12-20T07:12:40Z</time>
      </trkpt>
      <trkpt lat="41.657170290" lon="2.528491470">
        <ele>393.80</ele>
        <time>2015-12-20T07:12:48Z</time>
      </trkpt>
      <trkpt lat="41.657148240" lon="2.528546540">
        <ele>393.32</ele>
        <time>2015-12-20T07:12:50Z</time>
      </trkpt>
      <trkpt lat="41.657198620" lon="2.528609490">
        <ele>391.39</ele>
        <time>2015-12-20T07:12:56Z</time>
      </trkpt>
      <trkpt lat="41.657219240" lon="2.528603370">
        <ele>391.39</ele>
        <time>2015-12-20T07:12:57Z</time>
      </trkpt>
      <trkpt lat="41.657281430" lon="2.528581580">
        <ele>390.91</ele>
        <time>2015-12-20T07:12:59Z</time>
      </trkpt>
      <trkpt lat="41.657462900" lon="2.528533970">
        <ele>388.51</ele>
        <time>2015-12-20T07:13:03Z</time>
      </trkpt>
      <trkpt lat="41.657576220" lon="2.528492560">
        <ele>387.07</ele>
        <time>2015-12-20T07:13:06Z</time>
      </trkpt>
      <trkpt lat="41.657730950" lon="2.528589960">
        <ele>384.18</ele>
        <time>2015-12-20T07:13:10Z</time>
      </trkpt>
      <trkpt lat="41.657869760" lon="2.528866060">
        <ele>381.30</ele>
        <time>2015-12-20T07:13:16Z</time>
      </trkpt>
      <trkpt lat="41.657934300" lon="2.529034200">
        <ele>379.38</ele>
        <time>2015-12-20T07:13:19Z</time>
      </trkpt>
      <trkpt lat="41.657987100" lon="2.529229160">
        <ele>377.94</ele>
        <time>2015-12-20T07:13:22Z</time>
      </trkpt>
      <trkpt lat="41.658152980" lon="2.529637530">
        <ele>375.05</ele>
        <time>2015-12-20T07:13:28Z</time>
      </trkpt>
      <trkpt lat="41.658315420" lon="2.529631410">
        <ele>373.61</ele>
        <time>2015-12-20T07:13:33Z</time>
      </trkpt>
      <trkpt lat="41.658395970" lon="2.529578520">
        <ele>372.17</ele>
        <time>2015-12-20T07:13:35Z</time>
      </trkpt>
      <trkpt lat="41.658483650" lon="2.529486320">
        <ele>371.21</ele>
        <time>2015-12-20T07:13:38Z</time>
      </trkpt>
      <trkpt lat="41.658544920" lon="2.529279880">
        <ele>368.80</ele>
        <time>2015-12-20T07:13:41Z</time>
      </trkpt>
      <trkpt lat="41.658589260" lon="2.529165800">
        <ele>368.32</ele>
        <time>2015-12-20T07:13:43Z</time>
      </trkpt>
      <trkpt lat="41.658611390" lon="2.529114500">
        <ele>366.88</ele>
        <time>2015-12-20T07:13:44Z</time>
      </trkpt>
      <trkpt lat="41.658665530" lon="2.528894480">
        <ele>364.48</ele>
        <time>2015-12-20T07:13:48Z</time>
      </trkpt>
      <trkpt lat="41.658721020" lon="2.528756930">
        <ele>363.04</ele>
        <time>2015-12-20T07:13:50Z</time>
      </trkpt>
      <trkpt lat="41.658801820" lon="2.528337830">
        <ele>360.15</ele>
        <time>2015-12-20T07:13:56Z</time>
      </trkpt>
      <trkpt lat="41.658812220" lon="2.528289640">
        <ele>359.67</ele>
        <time>2015-12-20T07:13:57Z</time>
      </trkpt>
      <trkpt lat="41.658821940" lon="2.528161810">
        <ele>358.71</ele>
        <time>2015-12-20T07:13:59Z</time>
      </trkpt>
      <trkpt lat="41.658840470" lon="2.527917900">
        <ele>355.34</ele>
        <time>2015-12-20T07:14:02Z</time>
      </trkpt>
      <trkpt lat="41.658857980" lon="2.527777840">
        <ele>354.38</ele>
        <time>2015-12-20T07:14:04Z</time>
      </trkpt>
      <trkpt lat="41.658936440" lon="2.527560660">
        <ele>351.02</ele>
        <time>2015-12-20T07:14:08Z</time>
      </trkpt>
      <trkpt lat="41.659003910" lon="2.527489170">
        <ele>349.58</ele>
        <time>2015-12-20T07:14:10Z</time>
      </trkpt>
      <trkpt lat="41.659074910" lon="2.527397470">
        <ele>348.62</ele>
        <time>2015-12-20T07:14:12Z</time>
      </trkpt>
      <trkpt lat="41.659144560" lon="2.527264280">
        <ele>347.65</ele>
        <time>2015-12-20T07:14:14Z</time>
      </trkpt>
      <trkpt lat="41.659239360" lon="2.527036120">
        <ele>345.25</ele>
        <time>2015-12-20T07:14:17Z</time>
      </trkpt>
      <trkpt lat="41.659327870" lon="2.526818450">
        <ele>343.33</ele>
        <time>2015-12-20T07:14:22Z</time>
      </trkpt>
      <trkpt lat="41.659301300" lon="2.526758850">
        <ele>342.85</ele>
        <time>2015-12-20T07:14:24Z</time>
      </trkpt>
      <trkpt lat="41.659233830" lon="2.526494570">
        <ele>341.41</ele>
        <time>2015-12-20T07:14:31Z</time>
      </trkpt>
      <trkpt lat="41.659250760" lon="2.526317710">
        <ele>340.44</ele>
        <time>2015-12-20T07:14:38Z</time>
      </trkpt>
      <trkpt lat="41.659295270" lon="2.526112100">
        <ele>339.00</ele>
        <time>2015-12-20T07:14:44Z</time>
      </trkpt>
      <trkpt lat="41.659304910" lon="2.526089560">
        <ele>339.00</ele>
        <time>2015-12-20T07:14:45Z</time>
      </trkpt>
      <trkpt lat="41.659312950" lon="2.526068680">
        <ele>339.00</ele>
        <time>2015-12-20T07:14:46Z</time>
      </trkpt>
      <trkpt lat="41.659378330" lon="2.525991400">
        <ele>338.52</ele>
        <time>2015-12-20T07:14:53Z</time>
      </trkpt>
      <trkpt lat="41.659375400" lon="2.525983860">
        <ele>338.52</ele>
        <time>2015-12-20T07:15:02Z</time>
      </trkpt>
      <trkpt lat="41.659385960" lon="2.525974140">
        <ele>338.52</ele>
        <time>2015-12-20T07:15:05Z</time>
      </trkpt>
      <trkpt lat="41.659434990" lon="2.525844050">
        <ele>336.60</ele>
        <time>2015-12-20T07:15:10Z</time>
      </trkpt>
      <trkpt lat="41.659425860" lon="2.525572890">
        <ele>333.23</ele>
        <time>2015-12-20T07:15:16Z</time>
      </trkpt>
      <trkpt lat="41.659429380" lon="2.525459570">
        <ele>331.79</ele>
        <time>2015-12-20T07:15:19Z</time>
      </trkpt>
      <trkpt lat="41.659439520" lon="2.525319260">
        <ele>329.39</ele>
        <time>2015-12-20T07:15:23Z</time>
      </trkpt>
      <trkpt lat="41.659441950" lon="2.525172990">
        <ele>329.39</ele>
        <time>2015-12-20T07:15:29Z</time>
      </trkpt>
      <trkpt lat="41.659454770" lon="2.525078360">
        <ele>328.43</ele>
        <time>2015-12-20T07:15:33Z</time>
      </trkpt>
      <trkpt lat="41.659413540" lon="2.524766560">
        <ele>326.02</ele>
        <time>2015-12-20T07:15:40Z</time>
      </trkpt>
      <trkpt lat="41.659400210" lon="2.524563550">
        <ele>324.58</ele>
        <time>2015-12-20T07:15:44Z</time>
      </trkpt>
      <trkpt lat="41.659387800" lon="2.524376290">
        <ele>323.14</ele>
        <time>2015-12-20T07:15:47Z</time>
      </trkpt>
      <trkpt lat="41.659386130" lon="2.524314850">
        <ele>322.18</ele>
        <time>2015-12-20T07:15:48Z</time>
      </trkpt>
      <trkpt lat="41.659237430" lon="2.523990810">
        <ele>320.74</ele>
        <time>2015-12-20T07:15:54Z</time>
      </trkpt>
      <trkpt lat="41.659107430" lon="2.523811940">
        <ele>320.26</ele>
        <time>2015-12-20T07:15:58Z</time>
      </trkpt>
      <trkpt lat="41.659079600" lon="2.523528630">
        <ele>318.33</ele>
        <time>2015-12-20T07:16:03Z</time>
      </trkpt>
      <trkpt lat="41.659122260" lon="2.523415560">
        <ele>317.37</ele>
        <time>2015-12-20T07:16:05Z</time>
      </trkpt>
      <trkpt lat="41.659322420" lon="2.523109870">
        <ele>313.53</ele>
        <time>2015-12-20T07:16:10Z</time>
      </trkpt>
      <trkpt lat="41.659370290" lon="2.523050440">
        <ele>312.09</ele>
        <time>2015-12-20T07:16:11Z</time>
      </trkpt>
      <trkpt lat="41.659475810" lon="2.522754400">
        <ele>308.72</ele>
        <time>2015-12-20T07:16:15Z</time>
      </trkpt>
      <trkpt lat="41.659500200" lon="2.522565720">
        <ele>306.80</ele>
        <time>2015-12-20T07:16:17Z</time>
      </trkpt>
      <trkpt lat="41.659675550" lon="2.522115530">
        <ele>301.99</ele>
        <time>2015-12-20T07:16:22Z</time>
      </trkpt>
      <trkpt lat="41.659734140" lon="2.521906230">
        <ele>300.55</ele>
        <time>2015-12-20T07:16:26Z</time>
      </trkpt>
      <trkpt lat="41.659742360" lon="2.521851080">
        <ele>300.55</ele>
        <time>2015-12-20T07:16:27Z</time>
      </trkpt>
      <trkpt lat="41.659744960" lon="2.521667430">
        <ele>300.07</ele>
        <time>2015-12-20T07:16:30Z</time>
      </trkpt>
      <trkpt lat="41.659771860" lon="2.521402900">
        <ele>299.11</ele>
        <time>2015-12-20T07:16:34Z</time>
      </trkpt>
      <trkpt lat="41.659954670" lon="2.521097710">
        <ele>298.15</ele>
        <time>2015-12-20T07:16:40Z</time>
      </trkpt>
      <trkpt lat="41.660067990" lon="2.520965950">
        <ele>297.67</ele>
        <time>2015-12-20T07:16:43Z</time>
      </trkpt>
      <trkpt lat="41.660183410" lon="2.520818510">
        <ele>301.03</ele>
        <time>2015-12-20T07:16:49Z</time>
      </trkpt>
      <trkpt lat="41.660194310" lon="2.520798310">
        <ele>301.03</ele>
        <time>2015-12-20T07:16:50Z</time>
      </trkpt>
      <trkpt lat="41.660255410" lon="2.520597230">
        <ele>301.99</ele>
        <time>2015-12-20T07:16:57Z</time>
      </trkpt>
      <trkpt lat="41.660291290" lon="2.520410980">
        <ele>301.03</ele>
        <time>2015-12-20T07:17:01Z</time>
      </trkpt>
      <trkpt lat="41.660320120" lon="2.520295480">
        <ele>299.59</ele>
        <time>2015-12-20T07:17:03Z</time>
      </trkpt>
      <trkpt lat="41.660469400" lon="2.519967080">
        <ele>299.11</ele>
        <time>2015-12-20T07:17:10Z</time>
      </trkpt>
      <trkpt lat="41.660523970" lon="2.519807740">
        <ele>301.51</ele>
        <time>2015-12-20T07:17:16Z</time>
      </trkpt>
      <trkpt lat="41.660492450" lon="2.519610760">
        <ele>302.95</ele>
        <time>2015-12-20T07:17:22Z</time>
      </trkpt>
      <trkpt lat="41.660483490" lon="2.519360730">
        <ele>303.91</ele>
        <time>2015-12-20T07:17:29Z</time>
      </trkpt>
      <trkpt lat="41.660497230" lon="2.519047670">
        <ele>303.91</ele>
        <time>2015-12-20T07:17:36Z</time>
      </trkpt>
      <trkpt lat="41.660474680" lon="2.518779030">
        <ele>303.91</ele>
        <time>2015-12-20T07:17:42Z</time>
      </trkpt>
      <trkpt lat="41.660461780" lon="2.518479710">
        <ele>304.39</ele>
        <time>2015-12-20T07:17:48Z</time>
      </trkpt>
      <trkpt lat="41.660427750" lon="2.518129510">
        <ele>305.84</ele>
        <time>2015-12-20T07:17:56Z</time>
      </trkpt>
      <trkpt lat="41.660464710" lon="2.517897000">
        <ele>306.32</ele>
        <time>2015-12-20T07:18:02Z</time>
      </trkpt>
      <trkpt lat="41.660553560" lon="2.517710750">
        <ele>302.95</ele>
        <time>2015-12-20T07:18:07Z</time>
      </trkpt>
      <trkpt lat="41.660631170" lon="2.517519810">
        <ele>300.07</ele>
        <time>2015-12-20T07:18:12Z</time>
      </trkpt>
      <trkpt lat="41.660677780" lon="2.517461060">
        <ele>298.63</ele>
        <time>2015-12-20T07:18:14Z</time>
      </trkpt>
      <trkpt lat="41.660791270" lon="2.517313120">
        <ele>296.22</ele>
        <time>2015-12-20T07:18:18Z</time>
      </trkpt>
      <trkpt lat="41.660888920" lon="2.517126370">
        <ele>293.82</ele>
        <time>2015-12-20T07:18:22Z</time>
      </trkpt>
      <trkpt lat="41.660947170" lon="2.517075740">
        <ele>293.34</ele>
        <time>2015-12-20T07:18:24Z</time>
      </trkpt>
      <trkpt lat="41.661121180" lon="2.516930400">
        <ele>290.94</ele>
        <time>2015-12-20T07:18:29Z</time>
      </trkpt>
      <trkpt lat="41.661173400" lon="2.516770890">
        <ele>289.49</ele>
        <time>2015-12-20T07:18:32Z</time>
      </trkpt>
      <trkpt lat="41.661188660" lon="2.516540810">
        <ele>289.01</ele>
        <time>2015-12-20T07:18:36Z</time>
      </trkpt>
      <trkpt lat="41.661194940" lon="2.516379790">
        <ele>290.94</ele>
        <time>2015-12-20T07:18:40Z</time>
      </trkpt>
      <trkpt lat="41.661240120" lon="2.516076530">
        <ele>291.90</ele>
        <time>2015-12-20T07:18:48Z</time>
      </trkpt>
      <trkpt lat="41.661306000" lon="2.515828180">
        <ele>292.86</ele>
        <time>2015-12-20T07:18:55Z</time>
      </trkpt>
      <trkpt lat="41.661329890" lon="2.515581250">
        <ele>293.34</ele>
        <time>2015-12-20T07:19:02Z</time>
      </trkpt>
      <trkpt lat="41.661302480" lon="2.515312520">
        <ele>295.26</ele>
        <time>2015-12-20T07:19:10Z</time>
      </trkpt>
      <trkpt lat="41.661192930" lon="2.515148910">
        <ele>297.18</ele>
        <time>2015-12-20T07:19:17Z</time>
      </trkpt>
      <trkpt lat="41.661098130" lon="2.514973220">
        <ele>299.11</ele>
        <time>2015-12-20T07:19:24Z</time>
      </trkpt>
      <trkpt lat="41.661005180" lon="2.514704080">
        <ele>299.11</ele>
        <time>2015-12-20T07:19:31Z</time>
      </trkpt>
      <trkpt lat="41.660950610" lon="2.514529820">
        <ele>299.11</ele>
        <time>2015-12-20T07:19:37Z</time>
      </trkpt>
      <trkpt lat="41.660941890" lon="2.514361180">
        <ele>299.11</ele>
        <time>2015-12-20T07:19:41Z</time>
      </trkpt>
      <trkpt lat="41.661032670" lon="2.514037380">
        <ele>300.07</ele>
        <time>2015-12-20T07:19:50Z</time>
      </trkpt>
      <trkpt lat="41.661008030" lon="2.513778630">
        <ele>301.03</ele>
        <time>2015-12-20T07:19:57Z</time>
      </trkpt>
      <trkpt lat="41.661018590" lon="2.513698000">
        <ele>301.03</ele>
        <time>2015-12-20T07:19:59Z</time>
      </trkpt>
      <trkpt lat="41.661189660" lon="2.513514940">
        <ele>302.95</ele>
        <time>2015-12-20T07:20:07Z</time>
      </trkpt>
      <trkpt lat="41.661381770" lon="2.513427850">
        <ele>303.43</ele>
        <time>2015-12-20T07:20:14Z</time>
      </trkpt>
      <trkpt lat="41.661613700" lon="2.513303550">
        <ele>303.43</ele>
        <time>2015-12-20T07:20:22Z</time>
      </trkpt>
      <trkpt lat="41.661635080" lon="2.513267420">
        <ele>303.43</ele>
        <time>2015-12-20T07:20:23Z</time>
      </trkpt>
      <trkpt lat="41.661784940" lon="2.512961990">
        <ele>301.51</ele>
        <time>2015-12-20T07:20:29Z</time>
      </trkpt>
      <trkpt lat="41.661853260" lon="2.512812790">
        <ele>301.51</ele>
        <time>2015-12-20T07:20:32Z</time>
      </trkpt>
      <trkpt lat="41.661890970" lon="2.512494020">
        <ele>301.03</ele>
        <time>2015-12-20T07:20:38Z</time>
      </trkpt>
      <trkpt lat="41.661870360" lon="2.512118680">
        <ele>302.47</ele>
        <time>2015-12-20T07:20:46Z</time>
      </trkpt>
      <trkpt lat="41.661824670" lon="2.511770750">
        <ele>302.47</ele>
        <time>2015-12-20T07:20:53Z</time>
      </trkpt>
      <trkpt lat="41.661728530" lon="2.511549970">
        <ele>301.99</ele>
        <time>2015-12-20T07:20:58Z</time>
      </trkpt>
      <trkpt lat="41.661672210" lon="2.511386690">
        <ele>301.99</ele>
        <time>2015-12-20T07:21:01Z</time>
      </trkpt>
      <trkpt lat="41.661647150" lon="2.511192230">
        <ele>300.55</ele>
        <time>2015-12-20T07:21:04Z</time>
      </trkpt>
      <trkpt lat="41.661546310" lon="2.510746730">
        <ele>299.11</ele>
        <time>2015-12-20T07:21:10Z</time>
      </trkpt>
      <trkpt lat="41.661368360" lon="2.510513630">
        <ele>298.63</ele>
        <time>2015-12-20T07:21:15Z</time>
      </trkpt>
      <trkpt lat="41.661315140" lon="2.510489580">
        <ele>298.15</ele>
        <time>2015-12-20T07:21:16Z</time>
      </trkpt>
      <trkpt lat="41.661184210" lon="2.510445990">
        <ele>297.67</ele>
        <time>2015-12-20T07:21:18Z</time>
      </trkpt>
      <trkpt lat="41.661028480" lon="2.510263770">
        <ele>297.67</ele>
        <time>2015-12-20T07:21:23Z</time>
      </trkpt>
      <trkpt lat="41.661007100" lon="2.510231250">
        <ele>299.11</ele>
        <time>2015-12-20T07:21:24Z</time>
      </trkpt>
      <trkpt lat="41.660851700" lon="2.510034270">
        <ele>301.51</ele>
        <time>2015-12-20T07:21:31Z</time>
      </trkpt>
      <trkpt lat="41.660669560" lon="2.509841240">
        <ele>304.39</ele>
        <time>2015-12-20T07:21:39Z</time>
      </trkpt>
      <trkpt lat="41.660531770" lon="2.509695730">
        <ele>305.36</ele>
        <time>2015-12-20T07:21:45Z</time>
      </trkpt>
      <trkpt lat="41.660333950" lon="2.509584830">
        <ele>306.32</ele>
        <time>2015-12-20T07:21:52Z</time>
      </trkpt>
      <trkpt lat="41.660101690" lon="2.509537480">
        <ele>307.76</ele>
        <time>2015-12-20T07:22:00Z</time>
      </trkpt>
      <trkpt lat="41.659929610" lon="2.509471340">
        <ele>309.20</ele>
        <time>2015-12-20T07:22:07Z</time>
      </trkpt>
      <trkpt lat="41.659693580" lon="2.509319290">
        <ele>310.16</ele>
        <time>2015-12-20T07:22:15Z</time>
      </trkpt>
      <trkpt lat="41.659631720" lon="2.509170600">
        <ele>312.09</ele>
        <time>2015-12-20T07:22:20Z</time>
      </trkpt>
      <trkpt lat="41.659598110" lon="2.509017290">
        <ele>313.05</ele>
        <time>2015-12-20T07:22:25Z</time>
      </trkpt>
      <trkpt lat="41.659564330" lon="2.508775390">
        <ele>315.45</ele>
        <time>2015-12-20T07:22:32Z</time>
      </trkpt>
      <trkpt lat="41.659577490" lon="2.508548830">
        <ele>317.85</ele>
        <time>2015-12-20T07:22:39Z</time>
      </trkpt>
      <trkpt lat="41.659576980" lon="2.508453030">
        <ele>318.81</ele>
        <time>2015-12-20T07:22:42Z</time>
      </trkpt>
      <trkpt lat="41.659508340" lon="2.508326120">
        <ele>320.26</ele>
        <time>2015-12-20T07:22:47Z</time>
      </trkpt>
      <trkpt lat="41.659370030" lon="2.508152030">
        <ele>321.70</ele>
        <time>2015-12-20T07:22:55Z</time>
      </trkpt>
      <trkpt lat="41.659314710" lon="2.507975510">
        <ele>323.14</ele>
        <time>2015-12-20T07:23:01Z</time>
      </trkpt>
      <trkpt lat="41.659339360" lon="2.507797980">
        <ele>324.58</ele>
        <time>2015-12-20T07:23:07Z</time>
      </trkpt>
      <trkpt lat="41.659404820" lon="2.507596310">
        <ele>326.99</ele>
        <time>2015-12-20T07:23:15Z</time>
      </trkpt>
      <trkpt lat="41.659507750" lon="2.507347870">
        <ele>327.95</ele>
        <time>2015-12-20T07:23:24Z</time>
      </trkpt>
      <trkpt lat="41.659560470" lon="2.507177470">
        <ele>329.87</ele>
        <time>2015-12-20T07:23:32Z</time>
      </trkpt>
      <trkpt lat="41.659571030" lon="2.507141840">
        <ele>329.39</ele>
        <time>2015-12-20T07:23:37Z</time>
      </trkpt>
      <trkpt lat="41.659563990" lon="2.507145280">
        <ele>329.39</ele>
        <time>2015-12-20T07:23:47Z</time>
      </trkpt>
      <trkpt lat="41.659572040" lon="2.507137570">
        <ele>329.39</ele>
        <time>2015-12-20T07:23:50Z</time>
      </trkpt>
      <trkpt lat="41.659621740" lon="2.507082500">
        <ele>329.39</ele>
        <time>2015-12-20T07:23:58Z</time>
      </trkpt>
      <trkpt lat="41.659614700" lon="2.507077140">
        <ele>329.87</ele>
        <time>2015-12-20T07:24:17Z</time>
      </trkpt>
      <trkpt lat="41.659603890" lon="2.507059370">
        <ele>329.87</ele>
        <time>2015-12-20T07:24:26Z</time>
      </trkpt>
      <trkpt lat="41.659609840" lon="2.507048720">
        <ele>329.87</ele>
        <time>2015-12-20T07:24:35Z</time>
      </trkpt>
      <trkpt lat="41.659570610" lon="2.506883850">
        <ele>328.43</ele>
        <time>2015-12-20T07:24:41Z</time>
      </trkpt>
      <trkpt lat="41.659497520" lon="2.506759960">
        <ele>327.47</ele>
        <time>2015-12-20T07:24:44Z</time>
      </trkpt>
      <trkpt lat="41.659252440" lon="2.506371210">
        <ele>324.58</ele>
        <time>2015-12-20T07:24:51Z</time>
      </trkpt>
      <trkpt lat="41.659249330" lon="2.506189410">
        <ele>321.70</ele>
        <time>2015-12-20T07:24:55Z</time>
      </trkpt>
      <trkpt lat="41.659278920" lon="2.506177000">
        <ele>321.70</ele>
        <time>2015-12-20T07:24:56Z</time>
      </trkpt>
      <trkpt lat="41.659308010" lon="2.506175830">
        <ele>321.70</ele>
        <time>2015-12-20T07:24:57Z</time>
      </trkpt>
      <trkpt lat="41.659445470" lon="2.506182870">
        <ele>319.30</ele>
        <time>2015-12-20T07:25:01Z</time>
      </trkpt>
      <trkpt lat="41.659554600" lon="2.505984470">
        <ele>317.37</ele>
        <time>2015-12-20T07:25:06Z</time>
      </trkpt>
      <trkpt lat="41.659554020" lon="2.505924460">
        <ele>317.37</ele>
        <time>2015-12-20T07:25:07Z</time>
      </trkpt>
      <trkpt lat="41.659550500" lon="2.505752210">
        <ele>315.45</ele>
        <time>2015-12-20T07:25:10Z</time>
      </trkpt>
      <trkpt lat="41.659507750" lon="2.505525390">
        <ele>314.97</ele>
        <time>2015-12-20T07:25:15Z</time>
      </trkpt>
      <trkpt lat="41.659511270" lon="2.505430930">
        <ele>314.49</ele>
        <time>2015-12-20T07:25:17Z</time>
      </trkpt>
      <trkpt lat="41.659711260" lon="2.505191630">
        <ele>313.05</ele>
        <time>2015-12-20T07:25:23Z</time>
      </trkpt>
      <trkpt lat="41.659896840" lon="2.505129940">
        <ele>312.57</ele>
        <time>2015-12-20T07:25:27Z</time>
      </trkpt>
      <trkpt lat="41.660133710" lon="2.505145270">
        <ele>311.60</ele>
        <time>2015-12-20T07:25:32Z</time>
      </trkpt>
      <trkpt lat="41.660445350" lon="2.505072350">
        <ele>311.12</ele>
        <time>2015-12-20T07:25:39Z</time>
      </trkpt>
      <trkpt lat="41.660571160" lon="2.505046620">
        <ele>311.12</ele>
        <time>2015-12-20T07:25:42Z</time>
      </trkpt>
      <trkpt lat="41.660697140" lon="2.505054830">
        <ele>311.12</ele>
        <time>2015-12-20T07:25:45Z</time>
      </trkpt>
      <trkpt lat="41.660935860" lon="2.505132370">
        <ele>310.64</ele>
        <time>2015-12-20T07:25:51Z</time>
      </trkpt>
      <trkpt lat="41.661105670" lon="2.505158770">
        <ele>311.12</ele>
        <time>2015-12-20T07:25:55Z</time>
      </trkpt>
      <trkpt lat="41.661432480" lon="2.505140080">
        <ele>311.12</ele>
        <time>2015-12-20T07:26:04Z</time>
      </trkpt>
      <trkpt lat="41.661516810" lon="2.505182570">
        <ele>310.16</ele>
        <time>2015-12-20T07:26:06Z</time>
      </trkpt>
      <trkpt lat="41.661710600" lon="2.505382060">
        <ele>309.20</ele>
        <time>2015-12-20T07:26:10Z</time>
      </trkpt>
      <trkpt lat="41.661850740" lon="2.505561600">
        <ele>308.24</ele>
        <time>2015-12-20T07:26:13Z</time>
      </trkpt>
      <trkpt lat="41.662047130" lon="2.505979610">
        <ele>307.28</ele>
        <time>2015-12-20T07:26:19Z</time>
      </trkpt>
      <trkpt lat="41.662265980" lon="2.506226790">
        <ele>306.80</ele>
        <time>2015-12-20T07:26:24Z</time>
      </trkpt>
      <trkpt lat="41.662510400" lon="2.506212120">
        <ele>307.28</ele>
        <time>2015-12-20T07:26:29Z</time>
      </trkpt>
      <trkpt lat="41.662607710" lon="2.506190410">
        <ele>306.32</ele>
        <time>2015-12-20T07:26:31Z</time>
      </trkpt>
      <trkpt lat="41.662842240" lon="2.506211700">
        <ele>305.36</ele>
        <time>2015-12-20T07:26:36Z</time>
      </trkpt>
      <trkpt lat="41.662928400" lon="2.506248250">
        <ele>305.36</ele>
        <time>2015-12-20T07:26:38Z</time>
      </trkpt>
      <trkpt lat="41.663146080" lon="2.506347990">
        <ele>304.39</ele>
        <time>2015-12-20T07:26:45Z</time>
      </trkpt>
      <trkpt lat="41.663213560" lon="2.506357380">
        <ele>303.91</ele>
        <time>2015-12-20T07:26:47Z</time>
      </trkpt>
      <trkpt lat="41.663485380" lon="2.506281860">
        <ele>302.95</ele>
        <time>2015-12-20T07:26:53Z</time>
      </trkpt>
      <trkpt lat="41.663685960" lon="2.506307590">
        <ele>301.51</ele>
        <time>2015-12-20T07:26:57Z</time>
      </trkpt>
      <trkpt lat="41.663802470" lon="2.506346990">
        <ele>300.55</ele>
        <time>2015-12-20T07:26:59Z</time>
      </trkpt>
      <trkpt lat="41.663996260" lon="2.506316140">
        <ele>300.55</ele>
        <time>2015-12-20T07:27:03Z</time>
      </trkpt>
      <trkpt lat="41.664158620" lon="2.506191170">
        <ele>300.55</ele>
        <time>2015-12-20T07:27:07Z</time>
      </trkpt>
      <trkpt lat="41.664280990" lon="2.506111370">
        <ele>300.55</ele>
        <time>2015-12-20T07:27:10Z</time>
      </trkpt>
      <trkpt lat="41.664357100" lon="2.506065100">
        <ele>300.55</ele>
        <time>2015-12-20T07:27:12Z</time>
      </trkpt>
      <trkpt lat="41.664521050" lon="2.506142470">
        <ele>300.55</ele>
        <time>2015-12-20T07:27:16Z</time>
      </trkpt>
      <trkpt lat="41.664680980" lon="2.506332570">
        <ele>298.63</ele>
        <time>2015-12-20T07:27:20Z</time>
      </trkpt>
      <trkpt lat="41.664741660" lon="2.506441790">
        <ele>297.67</ele>
        <time>2015-12-20T07:27:22Z</time>
      </trkpt>
      <trkpt lat="41.664825140" lon="2.506636250">
        <ele>296.22</ele>
        <time>2015-12-20T07:27:25Z</time>
      </trkpt>
      <trkpt lat="41.664906530" lon="2.506841100">
        <ele>295.26</ele>
        <time>2015-12-20T07:27:28Z</time>
      </trkpt>
      <trkpt lat="41.665066790" lon="2.507010250">
        <ele>294.30</ele>
        <time>2015-12-20T07:27:33Z</time>
      </trkpt>
      <trkpt lat="41.665258660" lon="2.507151570">
        <ele>292.86</ele>
        <time>2015-12-20T07:27:39Z</time>
      </trkpt>
      <trkpt lat="41.665281290" lon="2.507193060">
        <ele>292.38</ele>
        <time>2015-12-20T07:27:40Z</time>
      </trkpt>
      <trkpt lat="41.665261250" lon="2.507393550">
        <ele>290.46</ele>
        <time>2015-12-20T07:27:44Z</time>
      </trkpt>
      <trkpt lat="41.665056900" lon="2.507776020">
        <ele>289.01</ele>
        <time>2015-12-20T07:27:51Z</time>
      </trkpt>
      <trkpt lat="41.665012650" lon="2.507996800">
        <ele>288.53</ele>
        <time>2015-12-20T07:27:55Z</time>
      </trkpt>
      <trkpt lat="41.665043580" lon="2.508159490">
        <ele>287.57</ele>
        <time>2015-12-20T07:27:58Z</time>
      </trkpt>
      <trkpt lat="41.665081710" lon="2.508282540">
        <ele>287.57</ele>
        <time>2015-12-20T07:28:00Z</time>
      </trkpt>
      <trkpt lat="41.665118340" lon="2.508417900">
        <ele>286.61</ele>
        <time>2015-12-20T07:28:02Z</time>
      </trkpt>
      <trkpt lat="41.665155310" lon="2.508617390">
        <ele>286.13</ele>
        <time>2015-12-20T07:28:05Z</time>
      </trkpt>
      <trkpt lat="41.665190850" lon="2.508952250">
        <ele>284.69</ele>
        <time>2015-12-20T07:28:10Z</time>
      </trkpt>
      <trkpt lat="41.665213810" lon="2.509083680">
        <ele>282.77</ele>
        <time>2015-12-20T07:28:12Z</time>
      </trkpt>
      <trkpt lat="41.665276430" lon="2.509440660">
        <ele>280.84</ele>
        <time>2015-12-20T07:28:17Z</time>
      </trkpt>
      <trkpt lat="41.665336860" lon="2.509680220">
        <ele>279.40</ele>
        <time>2015-12-20T07:28:20Z</time>
      </trkpt>
      <trkpt lat="41.665388490" lon="2.509841570">
        <ele>277.48</ele>
        <time>2015-12-20T07:28:22Z</time>
      </trkpt>
      <trkpt lat="41.665598710" lon="2.510230240">
        <ele>273.15</ele>
        <time>2015-12-20T07:28:28Z</time>
      </trkpt>
      <trkpt lat="41.665636510" lon="2.510287910">
        <ele>272.19</ele>
        <time>2015-12-20T07:28:29Z</time>
      </trkpt>
      <trkpt lat="41.665732820" lon="2.510408020">
        <ele>271.23</ele>
        <time>2015-12-20T07:28:31Z</time>
      </trkpt>
      <trkpt lat="41.665821420" lon="2.510509270">
        <ele>269.31</ele>
        <time>2015-12-20T07:28:33Z</time>
      </trkpt>
      <trkpt lat="41.666047640" lon="2.510632740">
        <ele>265.94</ele>
        <time>2015-12-20T07:28:38Z</time>
      </trkpt>
      <trkpt lat="41.666191310" lon="2.510491670">
        <ele>264.02</ele>
        <time>2015-12-20T07:28:43Z</time>
      </trkpt>
      <trkpt lat="41.666194580" lon="2.510217580">
        <ele>261.14</ele>
        <time>2015-12-20T07:28:48Z</time>
      </trkpt>
      <trkpt lat="41.666161220" lon="2.510042150">
        <ele>258.73</ele>
        <time>2015-12-20T07:28:51Z</time>
      </trkpt>
      <trkpt lat="41.666163820" lon="2.509922960">
        <ele>257.29</ele>
        <time>2015-12-20T07:28:53Z</time>
      </trkpt>
      <trkpt lat="41.666328770" lon="2.509766050">
        <ele>255.37</ele>
        <time>2015-12-20T07:28:58Z</time>
      </trkpt>
      <trkpt lat="41.666448130" lon="2.509640660">
        <ele>252.96</ele>
        <time>2015-12-20T07:29:03Z</time>
      </trkpt>
      <trkpt lat="41.666593640" lon="2.509511490">
        <ele>249.60</ele>
        <time>2015-12-20T07:29:08Z</time>
      </trkpt>
      <trkpt lat="41.666708730" lon="2.509478630">
        <ele>246.23</ele>
        <time>2015-12-20T07:29:12Z</time>
      </trkpt>
      <trkpt lat="41.666844510" lon="2.509415520">
        <ele>242.87</ele>
        <time>2015-12-20T07:29:17Z</time>
      </trkpt>
      <trkpt lat="41.666912820" lon="2.509473190">
        <ele>241.91</ele>
        <time>2015-12-20T07:29:20Z</time>
      </trkpt>
      <trkpt lat="41.666976530" lon="2.509578630">
        <ele>239.51</ele>
        <time>2015-12-20T07:29:23Z</time>
      </trkpt>
      <trkpt lat="41.667102000" lon="2.509802510">
        <ele>236.14</ele>
        <time>2015-12-20T07:29:29Z</time>
      </trkpt>
      <trkpt lat="41.667205690" lon="2.510010890">
        <ele>233.74</ele>
        <time>2015-12-20T07:29:35Z</time>
      </trkpt>
      <trkpt lat="41.667306020" lon="2.510194950">
        <ele>231.33</ele>
        <time>2015-12-20T07:29:40Z</time>
      </trkpt>
      <trkpt lat="41.667412720" lon="2.510379690">
        <ele>229.41</ele>
        <time>2015-12-20T07:29:46Z</time>
      </trkpt>
      <trkpt lat="41.667513300" lon="2.510527210">
        <ele>227.49</ele>
        <time>2015-12-20T07:29:51Z</time>
      </trkpt>
      <trkpt lat="41.667703570" lon="2.510617320">
        <ele>226.53</ele>
        <time>2015-12-20T07:29:57Z</time>
      </trkpt>
      <trkpt lat="41.667760490" lon="2.510621840">
        <ele>225.57</ele>
        <time>2015-12-20T07:29:59Z</time>
      </trkpt>
      <trkpt lat="41.667805830" lon="2.510643050">
        <ele>225.09</ele>
        <time>2015-12-20T07:30:06Z</time>
      </trkpt>
      <trkpt lat="41.667806000" lon="2.510668950">
        <ele>224.61</ele>
        <time>2015-12-20T07:30:14Z</time>
      </trkpt>
      <trkpt lat="41.667793510" lon="2.510682860">
        <ele>224.61</ele>
        <time>2015-12-20T07:30:20Z</time>
      </trkpt>
      <trkpt lat="41.667669880" lon="2.510830220">
        <ele>224.12</ele>
        <time>2015-12-20T07:30:27Z</time>
      </trkpt>
      <trkpt lat="41.667635850" lon="2.511037590">
        <ele>223.64</ele>
        <time>2015-12-20T07:30:32Z</time>
      </trkpt>
      <trkpt lat="41.667613890" lon="2.511125260">
        <ele>225.57</ele>
        <time>2015-12-20T07:30:35Z</time>
      </trkpt>
      <trkpt lat="41.667478770" lon="2.511412930">
        <ele>227.97</ele>
        <time>2015-12-20T07:30:45Z</time>
      </trkpt>
      <trkpt lat="41.667347590" lon="2.511651060">
        <ele>228.93</ele>
        <time>2015-12-20T07:30:52Z</time>
      </trkpt>
      <trkpt lat="41.667251870" lon="2.511828250">
        <ele>230.85</ele>
        <time>2015-12-20T07:30:59Z</time>
      </trkpt>
      <trkpt lat="41.667167720" lon="2.512038050">
        <ele>231.33</ele>
        <time>2015-12-20T07:31:06Z</time>
      </trkpt>
      <trkpt lat="41.667133690" lon="2.512254390">
        <ele>231.81</ele>
        <time>2015-12-20T07:31:12Z</time>
      </trkpt>
      <trkpt lat="41.667047100" lon="2.512419930">
        <ele>233.26</ele>
        <time>2015-12-20T07:31:19Z</time>
      </trkpt>
      <trkpt lat="41.666880890" lon="2.512431580">
        <ele>233.26</ele>
        <time>2015-12-20T07:31:25Z</time>
      </trkpt>
      <trkpt lat="41.666748960" lon="2.512490920">
        <ele>233.26</ele>
        <time>2015-12-20T07:31:31Z</time>
      </trkpt>
      <trkpt lat="41.666704870" lon="2.512503500">
        <ele>233.74</ele>
        <time>2015-12-20T07:31:34Z</time>
      </trkpt>
      <trkpt lat="41.666642260" lon="2.512618500">
        <ele>230.37</ele>
        <time>2015-12-20T07:31:41Z</time>
      </trkpt>
      <trkpt lat="41.666574950" lon="2.512705420">
        <ele>227.01</ele>
        <time>2015-12-20T07:31:45Z</time>
      </trkpt>
      <trkpt lat="41.666559190" lon="2.512725280">
        <ele>226.05</ele>
        <time>2015-12-20T07:31:47Z</time>
      </trkpt>
      <trkpt lat="41.666465310" lon="2.512673400">
        <ele>225.57</ele>
        <time>2015-12-20T07:31:53Z</time>
      </trkpt>
      <trkpt lat="41.666266500" lon="2.512539790">
        <ele>227.49</ele>
        <time>2015-12-20T07:32:04Z</time>
      </trkpt>
      <trkpt lat="41.666251580" lon="2.512530990">
        <ele>227.49</ele>
        <time>2015-12-20T07:32:05Z</time>
      </trkpt>
      <trkpt lat="41.666136410" lon="2.512451530">
        <ele>228.93</ele>
        <time>2015-12-20T07:32:13Z</time>
      </trkpt>
      <trkpt lat="41.666062900" lon="2.512385560">
        <ele>229.89</ele>
        <time>2015-12-20T07:32:18Z</time>
      </trkpt>
      <trkpt lat="41.665953430" lon="2.512383970">
        <ele>230.85</ele>
        <time>2015-12-20T07:32:24Z</time>
      </trkpt>
      <trkpt lat="41.665835670" lon="2.512384220">
        <ele>232.78</ele>
        <time>2015-12-20T07:32:31Z</time>
      </trkpt>
      <trkpt lat="41.665738350" lon="2.512442810">
        <ele>235.18</ele>
        <time>2015-12-20T07:32:39Z</time>
      </trkpt>
      <trkpt lat="41.665776990" lon="2.512565520">
        <ele>238.06</ele>
        <time>2015-12-20T07:32:47Z</time>
      </trkpt>
      <trkpt lat="41.665819150" lon="2.512657390">
        <ele>239.99</ele>
        <time>2015-12-20T07:32:54Z</time>
      </trkpt>
      <trkpt lat="41.665823340" lon="2.512709270">
        <ele>240.47</ele>
        <time>2015-12-20T07:32:59Z</time>
      </trkpt>
      <trkpt lat="41.665780600" lon="2.512680860">
        <ele>241.43</ele>
        <time>2015-12-20T07:33:06Z</time>
      </trkpt>
      <trkpt lat="41.665715050" lon="2.512638190">
        <ele>242.39</ele>
        <time>2015-12-20T07:33:14Z</time>
      </trkpt>
      <trkpt lat="41.665646910" lon="2.512595610">
        <ele>243.35</ele>
        <time>2015-12-20T07:33:21Z</time>
      </trkpt>
      <trkpt lat="41.665553280" lon="2.512523780">
        <ele>244.79</ele>
        <time>2015-12-20T07:33:27Z</time>
      </trkpt>
      <trkpt lat="41.665522100" lon="2.512518160">
        <ele>245.27</ele>
        <time>2015-12-20T07:33:29Z</time>
      </trkpt>
      <trkpt lat="41.665532910" lon="2.512591000">
        <ele>245.75</ele>
        <time>2015-12-20T07:33:35Z</time>
      </trkpt>
      <trkpt lat="41.665507930" lon="2.512672480">
        <ele>245.75</ele>
        <time>2015-12-20T07:33:40Z</time>
      </trkpt>
      <trkpt lat="41.665468200" lon="2.512726620">
        <ele>245.75</ele>
        <time>2015-12-20T07:33:46Z</time>
      </trkpt>
      <trkpt lat="41.665528300" lon="2.512829550">
        <ele>245.75</ele>
        <time>2015-12-20T07:33:54Z</time>
      </trkpt>
      <trkpt lat="41.665537100" lon="2.512840030">
        <ele>244.79</ele>
        <time>2015-12-20T07:34:05Z</time>
      </trkpt>
      <trkpt lat="41.665574070" lon="2.512875230">
        <ele>244.79</ele>
        <time>2015-12-20T07:34:17Z</time>
      </trkpt>
      <trkpt lat="41.665623270" lon="2.512965590">
        <ele>244.31</ele>
        <time>2015-12-20T07:34:25Z</time>
      </trkpt>
      <trkpt lat="41.665627960" lon="2.512982020">
        <ele>244.31</ele>
        <time>2015-12-20T07:34:26Z</time>
      </trkpt>
      <trkpt lat="41.665603740" lon="2.513032900">
        <ele>243.83</ele>
        <time>2015-12-20T07:34:33Z</time>
      </trkpt>
      <trkpt lat="41.665605420" lon="2.513040860">
        <ele>243.83</ele>
        <time>2015-12-20T07:34:43Z</time>
      </trkpt>
      <trkpt lat="41.665627710" lon="2.513039600">
        <ele>243.83</ele>
        <time>2015-12-20T07:35:12Z</time>
      </trkpt>
      <trkpt lat="41.665628470" lon="2.513037000">
        <ele>243.83</ele>
        <time>2015-12-20T07:35:32Z</time>
      </trkpt>
      <trkpt lat="41.665615640" lon="2.513046980">
        <ele>243.83</ele>
        <time>2015-12-20T07:35:47Z</time>
      </trkpt>
      <trkpt lat="41.665606760" lon="2.513028290">
        <ele>243.83</ele>
        <time>2015-12-20T07:36:16Z</time>
      </trkpt>
      <trkpt lat="41.665643550" lon="2.513002810">
        <ele>243.83</ele>
        <time>2015-12-20T07:36:36Z</time>
      </trkpt>
      <trkpt lat="41.665644560" lon="2.513014960">
        <ele>243.83</ele>
        <time>2015-12-20T07:36:57Z</time>
      </trkpt>
      <trkpt lat="41.665639780" lon="2.513029630">
        <ele>243.83</ele>
        <time>2015-12-20T07:37:21Z</time>
      </trkpt>
      <trkpt lat="41.665629970" lon="2.513045550">
        <ele>243.83</ele>
        <time>2015-12-20T07:37:42Z</time>
      </trkpt>
      <trkpt lat="41.665610530" lon="2.513029880">
        <ele>243.35</ele>
        <time>2015-12-20T07:38:07Z</time>
      </trkpt>
      <trkpt lat="41.665597870" lon="2.513024680">
        <ele>243.35</ele>
        <time>2015-12-20T07:38:30Z</time>
      </trkpt>
      <trkpt lat="41.665621840" lon="2.513018980">
        <ele>243.35</ele>
        <time>2015-12-20T07:38:55Z</time>
      </trkpt>
      <trkpt lat="41.665643300" lon="2.513000120">
        <ele>243.35</ele>
        <time>2015-12-20T07:39:19Z</time>
      </trkpt>
      <trkpt lat="41.665629970" lon="2.512985290">
        <ele>243.35</ele>
        <time>2015-12-20T07:39:40Z</time>
      </trkpt>
      <trkpt lat="41.665610610" lon="2.513002890">
        <ele>243.35</ele>
        <time>2015-12-20T07:40:00Z</time>
      </trkpt>
      <trkpt lat="41.665601220" lon="2.513013790">
        <ele>243.35</ele>
        <time>2015-12-20T07:40:26Z</time>
      </trkpt>
      <trkpt lat="41.665603990" lon="2.513012860">
        <ele>243.35</ele>
        <time>2015-12-20T07:40:41Z</time>
      </trkpt>
      <trkpt lat="41.665627040" lon="2.512992500">
        <ele>242.87</ele>
        <time>2015-12-20T07:41:07Z</time>
      </trkpt>
      <trkpt lat="41.665654950" lon="2.512988140">
        <ele>242.87</ele>
        <time>2015-12-20T07:41:27Z</time>
      </trkpt>
      <trkpt lat="41.665648160" lon="2.512994340">
        <ele>242.87</ele>
        <time>2015-12-20T07:41:42Z</time>
      </trkpt>
      <trkpt lat="41.665618990" lon="2.513018560">
        <ele>242.87</ele>
        <time>2015-12-20T07:42:03Z</time>
      </trkpt>
      <trkpt lat="41.665634840" lon="2.513025270">
        <ele>242.87</ele>
        <time>2015-12-20T07:42:28Z</time>
      </trkpt>
      <trkpt lat="41.665644470" lon="2.513013200">
        <ele>242.87</ele>
        <time>2015-12-20T07:42:46Z</time>
      </trkpt>
      <trkpt lat="41.665624530" lon="2.513022340">
        <ele>242.87</ele>
        <time>2015-12-20T07:43:10Z</time>
      </trkpt>
      <trkpt lat="41.665616900" lon="2.513028040">
        <ele>242.87</ele>
        <time>2015-12-20T07:43:30Z</time>
      </trkpt>
      <trkpt lat="41.665634080" lon="2.512991410">
        <ele>242.39</ele>
        <time>2015-12-20T07:43:49Z</time>
      </trkpt>
      <trkpt lat="41.665631900" lon="2.512993590">
        <ele>242.39</ele>
        <time>2015-12-20T07:44:15Z</time>
      </trkpt>
      <trkpt lat="41.665626030" lon="2.513000540">
        <ele>242.39</ele>
        <time>2015-12-20T07:44:33Z</time>
      </trkpt>
      <trkpt lat="41.665632660" lon="2.512988390">
        <ele>242.39</ele>
        <time>2015-12-20T07:44:57Z</time>
      </trkpt>
      <trkpt lat="41.665629220" lon="2.512998870">
        <ele>242.39</ele>
        <time>2015-12-20T07:45:18Z</time>
      </trkpt>
      <trkpt lat="41.665624530" lon="2.512983610">
        <ele>241.91</ele>
        <time>2015-12-20T07:45:39Z</time>
      </trkpt>
      <trkpt lat="41.665626790" lon="2.512997020">
        <ele>241.91</ele>
        <time>2015-12-20T07:45:59Z</time>
      </trkpt>
      <trkpt lat="41.665634840" lon="2.512995010">
        <ele>241.91</ele>
        <time>2015-12-20T07:46:18Z</time>
      </trkpt>
      <trkpt lat="41.665613630" lon="2.512994840">
        <ele>241.91</ele>
        <time>2015-12-20T07:46:32Z</time>
      </trkpt>
      <trkpt lat="41.665624190" lon="2.513000630">
        <ele>241.91</ele>
        <time>2015-12-20T07:46:47Z</time>
      </trkpt>
      <trkpt lat="41.665661830" lon="2.513010600">
        <ele>241.91</ele>
        <time>2015-12-20T07:47:08Z</time>
      </trkpt>
      <trkpt lat="41.665668780" lon="2.513030970">
        <ele>241.91</ele>
        <time>2015-12-20T07:47:30Z</time>
      </trkpt>
      <trkpt lat="41.665653110" lon="2.513061650">
        <ele>241.91</ele>
        <time>2015-12-20T07:47:45Z</time>
      </trkpt>
      <trkpt lat="41.665646650" lon="2.513059720">
        <ele>241.91</ele>
        <time>2015-12-20T07:48:09Z</time>
      </trkpt>
      <trkpt lat="41.665625200" lon="2.513085620">
        <ele>241.91</ele>
        <time>2015-12-20T07:48:21Z</time>
      </trkpt>
      <trkpt lat="41.665620590" lon="2.513049410">
        <ele>241.91</ele>
        <time>2015-12-20T07:48:46Z</time>
      </trkpt>
      <trkpt lat="41.665609020" lon="2.513045300">
        <ele>241.91</ele>
        <time>2015-12-20T07:49:05Z</time>
      </trkpt>
      <trkpt lat="41.665625870" lon="2.513056950">
        <ele>241.91</ele>
        <time>2015-12-20T07:49:24Z</time>
      </trkpt>
      <trkpt lat="41.665600890" lon="2.513047650">
        <ele>241.91</ele>
        <time>2015-12-20T07:49:43Z</time>
      </trkpt>
      <trkpt lat="41.665611700" lon="2.513008250">
        <ele>241.91</ele>
        <time>2015-12-20T07:49:58Z</time>
      </trkpt>
      <trkpt lat="41.665613710" lon="2.513051170">
        <ele>241.91</ele>
        <time>2015-12-20T07:50:21Z</time>
      </trkpt>
      <trkpt lat="41.665599380" lon="2.513053520">
        <ele>241.91</ele>
        <time>2015-12-20T07:50:42Z</time>
      </trkpt>
      <trkpt lat="41.665612540" lon="2.513025270">
        <ele>241.91</ele>
        <time>2015-12-20T07:51:01Z</time>
      </trkpt>
      <trkpt lat="41.665617150" lon="2.513039850">
        <ele>241.91</ele>
        <time>2015-12-20T07:51:19Z</time>
      </trkpt>
      <trkpt lat="41.665604330" lon="2.513045970">
        <ele>241.91</ele>
        <time>2015-12-20T07:51:42Z</time>
      </trkpt>
      <trkpt lat="41.665624270" lon="2.513050000">
        <ele>241.91</ele>
        <time>2015-12-20T07:52:03Z</time>
      </trkpt>
      <trkpt lat="41.665610440" lon="2.513025190">
        <ele>241.91</ele>
        <time>2015-12-20T07:52:27Z</time>
      </trkpt>
      <trkpt lat="41.665622430" lon="2.513014120">
        <ele>242.39</ele>
        <time>2015-12-20T07:52:52Z</time>
      </trkpt>
      <trkpt lat="41.665646740" lon="2.513042450">
        <ele>242.39</ele>
        <time>2015-12-20T07:53:10Z</time>
      </trkpt>
      <trkpt lat="41.665625780" lon="2.513014790">
        <ele>242.39</ele>
        <time>2015-12-20T07:53:29Z</time>
      </trkpt>
      <trkpt lat="41.665615390" lon="2.513021920">
        <ele>242.39</ele>
        <time>2015-12-20T07:53:46Z</time>
      </trkpt>
      <trkpt lat="41.665585210" lon="2.513044460">
        <ele>242.39</ele>
        <time>2015-12-20T07:54:06Z</time>
      </trkpt>
      <trkpt lat="41.665604070" lon="2.513055280">
        <ele>242.39</ele>
        <time>2015-12-20T07:54:16Z</time>
      </trkpt>
      <trkpt lat="41.665601560" lon="2.513034820">
        <ele>242.39</ele>
        <time>2015-12-20T07:54:24Z</time>
      </trkpt>
      <trkpt lat="41.665602570" lon="2.513028790">
        <ele>242.39</ele>
        <time>2015-12-20T07:54:28Z</time>
      </trkpt>
      <trkpt lat="41.665612370" lon="2.512933570">
        <ele>242.39</ele>
        <time>2015-12-20T07:54:35Z</time>
      </trkpt>
      <trkpt lat="41.665519840" lon="2.512826280">
        <ele>243.83</ele>
        <time>2015-12-20T07:54:43Z</time>
      </trkpt>
      <trkpt lat="41.665489910" lon="2.512782860">
        <ele>244.31</ele>
        <time>2015-12-20T07:54:47Z</time>
      </trkpt>
      <trkpt lat="41.665499640" lon="2.512703400">
        <ele>244.79</ele>
        <time>2015-12-20T07:54:51Z</time>
      </trkpt>
      <trkpt lat="41.665525540" lon="2.512650930">
        <ele>244.79</ele>
        <time>2015-12-20T07:54:53Z</time>
      </trkpt>
      <trkpt lat="41.665506590" lon="2.512545820">
        <ele>244.79</ele>
        <time>2015-12-20T07:54:57Z</time>
      </trkpt>
      <trkpt lat="41.665471220" lon="2.512422780">
        <ele>244.79</ele>
        <time>2015-12-20T07:55:05Z</time>
      </trkpt>
      <trkpt lat="41.665461410" lon="2.512394450">
        <ele>244.79</ele>
        <time>2015-12-20T07:55:11Z</time>
      </trkpt>
      <trkpt lat="41.665442720" lon="2.512347680">
        <ele>244.79</ele>
        <time>2015-12-20T07:55:20Z</time>
      </trkpt>
      <trkpt lat="41.665385980" lon="2.512239720">
        <ele>244.79</ele>
        <time>2015-12-20T07:55:27Z</time>
      </trkpt>
      <trkpt lat="41.665338950" lon="2.512168220">
        <ele>245.27</ele>
        <time>2015-12-20T07:55:32Z</time>
      </trkpt>
      <trkpt lat="41.665267960" lon="2.512095880">
        <ele>246.23</ele>
        <time>2015-12-20T07:55:38Z</time>
      </trkpt>
      <trkpt lat="41.665191350" lon="2.512011310">
        <ele>247.20</ele>
        <time>2015-12-20T07:55:45Z</time>
      </trkpt>
      <trkpt lat="41.665083220" lon="2.511891200">
        <ele>248.64</ele>
        <time>2015-12-20T07:55:53Z</time>
      </trkpt>
      <trkpt lat="41.664977190" lon="2.511749290">
        <ele>249.12</ele>
        <time>2015-12-20T07:56:01Z</time>
      </trkpt>
      <trkpt lat="41.664898230" lon="2.511647280">
        <ele>250.08</ele>
        <time>2015-12-20T07:56:08Z</time>
      </trkpt>
      <trkpt lat="41.664777950" lon="2.511549720">
        <ele>251.04</ele>
        <time>2015-12-20T07:56:16Z</time>
      </trkpt>
      <trkpt lat="41.664656670" lon="2.511449050">
        <ele>253.44</ele>
        <time>2015-12-20T07:56:24Z</time>
      </trkpt>
      <trkpt lat="41.664586180" lon="2.511396000">
        <ele>253.93</ele>
        <time>2015-12-20T07:56:29Z</time>
      </trkpt>
      <trkpt lat="41.664498420" lon="2.511269600">
        <ele>254.89</ele>
        <time>2015-12-20T07:56:36Z</time>
      </trkpt>
      <trkpt lat="41.664431450" lon="2.511145210">
        <ele>256.33</ele>
        <time>2015-12-20T07:56:42Z</time>
      </trkpt>
      <trkpt lat="41.664359860" lon="2.511011850">
        <ele>258.25</ele>
        <time>2015-12-20T07:56:50Z</time>
      </trkpt>
      <trkpt lat="41.664341090" lon="2.510981760">
        <ele>258.73</ele>
        <time>2015-12-20T07:56:52Z</time>
      </trkpt>
      <trkpt lat="41.664277810" lon="2.510885620">
        <ele>259.69</ele>
        <time>2015-12-20T07:56:58Z</time>
      </trkpt>
      <trkpt lat="41.664164060" lon="2.510676410">
        <ele>262.10</ele>
        <time>2015-12-20T07:57:09Z</time>
      </trkpt>
      <trkpt lat="41.664093660" lon="2.510548080">
        <ele>264.02</ele>
        <time>2015-12-20T07:57:16Z</time>
      </trkpt>
      <trkpt lat="41.664031550" lon="2.510441630">
        <ele>265.46</ele>
        <time>2015-12-20T07:57:22Z</time>
      </trkpt>
      <trkpt lat="41.663961980" lon="2.510291850">
        <ele>266.90</ele>
        <time>2015-12-20T07:57:30Z</time>
      </trkpt>
      <trkpt lat="41.663937000" lon="2.510224960">
        <ele>267.86</ele>
        <time>2015-12-20T07:57:34Z</time>
      </trkpt>
      <trkpt lat="41.663901120" lon="2.510033850">
        <ele>269.79</ele>
        <time>2015-12-20T07:57:44Z</time>
      </trkpt>
      <trkpt lat="41.663873380" lon="2.509965200">
        <ele>271.23</ele>
        <time>2015-12-20T07:57:48Z</time>
      </trkpt>
      <trkpt lat="41.663794090" lon="2.509806870">
        <ele>272.19</ele>
        <time>2015-12-20T07:57:56Z</time>
      </trkpt>
      <trkpt lat="41.663708760" lon="2.509612660">
        <ele>274.11</ele>
        <time>2015-12-20T07:58:05Z</time>
      </trkpt>
      <trkpt lat="41.663625020" lon="2.509475370">
        <ele>276.52</ele>
        <time>2015-12-20T07:58:14Z</time>
      </trkpt>
      <trkpt lat="41.663533740" lon="2.509319970">
        <ele>278.44</ele>
        <time>2015-12-20T07:58:23Z</time>
      </trkpt>
      <trkpt lat="41.663465100" lon="2.509202620">
        <ele>279.88</ele>
        <time>2015-12-20T07:58:30Z</time>
      </trkpt>
      <trkpt lat="41.663405500" lon="2.509097760">
        <ele>282.28</ele>
        <time>2015-12-20T07:58:37Z</time>
      </trkpt>
      <trkpt lat="41.663352950" lon="2.508904730">
        <ele>282.77</ele>
        <time>2015-12-20T07:58:47Z</time>
      </trkpt>
      <trkpt lat="41.663337780" lon="2.508718060">
        <ele>283.73</ele>
        <time>2015-12-20T07:58:55Z</time>
      </trkpt>
      <trkpt lat="41.663323190" lon="2.508543300">
        <ele>285.17</ele>
        <time>2015-12-20T07:59:03Z</time>
      </trkpt>
      <trkpt lat="41.663275410" lon="2.508356210">
        <ele>286.61</ele>
        <time>2015-12-20T07:59:12Z</time>
      </trkpt>
      <trkpt lat="41.663275330" lon="2.508165940">
        <ele>287.09</ele>
        <time>2015-12-20T07:59:20Z</time>
      </trkpt>
      <trkpt lat="41.663294190" lon="2.508000990">
        <ele>288.05</ele>
        <time>2015-12-20T07:59:27Z</time>
      </trkpt>
      <trkpt lat="41.663266110" lon="2.507783730">
        <ele>289.49</ele>
        <time>2015-12-20T07:59:36Z</time>
      </trkpt>
      <trkpt lat="41.663196620" lon="2.507657920">
        <ele>290.46</ele>
        <time>2015-12-20T07:59:43Z</time>
      </trkpt>
      <trkpt lat="41.663115150" lon="2.507513750">
        <ele>291.90</ele>
        <time>2015-12-20T07:59:51Z</time>
      </trkpt>
      <trkpt lat="41.663025380" lon="2.507292220">
        <ele>294.78</ele>
        <time>2015-12-20T08:00:01Z</time>
      </trkpt>
      <trkpt lat="41.662980290" lon="2.507117790">
        <ele>296.70</ele>
        <time>2015-12-20T08:00:09Z</time>
      </trkpt>
      <trkpt lat="41.662942570" lon="2.506929110">
        <ele>298.15</ele>
        <time>2015-12-20T08:00:18Z</time>
      </trkpt>
      <trkpt lat="41.662916000" lon="2.506778400">
        <ele>300.07</ele>
        <time>2015-12-20T08:00:26Z</time>
      </trkpt>
      <trkpt lat="41.662908200" lon="2.506588300">
        <ele>301.51</ele>
        <time>2015-12-20T08:00:34Z</time>
      </trkpt>
      <trkpt lat="41.662972070" lon="2.506442290">
        <ele>302.47</ele>
        <time>2015-12-20T08:00:42Z</time>
      </trkpt>
      <trkpt lat="41.662987830" lon="2.506379260">
        <ele>302.47</ele>
        <time>2015-12-20T08:00:45Z</time>
      </trkpt>
      <trkpt lat="41.662952210" lon="2.506305410">
        <ele>303.91</ele>
        <time>2015-12-20T08:00:50Z</time>
      </trkpt>
      <trkpt lat="41.662782730" lon="2.506215810">
        <ele>304.39</ele>
        <time>2015-12-20T08:01:00Z</time>
      </trkpt>
      <trkpt lat="41.662628920" lon="2.506197370">
        <ele>304.88</ele>
        <time>2015-12-20T08:01:08Z</time>
      </trkpt>
      <trkpt lat="41.662468990" lon="2.506211290">
        <ele>305.84</ele>
        <time>2015-12-20T08:01:17Z</time>
      </trkpt>
      <trkpt lat="41.662296240" lon="2.506237270">
        <ele>305.84</ele>
        <time>2015-12-20T08:01:24Z</time>
      </trkpt>
      <trkpt lat="41.662154250" lon="2.506153870">
        <ele>305.84</ele>
        <time>2015-12-20T08:01:30Z</time>
      </trkpt>
      <trkpt lat="41.662026680" lon="2.505956730">
        <ele>305.84</ele>
        <time>2015-12-20T08:01:39Z</time>
      </trkpt>
      <trkpt lat="41.661946460" lon="2.505736370">
        <ele>306.32</ele>
        <time>2015-12-20T08:01:47Z</time>
      </trkpt>
      <trkpt lat="41.661799700" lon="2.505488010">
        <ele>307.28</ele>
        <time>2015-12-20T08:01:56Z</time>
      </trkpt>
      <trkpt lat="41.661640360" lon="2.505293220">
        <ele>307.76</ele>
        <time>2015-12-20T08:02:04Z</time>
      </trkpt>
      <trkpt lat="41.661518060" lon="2.505178970">
        <ele>309.20</ele>
        <time>2015-12-20T08:02:10Z</time>
      </trkpt>
      <trkpt lat="41.661378090" lon="2.505128260">
        <ele>310.64</ele>
        <time>2015-12-20T08:02:17Z</time>
      </trkpt>
      <trkpt lat="41.661191420" lon="2.505148120">
        <ele>311.12</ele>
        <time>2015-12-20T08:02:23Z</time>
      </trkpt>
      <trkpt lat="41.660900650" lon="2.505119880">
        <ele>311.12</ele>
        <time>2015-12-20T08:02:31Z</time>
      </trkpt>
      <trkpt lat="41.660674340" lon="2.505050980">
        <ele>311.12</ele>
        <time>2015-12-20T08:02:38Z</time>
      </trkpt>
      <trkpt lat="41.660389610" lon="2.505103530">
        <ele>311.12</ele>
        <time>2015-12-20T08:02:47Z</time>
      </trkpt>
      <trkpt lat="41.660106050" lon="2.505137480">
        <ele>311.12</ele>
        <time>2015-12-20T08:02:57Z</time>
      </trkpt>
      <trkpt lat="41.659851490" lon="2.505104290">
        <ele>311.60</ele>
        <time>2015-12-20T08:03:06Z</time>
      </trkpt>
      <trkpt lat="41.659698190" lon="2.505167150">
        <ele>311.60</ele>
        <time>2015-12-20T08:03:12Z</time>
      </trkpt>
      <trkpt lat="41.659573630" lon="2.505293300">
        <ele>312.57</ele>
        <time>2015-12-20T08:03:18Z</time>
      </trkpt>
      <trkpt lat="41.659468520" lon="2.505484660">
        <ele>313.53</ele>
        <time>2015-12-20T08:03:25Z</time>
      </trkpt>
      <trkpt lat="41.659453430" lon="2.505531600">
        <ele>313.53</ele>
        <time>2015-12-20T08:03:27Z</time>
      </trkpt>
      <trkpt lat="41.659487130" lon="2.505613990">
        <ele>314.01</ele>
        <time>2015-12-20T08:03:31Z</time>
      </trkpt>
      <trkpt lat="41.659515630" lon="2.505705350">
        <ele>314.49</ele>
        <time>2015-12-20T08:03:35Z</time>
      </trkpt>
      <trkpt lat="41.659531220" lon="2.505863440">
        <ele>315.45</ele>
        <time>2015-12-20T08:03:43Z</time>
      </trkpt>
      <trkpt lat="41.659520910" lon="2.506047080">
        <ele>316.89</ele>
        <time>2015-12-20T08:03:50Z</time>
      </trkpt>
      <trkpt lat="41.659424010" lon="2.506194860">
        <ele>318.33</ele>
        <time>2015-12-20T08:03:57Z</time>
      </trkpt>
      <trkpt lat="41.659295350" lon="2.506173230">
        <ele>319.78</ele>
        <time>2015-12-20T08:04:04Z</time>
      </trkpt>
      <trkpt lat="41.659185210" lon="2.506204410">
        <ele>321.22</ele>
        <time>2015-12-20T08:04:10Z</time>
      </trkpt>
      <trkpt lat="41.659200380" lon="2.506310110">
        <ele>322.18</ele>
        <time>2015-12-20T08:04:15Z</time>
      </trkpt>
      <trkpt lat="41.659292000" lon="2.506449500">
        <ele>323.62</ele>
        <time>2015-12-20T08:04:23Z</time>
      </trkpt>
      <trkpt lat="41.659421250" lon="2.506667090">
        <ele>325.54</ele>
        <time>2015-12-20T08:04:34Z</time>
      </trkpt>
      <trkpt lat="41.659539180" lon="2.506846880">
        <ele>326.99</ele>
        <time>2015-12-20T08:04:43Z</time>
      </trkpt>
      <trkpt lat="41.659585950" lon="2.506927850">
        <ele>327.47</ele>
        <time>2015-12-20T08:04:47Z</time>
      </trkpt>
      <trkpt lat="41.659545470" lon="2.507128270">
        <ele>328.43</ele>
        <time>2015-12-20T08:04:56Z</time>
      </trkpt>
      <trkpt lat="41.659412530" lon="2.507270250">
        <ele>329.87</ele>
        <time>2015-12-20T08:05:05Z</time>
      </trkpt>
      <trkpt lat="41.659307590" lon="2.507397070">
        <ele>330.83</ele>
        <time>2015-12-20T08:05:12Z</time>
      </trkpt>
      <trkpt lat="41.659161070" lon="2.507521880">
        <ele>332.75</ele>
        <time>2015-12-20T08:05:21Z</time>
      </trkpt>
      <trkpt lat="41.659019000" lon="2.507683820">
        <ele>334.20</ele>
        <time>2015-12-20T08:05:30Z</time>
      </trkpt>
      <trkpt lat="41.658925630" lon="2.507849110">
        <ele>335.64</ele>
        <time>2015-12-20T08:05:38Z</time>
      </trkpt>
      <trkpt lat="41.658881700" lon="2.508075250">
        <ele>336.12</ele>
        <time>2015-12-20T08:05:47Z</time>
      </trkpt>
      <trkpt lat="41.658832670" lon="2.508337270">
        <ele>337.08</ele>
        <time>2015-12-20T08:05:57Z</time>
      </trkpt>
      <trkpt lat="41.658795450" lon="2.508499130">
        <ele>338.04</ele>
        <time>2015-12-20T08:06:03Z</time>
      </trkpt>
      <trkpt lat="41.658751870" lon="2.508702220">
        <ele>339.00</ele>
        <time>2015-12-20T08:06:10Z</time>
      </trkpt>
      <trkpt lat="41.658726300" lon="2.508930960">
        <ele>339.48</ele>
        <time>2015-12-20T08:06:18Z</time>
      </trkpt>
      <trkpt lat="41.658768720" lon="2.509130450">
        <ele>339.48</ele>
        <time>2015-12-20T08:06:23Z</time>
      </trkpt>
      <trkpt lat="41.658754220" lon="2.509375790">
        <ele>339.48</ele>
        <time>2015-12-20T08:06:29Z</time>
      </trkpt>
      <trkpt lat="41.658756810" lon="2.509416360">
        <ele>339.48</ele>
        <time>2015-12-20T08:06:30Z</time>
      </trkpt>
      <trkpt lat="41.658838620" lon="2.509750120">
        <ele>339.48</ele>
        <time>2015-12-20T08:06:38Z</time>
      </trkpt>
      <trkpt lat="41.658971560" lon="2.509961680">
        <ele>340.44</ele>
        <time>2015-12-20T08:06:45Z</time>
      </trkpt>
      <trkpt lat="41.659170380" lon="2.510099230">
        <ele>342.37</ele>
        <time>2015-12-20T08:06:53Z</time>
      </trkpt>
      <trkpt lat="41.659423260" lon="2.510144410">
        <ele>342.85</ele>
        <time>2015-12-20T08:07:00Z</time>
      </trkpt>
      <trkpt lat="41.659637920" lon="2.510176680">
        <ele>342.85</ele>
        <time>2015-12-20T08:07:06Z</time>
      </trkpt>
      <trkpt lat="41.659893230" lon="2.510361000">
        <ele>342.85</ele>
        <time>2015-12-20T08:07:14Z</time>
      </trkpt>
      <trkpt lat="41.660104960" lon="2.510542210">
        <ele>343.33</ele>
        <time>2015-12-20T08:07:21Z</time>
      </trkpt>
      <trkpt lat="41.660206460" lon="2.510777580">
        <ele>345.25</ele>
        <time>2015-12-20T08:07:28Z</time>
      </trkpt>
      <trkpt lat="41.660294810" lon="2.511116210">
        <ele>347.65</ele>
        <time>2015-12-20T08:07:38Z</time>
      </trkpt>
      <trkpt lat="41.660362700" lon="2.511372530">
        <ele>350.54</ele>
        <time>2015-12-20T08:07:46Z</time>
      </trkpt>
      <trkpt lat="41.660456830" lon="2.511577380">
        <ele>350.54</ele>
        <time>2015-12-20T08:07:52Z</time>
      </trkpt>
      <trkpt lat="41.660494050" lon="2.511836380">
        <ele>351.50</ele>
        <time>2015-12-20T08:07:59Z</time>
      </trkpt>
      <trkpt lat="41.660461610" lon="2.512041070">
        <ele>352.46</ele>
        <time>2015-12-20T08:08:05Z</time>
      </trkpt>
      <trkpt lat="41.660304030" lon="2.512320770">
        <ele>352.46</ele>
        <time>2015-12-20T08:08:13Z</time>
      </trkpt>
      <trkpt lat="41.660185930" lon="2.512458650">
        <ele>353.42</ele>
        <time>2015-12-20T08:08:19Z</time>
      </trkpt>
      <trkpt lat="41.660089370" lon="2.512641800">
        <ele>353.42</ele>
        <time>2015-12-20T08:08:24Z</time>
      </trkpt>
      <trkpt lat="41.659969260" lon="2.512928540">
        <ele>353.42</ele>
        <time>2015-12-20T08:08:31Z</time>
      </trkpt>
      <trkpt lat="41.659926260" lon="2.513126190">
        <ele>353.42</ele>
        <time>2015-12-20T08:08:36Z</time>
      </trkpt>
      <trkpt lat="41.659839090" lon="2.513362140">
        <ele>351.98</ele>
        <time>2015-12-20T08:08:40Z</time>
      </trkpt>
      <trkpt lat="41.659705810" lon="2.513705540">
        <ele>349.58</ele>
        <time>2015-12-20T08:08:48Z</time>
      </trkpt>
      <trkpt lat="41.659691310" lon="2.513720800">
        <ele>348.62</ele>
        <time>2015-12-20T08:08:54Z</time>
      </trkpt>
      <trkpt lat="41.659680330" lon="2.513758020">
        <ele>348.62</ele>
        <time>2015-12-20T08:08:58Z</time>
      </trkpt>
      <trkpt lat="41.659673540" lon="2.513804790">
        <ele>348.13</ele>
        <time>2015-12-20T08:09:04Z</time>
      </trkpt>
      <trkpt lat="41.659669850" lon="2.513848370">
        <ele>347.65</ele>
        <time>2015-12-20T08:09:26Z</time>
      </trkpt>
      <trkpt lat="41.659668930" lon="2.513947360">
        <ele>347.17</ele>
        <time>2015-12-20T08:09:40Z</time>
      </trkpt>
      <trkpt lat="41.659639680" lon="2.514150370">
        <ele>343.81</ele>
        <time>2015-12-20T08:09:45Z</time>
      </trkpt>
      <trkpt lat="41.659608580" lon="2.514325220">
        <ele>340.92</ele>
        <time>2015-12-20T08:09:50Z</time>
      </trkpt>
      <trkpt lat="41.659654930" lon="2.514585060">
        <ele>339.00</ele>
        <time>2015-12-20T08:09:58Z</time>
      </trkpt>
      <trkpt lat="41.659643030" lon="2.514749760">
        <ele>339.00</ele>
        <time>2015-12-20T08:10:06Z</time>
      </trkpt>
      <trkpt lat="41.659582180" lon="2.514944310">
        <ele>339.00</ele>
        <time>2015-12-20T08:10:14Z</time>
      </trkpt>
      <trkpt lat="41.659536250" lon="2.515102810">
        <ele>340.44</ele>
        <time>2015-12-20T08:10:20Z</time>
      </trkpt>
      <trkpt lat="41.659527860" lon="2.515126030">
        <ele>340.44</ele>
        <time>2015-12-20T08:10:21Z</time>
      </trkpt>
      <trkpt lat="41.659476150" lon="2.515388880">
        <ele>340.92</ele>
        <time>2015-12-20T08:10:30Z</time>
      </trkpt>
      <trkpt lat="41.659416800" lon="2.515637990">
        <ele>340.92</ele>
        <time>2015-12-20T08:10:37Z</time>
      </trkpt>
      <trkpt lat="41.659317650" lon="2.515908310">
        <ele>340.92</ele>
        <time>2015-12-20T08:10:43Z</time>
      </trkpt>
      <trkpt lat="41.659248080" lon="2.516048790">
        <ele>339.48</ele>
        <time>2015-12-20T08:10:46Z</time>
      </trkpt>
      <trkpt lat="41.659149670" lon="2.516257670">
        <ele>339.00</ele>
        <time>2015-12-20T08:10:50Z</time>
      </trkpt>
      <trkpt lat="41.659018500" lon="2.516575590">
        <ele>338.52</ele>
        <time>2015-12-20T08:10:57Z</time>
      </trkpt>
      <trkpt lat="41.659016900" lon="2.516814900">
        <ele>338.52</ele>
        <time>2015-12-20T08:11:03Z</time>
      </trkpt>
      <trkpt lat="41.659081440" lon="2.516978930">
        <ele>339.96</ele>
        <time>2015-12-20T08:11:08Z</time>
      </trkpt>
      <trkpt lat="41.659101900" lon="2.517156880">
        <ele>341.41</ele>
        <time>2015-12-20T08:11:14Z</time>
      </trkpt>
      <trkpt lat="41.659077840" lon="2.517458120">
        <ele>343.81</ele>
        <time>2015-12-20T08:11:24Z</time>
      </trkpt>
      <trkpt lat="41.659050850" lon="2.517693320">
        <ele>345.73</ele>
        <time>2015-12-20T08:11:32Z</time>
      </trkpt>
      <trkpt lat="41.659020170" lon="2.517901940">
        <ele>347.17</ele>
        <time>2015-12-20T08:11:40Z</time>
      </trkpt>
      <trkpt lat="41.658991510" lon="2.518105710">
        <ele>348.62</ele>
        <time>2015-12-20T08:11:48Z</time>
      </trkpt>
      <trkpt lat="41.658976920" lon="2.518295980">
        <ele>350.06</ele>
        <time>2015-12-20T08:11:55Z</time>
      </trkpt>
      <trkpt lat="41.658918580" lon="2.518518520">
        <ele>351.50</ele>
        <time>2015-12-20T08:12:03Z</time>
      </trkpt>
      <trkpt lat="41.658874750" lon="2.518669390">
        <ele>352.94</ele>
        <time>2015-12-20T08:12:09Z</time>
      </trkpt>
      <trkpt lat="41.658807780" lon="2.518904420">
        <ele>354.38</ele>
        <time>2015-12-20T08:12:18Z</time>
      </trkpt>
      <trkpt lat="41.658739970" lon="2.519129060">
        <ele>355.83</ele>
        <time>2015-12-20T08:12:27Z</time>
      </trkpt>
      <trkpt lat="41.658683140" lon="2.519290910">
        <ele>357.27</ele>
        <time>2015-12-20T08:12:34Z</time>
      </trkpt>
      <trkpt lat="41.658646510" lon="2.519462320">
        <ele>358.71</ele>
        <time>2015-12-20T08:12:41Z</time>
      </trkpt>
      <trkpt lat="41.658570320" lon="2.519752250">
        <ele>360.15</ele>
        <time>2015-12-20T08:12:52Z</time>
      </trkpt>
      <trkpt lat="41.658477530" lon="2.519935650">
        <ele>361.59</ele>
        <time>2015-12-20T08:13:00Z</time>
      </trkpt>
      <trkpt lat="41.658461020" lon="2.519949480">
        <ele>362.07</ele>
        <time>2015-12-20T08:13:01Z</time>
      </trkpt>
      <trkpt lat="41.658290360" lon="2.519954840">
        <ele>364.48</ele>
        <time>2015-12-20T08:13:10Z</time>
      </trkpt>
      <trkpt lat="41.658235460" lon="2.520134380">
        <ele>365.92</ele>
        <time>2015-12-20T08:13:18Z</time>
      </trkpt>
      <trkpt lat="41.658189950" lon="2.520344930">
        <ele>366.88</ele>
        <time>2015-12-20T08:13:27Z</time>
      </trkpt>
      <trkpt lat="41.658164210" lon="2.520515920">
        <ele>368.32</ele>
        <time>2015-12-20T08:13:34Z</time>
      </trkpt>
      <trkpt lat="41.658140660" lon="2.520687920">
        <ele>369.76</ele>
        <time>2015-12-20T08:13:41Z</time>
      </trkpt>
      <trkpt lat="41.658053990" lon="2.520938290">
        <ele>370.73</ele>
        <time>2015-12-20T08:13:51Z</time>
      </trkpt>
      <trkpt lat="41.657962880" lon="2.521188910">
        <ele>372.17</ele>
        <time>2015-12-20T08:14:01Z</time>
      </trkpt>
      <trkpt lat="41.657884510" lon="2.521412540">
        <ele>373.61</ele>
        <time>2015-12-20T08:14:10Z</time>
      </trkpt>
      <trkpt lat="41.657849390" lon="2.521587550">
        <ele>374.57</ele>
        <time>2015-12-20T08:14:16Z</time>
      </trkpt>
      <trkpt lat="41.657829100" lon="2.521878150">
        <ele>375.05</ele>
        <time>2015-12-20T08:14:25Z</time>
      </trkpt>
      <trkpt lat="41.657785770" lon="2.522092310">
        <ele>375.53</ele>
        <time>2015-12-20T08:14:32Z</time>
      </trkpt>
      <trkpt lat="41.657761300" lon="2.522376620">
        <ele>376.01</ele>
        <time>2015-12-20T08:14:40Z</time>
      </trkpt>
      <trkpt lat="41.657827510" lon="2.522664210">
        <ele>376.49</ele>
        <time>2015-12-20T08:14:48Z</time>
      </trkpt>
      <trkpt lat="41.657887780" lon="2.523043570">
        <ele>376.49</ele>
        <time>2015-12-20T08:14:56Z</time>
      </trkpt>
      <trkpt lat="41.657900600" lon="2.523371720">
        <ele>376.49</ele>
        <time>2015-12-20T08:15:04Z</time>
      </trkpt>
      <trkpt lat="41.657902950" lon="2.523675570">
        <ele>375.53</ele>
        <time>2015-12-20T08:15:11Z</time>
      </trkpt>
      <trkpt lat="41.657835390" lon="2.523901540">
        <ele>375.53</ele>
        <time>2015-12-20T08:15:17Z</time>
      </trkpt>
      <trkpt lat="41.657817790" lon="2.523965920">
        <ele>376.49</ele>
        <time>2015-12-20T08:15:19Z</time>
      </trkpt>
      <trkpt lat="41.657829780" lon="2.524197170">
        <ele>377.94</ele>
        <time>2015-12-20T08:15:26Z</time>
      </trkpt>
      <trkpt lat="41.657831620" lon="2.524482240">
        <ele>379.38</ele>
        <time>2015-12-20T08:15:35Z</time>
      </trkpt>
      <trkpt lat="41.657797760" lon="2.524639820">
        <ele>380.34</ele>
        <time>2015-12-20T08:15:40Z</time>
      </trkpt>
      <trkpt lat="41.657887020" lon="2.524745850">
        <ele>381.30</ele>
        <time>2015-12-20T08:15:46Z</time>
      </trkpt>
      <trkpt lat="41.658086600" lon="2.524787260">
        <ele>383.22</ele>
        <time>2015-12-20T08:15:55Z</time>
      </trkpt>
      <trkpt lat="41.658305620" lon="2.524910470">
        <ele>382.74</ele>
        <time>2015-12-20T08:16:03Z</time>
      </trkpt>
      <trkpt lat="41.658399160" lon="2.525065710">
        <ele>383.22</ele>
        <time>2015-12-20T08:16:09Z</time>
      </trkpt>
      <trkpt lat="41.658447100" lon="2.525255890">
        <ele>383.70</ele>
        <time>2015-12-20T08:16:15Z</time>
      </trkpt>
      <trkpt lat="41.658446600" lon="2.525610030">
        <ele>383.70</ele>
        <time>2015-12-20T08:16:23Z</time>
      </trkpt>
      <trkpt lat="41.658433100" lon="2.526029790">
        <ele>383.70</ele>
        <time>2015-12-20T08:16:32Z</time>
      </trkpt>
      <trkpt lat="41.658401590" lon="2.526318050">
        <ele>384.18</ele>
        <time>2015-12-20T08:16:39Z</time>
      </trkpt>
      <trkpt lat="41.658385160" lon="2.526550900">
        <ele>385.15</ele>
        <time>2015-12-20T08:16:45Z</time>
      </trkpt>
      <trkpt lat="41.658364120" lon="2.526842670">
        <ele>387.55</ele>
        <time>2015-12-20T08:16:53Z</time>
      </trkpt>
      <trkpt lat="41.658293710" lon="2.527110470">
        <ele>390.43</ele>
        <time>2015-12-20T08:17:02Z</time>
      </trkpt>
      <trkpt lat="41.658168820" lon="2.527361010">
        <ele>391.39</ele>
        <time>2015-12-20T08:17:11Z</time>
      </trkpt>
      <trkpt lat="41.658090960" lon="2.527607770">
        <ele>393.32</ele>
        <time>2015-12-20T08:17:20Z</time>
      </trkpt>
      <trkpt lat="41.658066980" lon="2.527720840">
        <ele>394.76</ele>
        <time>2015-12-20T08:17:24Z</time>
      </trkpt>
      <trkpt lat="41.658113920" lon="2.527966100">
        <ele>398.12</ele>
        <time>2015-12-20T08:17:33Z</time>
      </trkpt>
      <trkpt lat="41.658125490" lon="2.528070530">
        <ele>399.08</ele>
        <time>2015-12-20T08:17:37Z</time>
      </trkpt>
      <trkpt lat="41.658033370" lon="2.528130720">
        <ele>401.01</ele>
        <time>2015-12-20T08:17:43Z</time>
      </trkpt>
      <trkpt lat="41.657916860" lon="2.527983700">
        <ele>402.93</ele>
        <time>2015-12-20T08:17:52Z</time>
      </trkpt>
      <trkpt lat="41.657805970" lon="2.527925280">
        <ele>404.37</ele>
        <time>2015-12-20T08:17:59Z</time>
      </trkpt>
      <trkpt lat="41.657685440" lon="2.527896860">
        <ele>405.33</ele>
        <time>2015-12-20T08:18:06Z</time>
      </trkpt>
      <trkpt lat="41.657521740" lon="2.527880940">
        <ele>405.81</ele>
        <time>2015-12-20T08:18:14Z</time>
      </trkpt>
      <trkpt lat="41.657316050" lon="2.527959730">
        <ele>406.77</ele>
        <time>2015-12-20T08:18:23Z</time>
      </trkpt>
      <trkpt lat="41.657107930" lon="2.528052260">
        <ele>406.77</ele>
        <time>2015-12-20T08:18:31Z</time>
      </trkpt>
      <trkpt lat="41.656912460" lon="2.528186620">
        <ele>406.77</ele>
        <time>2015-12-20T08:18:39Z</time>
      </trkpt>
      <trkpt lat="41.656721770" lon="2.528340100">
        <ele>407.26</ele>
        <time>2015-12-20T08:18:46Z</time>
      </trkpt>
      <trkpt lat="41.656626300" lon="2.528552490">
        <ele>407.26</ele>
        <time>2015-12-20T08:18:52Z</time>
      </trkpt>
      <trkpt lat="41.656562180" lon="2.528843680">
        <ele>409.18</ele>
        <time>2015-12-20T08:19:00Z</time>
      </trkpt>
      <trkpt lat="41.656409710" lon="2.528974770">
        <ele>410.62</ele>
        <time>2015-12-20T08:19:08Z</time>
      </trkpt>
      <trkpt lat="41.656224050" lon="2.529129340">
        <ele>413.98</ele>
        <time>2015-12-20T08:19:18Z</time>
      </trkpt>
      <trkpt lat="41.656019450" lon="2.529300330">
        <ele>416.87</ele>
        <time>2015-12-20T08:19:29Z</time>
      </trkpt>
      <trkpt lat="41.655862790" lon="2.529436700">
        <ele>418.79</ele>
        <time>2015-12-20T08:19:37Z</time>
      </trkpt>
      <trkpt lat="41.655732200" lon="2.529587410">
        <ele>420.71</ele>
        <time>2015-12-20T08:19:44Z</time>
      </trkpt>
      <trkpt lat="41.655628440" lon="2.529815140">
        <ele>421.19</ele>
        <time>2015-12-20T08:19:52Z</time>
      </trkpt>
      <trkpt lat="41.655545290" lon="2.530001720">
        <ele>421.68</ele>
        <time>2015-12-20T08:19:59Z</time>
      </trkpt>
      <trkpt lat="41.655415200" lon="2.530253940">
        <ele>422.16</ele>
        <time>2015-12-20T08:20:07Z</time>
      </trkpt>
      <trkpt lat="41.655329790" lon="2.530561550">
        <ele>418.79</ele>
        <time>2015-12-20T08:20:11Z</time>
      </trkpt>
      <trkpt lat="41.655325850" lon="2.530728440">
        <ele>418.31</ele>
        <time>2015-12-20T08:20:13Z</time>
      </trkpt>
      <trkpt lat="41.655323420" lon="2.530794820">
        <ele>418.31</ele>
        <time>2015-12-20T08:20:14Z</time>
      </trkpt>
      <trkpt lat="41.655210510" lon="2.531100590">
        <ele>418.31</ele>
        <time>2015-12-20T08:20:19Z</time>
      </trkpt>
      <trkpt lat="41.655079590" lon="2.531206960">
        <ele>417.83</ele>
        <time>2015-12-20T08:20:22Z</time>
      </trkpt>
      <trkpt lat="41.654739870" lon="2.531291950">
        <ele>415.43</ele>
        <time>2015-12-20T08:20:28Z</time>
      </trkpt>
      <trkpt lat="41.654640040" lon="2.531324980">
        <ele>413.98</ele>
        <time>2015-12-20T08:20:31Z</time>
      </trkpt>
      <trkpt lat="41.654635180" lon="2.531173350">
        <ele>412.54</ele>
        <time>2015-12-20T08:20:35Z</time>
      </trkpt>
      <trkpt lat="41.654666780" lon="2.530991960">
        <ele>411.10</ele>
        <time>2015-12-20T08:20:39Z</time>
      </trkpt>
      <trkpt lat="41.654613560" lon="2.530950810">
        <ele>409.18</ele>
        <time>2015-12-20T08:20:41Z</time>
      </trkpt>
      <trkpt lat="41.654482550" lon="2.530904040">
        <ele>407.74</ele>
        <time>2015-12-20T08:20:45Z</time>
      </trkpt>
      <trkpt lat="41.654405680" lon="2.530762050">
        <ele>405.81</ele>
        <time>2015-12-20T08:20:48Z</time>
      </trkpt>
      <trkpt lat="41.654315660" lon="2.530616870">
        <ele>403.89</ele>
        <time>2015-12-20T08:20:51Z</time>
      </trkpt>
      <trkpt lat="41.654280120" lon="2.530585190">
        <ele>403.89</ele>
        <time>2015-12-20T08:20:52Z</time>
      </trkpt>
      <trkpt lat="41.654204430" lon="2.530531210">
        <ele>403.41</ele>
        <time>2015-12-20T08:20:54Z</time>
      </trkpt>
      <trkpt lat="41.654033280" lon="2.530377570">
        <ele>401.49</ele>
        <time>2015-12-20T08:20:58Z</time>
      </trkpt>
      <trkpt lat="41.653893550" lon="2.530089730">
        <ele>397.64</ele>
        <time>2015-12-20T08:21:04Z</time>
      </trkpt>
      <trkpt lat="41.653841080" lon="2.529888230">
        <ele>395.24</ele>
        <time>2015-12-20T08:21:08Z</time>
      </trkpt>
      <trkpt lat="41.653733620" lon="2.529751270">
        <ele>393.32</ele>
        <time>2015-12-20T08:21:12Z</time>
      </trkpt>
      <trkpt lat="41.653618710" lon="2.529792850">
        <ele>390.91</ele>
        <time>2015-12-20T08:21:17Z</time>
      </trkpt>
      <trkpt lat="41.653597080" lon="2.529854870">
        <ele>390.43</ele>
        <time>2015-12-20T08:21:19Z</time>
      </trkpt>
      <trkpt lat="41.653434310" lon="2.530068360">
        <ele>385.63</ele>
        <time>2015-12-20T08:21:25Z</time>
      </trkpt>
      <trkpt lat="41.653332720" lon="2.530139520">
        <ele>382.26</ele>
        <time>2015-12-20T08:21:28Z</time>
      </trkpt>
      <trkpt lat="41.653300530" lon="2.530156290">
        <ele>381.78</ele>
        <time>2015-12-20T08:21:29Z</time>
      </trkpt>
      <trkpt lat="41.653126940" lon="2.530121840">
        <ele>377.45</ele>
        <time>2015-12-20T08:21:35Z</time>
      </trkpt>
      <trkpt lat="41.652984530" lon="2.530104320">
        <ele>374.09</ele>
        <time>2015-12-20T08:21:40Z</time>
      </trkpt>
      <trkpt lat="41.652916640" lon="2.530107000">
        <ele>372.65</ele>
        <time>2015-12-20T08:21:42Z</time>
      </trkpt>
      <trkpt lat="41.652872550" lon="2.530256120">
        <ele>371.69</ele>
        <time>2015-12-20T08:21:47Z</time>
      </trkpt>
      <trkpt lat="41.652898530" lon="2.530341020">
        <ele>370.73</ele>
        <time>2015-12-20T08:21:49Z</time>
      </trkpt>
      <trkpt lat="41.653001210" lon="2.530571610">
        <ele>369.28</ele>
        <time>2015-12-20T08:21:53Z</time>
      </trkpt>
      <trkpt lat="41.653089470" lon="2.530747380">
        <ele>367.84</ele>
        <time>2015-12-20T08:21:56Z</time>
      </trkpt>
      <trkpt lat="41.653156610" lon="2.530823910">
        <ele>366.40</ele>
        <time>2015-12-20T08:21:58Z</time>
      </trkpt>
      <trkpt lat="41.653113610" lon="2.530910320">
        <ele>364.48</ele>
        <time>2015-12-20T08:22:02Z</time>
      </trkpt>
      <trkpt lat="41.653040270" lon="2.530849470">
        <ele>362.55</ele>
        <time>2015-12-20T08:22:05Z</time>
      </trkpt>
      <trkpt lat="41.652793840" lon="2.530721480">
        <ele>359.19</ele>
        <time>2015-12-20T08:22:11Z</time>
      </trkpt>
      <trkpt lat="41.652653360" lon="2.530726340">
        <ele>357.27</ele>
        <time>2015-12-20T08:22:14Z</time>
      </trkpt>
      <trkpt lat="41.652564930" lon="2.530730200">
        <ele>355.83</ele>
        <time>2015-12-20T08:22:16Z</time>
      </trkpt>
      <trkpt lat="41.652517070" lon="2.530706060">
        <ele>354.86</ele>
        <time>2015-12-20T08:22:18Z</time>
      </trkpt>
      <trkpt lat="41.652507180" lon="2.530684100">
        <ele>354.86</ele>
        <time>2015-12-20T08:22:20Z</time>
      </trkpt>
      <trkpt lat="41.652518500" lon="2.530555520">
        <ele>354.86</ele>
        <time>2015-12-20T08:22:26Z</time>
      </trkpt>
      <trkpt lat="41.652497710" lon="2.530470020">
        <ele>356.31</ele>
        <time>2015-12-20T08:22:29Z</time>
      </trkpt>
      <trkpt lat="41.652404000" lon="2.530309840">
        <ele>358.23</ele>
        <time>2015-12-20T08:22:37Z</time>
      </trkpt>
      <trkpt lat="41.652271400" lon="2.530165340">
        <ele>358.23</ele>
        <time>2015-12-20T08:22:46Z</time>
      </trkpt>
      <trkpt lat="41.652167880" lon="2.530077500">
        <ele>358.71</ele>
        <time>2015-12-20T08:22:52Z</time>
      </trkpt>
      <trkpt lat="41.652056910" lon="2.529979090">
        <ele>357.75</ele>
        <time>2015-12-20T08:22:57Z</time>
      </trkpt>
      <trkpt lat="41.651998900" lon="2.529867870">
        <ele>356.79</ele>
        <time>2015-12-20T08:23:01Z</time>
      </trkpt>
      <trkpt lat="41.652057750" lon="2.529712470">
        <ele>356.79</ele>
        <time>2015-12-20T08:23:07Z</time>
      </trkpt>
      <trkpt lat="41.652119770" lon="2.529662010">
        <ele>355.83</ele>
        <time>2015-12-20T08:23:09Z</time>
      </trkpt>
      <trkpt lat="41.652250780" lon="2.529658990">
        <ele>353.90</ele>
        <time>2015-12-20T08:23:12Z</time>
      </trkpt>
      <trkpt lat="41.652406430" lon="2.529575500">
        <ele>351.98</ele>
        <time>2015-12-20T08:23:16Z</time>
      </trkpt>
      <trkpt lat="41.652408780" lon="2.529513400">
        <ele>351.98</ele>
        <time>2015-12-20T08:23:17Z</time>
      </trkpt>
      <trkpt lat="41.652358570" lon="2.529319690">
        <ele>350.54</ele>
        <time>2015-12-20T08:23:20Z</time>
      </trkpt>
      <trkpt lat="41.652287830" lon="2.528948960">
        <ele>346.69</ele>
        <time>2015-12-20T08:23:25Z</time>
      </trkpt>
      <trkpt lat="41.652197720" lon="2.528692390">
        <ele>344.29</ele>
        <time>2015-12-20T08:23:30Z</time>
      </trkpt>
      <trkpt lat="41.652163360" lon="2.528676630">
        <ele>344.77</ele>
        <time>2015-12-20T08:23:31Z</time>
      </trkpt>
      <trkpt lat="41.652063610" lon="2.528626590">
        <ele>345.25</ele>
        <time>2015-12-20T08:23:34Z</time>
      </trkpt>
      <trkpt lat="41.651995380" lon="2.528547460">
        <ele>344.77</ele>
        <time>2015-12-20T08:23:36Z</time>
      </trkpt>
      <trkpt lat="41.651811400" lon="2.528399440">
        <ele>345.25</ele>
        <time>2015-12-20T08:23:41Z</time>
      </trkpt>
      <trkpt lat="41.651607220" lon="2.528298940">
        <ele>344.29</ele>
        <time>2015-12-20T08:23:45Z</time>
      </trkpt>
      <trkpt lat="41.651449550" lon="2.528145640">
        <ele>342.37</ele>
        <time>2015-12-20T08:23:48Z</time>
      </trkpt>
      <trkpt lat="41.651397840" lon="2.528075480">
        <ele>341.89</ele>
        <time>2015-12-20T08:23:49Z</time>
      </trkpt>
      <trkpt lat="41.651305890" lon="2.527819080">
        <ele>340.44</ele>
        <time>2015-12-20T08:23:52Z</time>
      </trkpt>
      <trkpt lat="41.651278140" lon="2.527633080">
        <ele>339.00</ele>
        <time>2015-12-20T08:23:54Z</time>
      </trkpt>
      <trkpt lat="41.651261050" lon="2.527355140">
        <ele>336.12</ele>
        <time>2015-12-20T08:23:57Z</time>
      </trkpt>
      <trkpt lat="41.651183180" lon="2.526945100">
        <ele>330.83</ele>
        <time>2015-12-20T08:24:01Z</time>
      </trkpt>
      <trkpt lat="41.651160970" lon="2.526683250">
        <ele>328.91</ele>
        <time>2015-12-20T08:24:04Z</time>
      </trkpt>
      <trkpt lat="41.651154340" lon="2.526608400">
        <ele>327.47</ele>
        <time>2015-12-20T08:24:05Z</time>
      </trkpt>
      <trkpt lat="41.650981340" lon="2.526416280">
        <ele>324.10</ele>
        <time>2015-12-20T08:24:09Z</time>
      </trkpt>
      <trkpt lat="41.650851000" lon="2.526307400">
        <ele>322.66</ele>
        <time>2015-12-20T08:24:11Z</time>
      </trkpt>
      <trkpt lat="41.650542970" lon="2.526152080">
        <ele>321.22</ele>
        <time>2015-12-20T08:24:15Z</time>
      </trkpt>
      <trkpt lat="41.650255720" lon="2.526034990">
        <ele>317.85</ele>
        <time>2015-12-20T08:24:19Z</time>
      </trkpt>
      <trkpt lat="41.650183640" lon="2.525949580">
        <ele>317.37</ele>
        <time>2015-12-20T08:24:23Z</time>
      </trkpt>
      <trkpt lat="41.650227470" lon="2.525916890">
        <ele>316.89</ele>
        <time>2015-12-20T08:24:25Z</time>
      </trkpt>
      <trkpt lat="41.650432240" lon="2.525868520">
        <ele>313.53</ele>
        <time>2015-12-20T08:24:29Z</time>
      </trkpt>
      <trkpt lat="41.650720750" lon="2.525750000">
        <ele>309.20</ele>
        <time>2015-12-20T08:24:34Z</time>
      </trkpt>
      <trkpt lat="41.650949740" lon="2.525812870">
        <ele>305.84</ele>
        <time>2015-12-20T08:24:38Z</time>
      </trkpt>
      <trkpt lat="41.651146970" lon="2.525782780">
        <ele>301.51</ele>
        <time>2015-12-20T08:24:41Z</time>
      </trkpt>
      <trkpt lat="41.651200190" lon="2.525745060">
        <ele>301.99</ele>
        <time>2015-12-20T08:24:42Z</time>
      </trkpt>
      <trkpt lat="41.651306560" lon="2.525559900">
        <ele>298.63</ele>
        <time>2015-12-20T08:24:45Z</time>
      </trkpt>
      <trkpt lat="41.651280320" lon="2.525460830">
        <ele>297.67</ele>
        <time>2015-12-20T08:24:47Z</time>
      </trkpt>
      <trkpt lat="41.651227180" lon="2.525374750">
        <ele>296.70</ele>
        <time>2015-12-20T08:24:49Z</time>
      </trkpt>
      <trkpt lat="41.651173370" lon="2.525234520">
        <ele>295.74</ele>
        <time>2015-12-20T08:24:51Z</time>
      </trkpt>
      <trkpt lat="41.651120150" lon="2.525064030">
        <ele>294.30</ele>
        <time>2015-12-20T08:24:53Z</time>
      </trkpt>
      <trkpt lat="41.651015200" lon="2.524804190">
        <ele>291.42</ele>
        <time>2015-12-20T08:24:56Z</time>
      </trkpt>
      <trkpt lat="41.650856620" lon="2.524541590">
        <ele>286.61</ele>
        <time>2015-12-20T08:25:00Z</time>
      </trkpt>
      <trkpt lat="41.650828290" lon="2.524360960">
        <ele>286.13</ele>
        <time>2015-12-20T08:25:02Z</time>
      </trkpt>
      <trkpt lat="41.650792080" lon="2.524174880">
        <ele>284.21</ele>
        <time>2015-12-20T08:25:04Z</time>
      </trkpt>
      <trkpt lat="41.650752180" lon="2.523762740">
        <ele>280.84</ele>
        <time>2015-12-20T08:25:09Z</time>
      </trkpt>
      <trkpt lat="41.650806830" lon="2.523644140">
        <ele>277.96</ele>
        <time>2015-12-20T08:25:11Z</time>
      </trkpt>
      <trkpt lat="41.650982260" lon="2.523364350">
        <ele>273.15</ele>
        <time>2015-12-20T08:25:16Z</time>
      </trkpt>
      <trkpt lat="41.651168930" lon="2.523400980">
        <ele>270.27</ele>
        <time>2015-12-20T08:25:19Z</time>
      </trkpt>
      <trkpt lat="41.651281580" lon="2.523384130">
        <ele>269.31</ele>
        <time>2015-12-20T08:25:22Z</time>
      </trkpt>
      <trkpt lat="41.651257020" lon="2.523269460">
        <ele>269.31</ele>
        <time>2015-12-20T08:25:25Z</time>
      </trkpt>
      <trkpt lat="41.651231620" lon="2.523233090">
        <ele>269.31</ele>
        <time>2015-12-20T08:25:26Z</time>
      </trkpt>
      <trkpt lat="41.651122160" lon="2.523102830">
        <ele>267.86</ele>
        <time>2015-12-20T08:25:29Z</time>
      </trkpt>
      <trkpt lat="41.650971950" lon="2.523015240">
        <ele>267.86</ele>
        <time>2015-12-20T08:25:33Z</time>
      </trkpt>
      <trkpt lat="41.650802300" lon="2.522900240">
        <ele>266.90</ele>
        <time>2015-12-20T08:25:37Z</time>
      </trkpt>
      <trkpt lat="41.650656210" lon="2.522813320">
        <ele>265.94</ele>
        <time>2015-12-20T08:25:40Z</time>
      </trkpt>
      <trkpt lat="41.650339790" lon="2.522537300">
        <ele>262.10</ele>
        <time>2015-12-20T08:25:45Z</time>
      </trkpt>
      <trkpt lat="41.650032430" lon="2.522266990">
        <ele>258.73</ele>
        <time>2015-12-20T08:25:50Z</time>
      </trkpt>
      <trkpt lat="41.649896140" lon="2.521989380">
        <ele>257.29</ele>
        <time>2015-12-20T08:25:53Z</time>
      </trkpt>
      <trkpt lat="41.649672260" lon="2.521667510">
        <ele>255.85</ele>
        <time>2015-12-20T08:25:57Z</time>
      </trkpt>
      <trkpt lat="41.649575110" lon="2.521477580">
        <ele>254.41</ele>
        <time>2015-12-20T08:25:59Z</time>
      </trkpt>
      <trkpt lat="41.649304880" lon="2.521122610">
        <ele>253.44</ele>
        <time>2015-12-20T08:26:04Z</time>
      </trkpt>
      <trkpt lat="41.649155180" lon="2.520998640">
        <ele>253.44</ele>
        <time>2015-12-20T08:26:07Z</time>
      </trkpt>
      <trkpt lat="41.648886870" lon="2.520667220">
        <ele>250.56</ele>
        <time>2015-12-20T08:26:12Z</time>
      </trkpt>
      <trkpt lat="41.648852840" lon="2.520565210">
        <ele>250.08</ele>
        <time>2015-12-20T08:26:13Z</time>
      </trkpt>
      <trkpt lat="41.648716130" lon="2.520229770">
        <ele>250.56</ele>
        <time>2015-12-20T08:26:17Z</time>
      </trkpt>
      <trkpt lat="41.648614710" lon="2.519900190">
        <ele>250.08</ele>
        <time>2015-12-20T08:26:21Z</time>
      </trkpt>
      <trkpt lat="41.648694930" lon="2.519572630">
        <ele>247.68</ele>
        <time>2015-12-20T08:26:25Z</time>
      </trkpt>
      <trkpt lat="41.648739100" lon="2.519406160">
        <ele>246.72</ele>
        <time>2015-12-20T08:26:27Z</time>
      </trkpt>
      <trkpt lat="41.648664330" lon="2.519208100">
        <ele>245.75</ele>
        <time>2015-12-20T08:26:30Z</time>
      </trkpt>
      <trkpt lat="41.648563250" lon="2.519110870">
        <ele>244.79</ele>
        <time>2015-12-20T08:26:32Z</time>
      </trkpt>
      <trkpt lat="41.648473220" lon="2.519036350">
        <ele>243.35</ele>
        <time>2015-12-20T08:26:34Z</time>
      </trkpt>
      <trkpt lat="41.648374650" lon="2.518814480">
        <ele>241.43</ele>
        <time>2015-12-20T08:26:38Z</time>
      </trkpt>
      <trkpt lat="41.648337270" lon="2.518448190">
        <ele>238.06</ele>
        <time>2015-12-20T08:26:45Z</time>
      </trkpt>
      <trkpt lat="41.648324700" lon="2.518357750">
        <ele>237.10</ele>
        <time>2015-12-20T08:26:50Z</time>
      </trkpt>
      <trkpt lat="41.648315980" lon="2.518220540">
        <ele>236.62</ele>
        <time>2015-12-20T08:26:55Z</time>
      </trkpt>
      <trkpt lat="41.648284630" lon="2.517980480">
        <ele>234.70</ele>
        <time>2015-12-20T08:27:01Z</time>
      </trkpt>
      <trkpt lat="41.648269460" lon="2.517933630">
        <ele>234.70</ele>
        <time>2015-12-20T08:27:02Z</time>
      </trkpt>
      <trkpt lat="41.648025970" lon="2.517647640">
        <ele>232.30</ele>
        <time>2015-12-20T08:27:08Z</time>
      </trkpt>
      <trkpt lat="41.647907780" lon="2.517583010">
        <ele>230.85</ele>
        <time>2015-12-20T08:27:10Z</time>
      </trkpt>
      <trkpt lat="41.647547530" lon="2.517420320">
        <ele>227.97</ele>
        <time>2015-12-20T08:27:16Z</time>
      </trkpt>
      <trkpt lat="41.647325320" lon="2.517295090">
        <ele>226.05</ele>
        <time>2015-12-20T08:27:21Z</time>
      </trkpt>
      <trkpt lat="41.647316350" lon="2.517131650">
        <ele>225.57</ele>
        <time>2015-12-20T08:27:26Z</time>
      </trkpt>
      <trkpt lat="41.647341160" lon="2.516910030">
        <ele>225.57</ele>
        <time>2015-12-20T08:27:33Z</time>
      </trkpt>
      <trkpt lat="41.647336890" lon="2.516649350">
        <ele>225.09</ele>
        <time>2015-12-20T08:27:40Z</time>
      </trkpt>
      <trkpt lat="41.647323560" lon="2.516408210">
        <ele>225.09</ele>
        <time>2015-12-20T08:27:46Z</time>
      </trkpt>
      <trkpt lat="41.647304280" lon="2.516188520">
        <ele>224.61</ele>
        <time>2015-12-20T08:27:51Z</time>
      </trkpt>
      <trkpt lat="41.647295570" lon="2.516016520">
        <ele>224.61</ele>
        <time>2015-12-20T08:27:57Z</time>
      </trkpt>
      <trkpt lat="41.647302100" lon="2.515770930">
        <ele>224.12</ele>
        <time>2015-12-20T08:28:03Z</time>
      </trkpt>
      <trkpt lat="41.647248800" lon="2.515500280">
        <ele>224.12</ele>
        <time>2015-12-20T08:28:10Z</time>
      </trkpt>
      <trkpt lat="41.647145450" lon="2.515222920">
        <ele>224.12</ele>
        <time>2015-12-20T08:28:17Z</time>
      </trkpt>
      <trkpt lat="41.647050730" lon="2.514921680">
        <ele>224.12</ele>
        <time>2015-12-20T08:28:25Z</time>
      </trkpt>
      <trkpt lat="41.647016530" lon="2.514822430">
        <ele>224.61</ele>
        <time>2015-12-20T08:28:28Z</time>
      </trkpt>
      <trkpt lat="41.646958360" lon="2.514656140">
        <ele>225.57</ele>
        <time>2015-12-20T08:28:34Z</time>
      </trkpt>
      <trkpt lat="41.646941260" lon="2.514346260">
        <ele>226.05</ele>
        <time>2015-12-20T08:28:42Z</time>
      </trkpt>
      <trkpt lat="41.646956270" lon="2.514007130">
        <ele>226.05</ele>
        <time>2015-12-20T08:28:49Z</time>
      </trkpt>
      <trkpt lat="41.646982080" lon="2.513572520">
        <ele>226.05</ele>
        <time>2015-12-20T08:28:57Z</time>
      </trkpt>
      <trkpt lat="41.646930370" lon="2.513310670">
        <ele>226.05</ele>
        <time>2015-12-20T08:29:02Z</time>
      </trkpt>
      <trkpt lat="41.646904550" lon="2.512994010">
        <ele>223.64</ele>
        <time>2015-12-20T08:29:07Z</time>
      </trkpt>
      <trkpt lat="41.646811090" lon="2.512963660">
        <ele>222.20</ele>
        <time>2015-12-20T08:29:11Z</time>
      </trkpt>
      <trkpt lat="41.646740940" lon="2.512992920">
        <ele>222.20</ele>
        <time>2015-12-20T08:29:13Z</time>
      </trkpt>
      <trkpt lat="41.646612860" lon="2.513149990">
        <ele>221.72</ele>
        <time>2015-12-20T08:29:19Z</time>
      </trkpt>
      <trkpt lat="41.646499030" lon="2.513306310">
        <ele>221.72</ele>
        <time>2015-12-20T08:29:25Z</time>
      </trkpt>
      <trkpt lat="41.646453520" lon="2.513498260">
        <ele>221.72</ele>
        <time>2015-12-20T08:29:31Z</time>
      </trkpt>
      <trkpt lat="41.646435500" lon="2.513604120">
        <ele>223.16</ele>
        <time>2015-12-20T08:29:34Z</time>
      </trkpt>
      <trkpt lat="41.646351010" lon="2.513889020">
        <ele>223.64</ele>
        <time>2015-12-20T08:29:42Z</time>
      </trkpt>
      <trkpt lat="41.646273810" lon="2.514090780">
        <ele>224.12</ele>
        <time>2015-12-20T08:29:48Z</time>
      </trkpt>
      <trkpt lat="41.646146320" lon="2.514360590">
        <ele>225.09</ele>
        <time>2015-12-20T08:29:57Z</time>
      </trkpt>
      <trkpt lat="41.645975080" lon="2.514622190">
        <ele>225.09</ele>
        <time>2015-12-20T08:30:05Z</time>
      </trkpt>
      <trkpt lat="41.645883050" lon="2.514912620">
        <ele>225.09</ele>
        <time>2015-12-20T08:30:12Z</time>
      </trkpt>
      <trkpt lat="41.645754050" lon="2.515125860">
        <ele>225.09</ele>
        <time>2015-12-20T08:30:18Z</time>
      </trkpt>
      <trkpt lat="41.645573250" lon="2.515373630">
        <ele>225.57</ele>
        <time>2015-12-20T08:30:26Z</time>
      </trkpt>
      <trkpt lat="41.645506780" lon="2.515445460">
        <ele>226.05</ele>
        <time>2015-12-20T08:30:29Z</time>
      </trkpt>
      <trkpt lat="41.645321540" lon="2.515397770">
        <ele>227.49</ele>
        <time>2015-12-20T08:30:36Z</time>
      </trkpt>
      <trkpt lat="41.645242340" lon="2.515298110">
        <ele>228.93</ele>
        <time>2015-12-20T08:30:41Z</time>
      </trkpt>
      <trkpt lat="41.645136050" lon="2.515079670">
        <ele>229.89</ele>
        <time>2015-12-20T08:30:49Z</time>
      </trkpt>
      <trkpt lat="41.644995150" lon="2.514880690">
        <ele>231.33</ele>
        <time>2015-12-20T08:30:58Z</time>
      </trkpt>
      <trkpt lat="41.644877050" lon="2.514754460">
        <ele>234.22</ele>
        <time>2015-12-20T08:31:06Z</time>
      </trkpt>
      <trkpt lat="41.644781000" lon="2.514665520">
        <ele>236.14</ele>
        <time>2015-12-20T08:31:13Z</time>
      </trkpt>
      <trkpt lat="41.644664400" lon="2.514603580">
        <ele>237.58</ele>
        <time>2015-12-20T08:31:19Z</time>
      </trkpt>
      <trkpt lat="41.644524510" lon="2.514573830">
        <ele>238.54</ele>
        <time>2015-12-20T08:31:26Z</time>
      </trkpt>
      <trkpt lat="41.644357370" lon="2.514593190">
        <ele>239.51</ele>
        <time>2015-12-20T08:31:35Z</time>
      </trkpt>
      <trkpt lat="41.644197280" lon="2.514593690">
        <ele>240.95</ele>
        <time>2015-12-20T08:31:43Z</time>
      </trkpt>
      <trkpt lat="41.644074740" lon="2.514574580">
        <ele>241.91</ele>
        <time>2015-12-20T08:31:50Z</time>
      </trkpt>
      <trkpt lat="41.643935350" lon="2.514546750">
        <ele>244.31</ele>
        <time>2015-12-20T08:31:58Z</time>
      </trkpt>
      <trkpt lat="41.643799480" lon="2.514515150">
        <ele>246.72</ele>
        <time>2015-12-20T08:32:06Z</time>
      </trkpt>
      <trkpt lat="41.643646420" lon="2.514486240">
        <ele>248.16</ele>
        <time>2015-12-20T08:32:14Z</time>
      </trkpt>
      <trkpt lat="41.643521360" lon="2.514479030">
        <ele>249.12</ele>
        <time>2015-12-20T08:32:20Z</time>
      </trkpt>
      <trkpt lat="41.643473170" lon="2.514453210">
        <ele>250.08</ele>
        <time>2015-12-20T08:32:24Z</time>
      </trkpt>
      <trkpt lat="41.643417260" lon="2.514431170">
        <ele>250.56</ele>
        <time>2015-12-20T08:32:27Z</time>
      </trkpt>
      <trkpt lat="41.643345260" lon="2.514393110">
        <ele>251.52</ele>
        <time>2015-12-20T08:32:31Z</time>
      </trkpt>
      <trkpt lat="41.643195810" lon="2.514314410">
        <ele>252.00</ele>
        <time>2015-12-20T08:32:39Z</time>
      </trkpt>
      <trkpt lat="41.643162950" lon="2.514292780">
        <ele>252.96</ele>
        <time>2015-12-20T08:32:41Z</time>
      </trkpt>
      <trkpt lat="41.643075030" lon="2.514274840">
        <ele>253.93</ele>
        <time>2015-12-20T08:32:46Z</time>
      </trkpt>
      <trkpt lat="41.642936470" lon="2.514244250">
        <ele>255.37</ele>
        <time>2015-12-20T08:32:54Z</time>
      </trkpt>
      <trkpt lat="41.642796250" lon="2.514169480">
        <ele>256.33</ele>
        <time>2015-12-20T08:33:02Z</time>
      </trkpt>
      <trkpt lat="41.642625590" lon="2.514055570">
        <ele>258.25</ele>
        <time>2015-12-20T08:33:12Z</time>
      </trkpt>
      <trkpt lat="41.642498440" lon="2.513923810">
        <ele>260.17</ele>
        <time>2015-12-20T08:33:21Z</time>
      </trkpt>
      <trkpt lat="41.642396260" lon="2.513848960">
        <ele>262.10</ele>
        <time>2015-12-20T08:33:28Z</time>
      </trkpt>
      <trkpt lat="41.642316880" lon="2.513851810">
        <ele>262.58</ele>
        <time>2015-12-20T08:33:32Z</time>
      </trkpt>
      <trkpt lat="41.642212860" lon="2.513939400">
        <ele>262.58</ele>
        <time>2015-12-20T08:33:38Z</time>
      </trkpt>
      <trkpt lat="41.642221920" lon="2.514168560">
        <ele>262.58</ele>
        <time>2015-12-20T08:33:46Z</time>
      </trkpt>
      <trkpt lat="41.642310090" lon="2.514286160">
        <ele>264.50</ele>
        <time>2015-12-20T08:33:53Z</time>
      </trkpt>
      <trkpt lat="41.642404810" lon="2.514436280">
        <ele>266.42</ele>
        <time>2015-12-20T08:34:02Z</time>
      </trkpt>
      <trkpt lat="41.642510170" lon="2.514614390">
        <ele>268.83</ele>
        <time>2015-12-20T08:34:11Z</time>
      </trkpt>
      <trkpt lat="41.642617880" lon="2.514786810">
        <ele>269.79</ele>
        <time>2015-12-20T08:34:20Z</time>
      </trkpt>
      <trkpt lat="41.642643190" lon="2.514826460">
        <ele>269.79</ele>
        <time>2015-12-20T08:34:22Z</time>
      </trkpt>
      <trkpt lat="41.642678400" lon="2.515012950">
        <ele>270.27</ele>
        <time>2015-12-20T08:34:30Z</time>
      </trkpt>
      <trkpt lat="41.642668500" lon="2.515061820">
        <ele>271.23</ele>
        <time>2015-12-20T08:34:32Z</time>
      </trkpt>
      <trkpt lat="41.642518640" lon="2.515207500">
        <ele>272.67</ele>
        <time>2015-12-20T08:34:42Z</time>
      </trkpt>
      <trkpt lat="41.642400950" lon="2.515221410">
        <ele>275.07</ele>
        <time>2015-12-20T08:34:50Z</time>
      </trkpt>
      <trkpt lat="41.642299700" lon="2.515223260">
        <ele>277.48</ele>
        <time>2015-12-20T08:34:57Z</time>
      </trkpt>
      <trkpt lat="41.642153100" lon="2.515190990">
        <ele>279.40</ele>
        <time>2015-12-20T08:35:05Z</time>
      </trkpt>
      <trkpt lat="41.642032570" lon="2.515114290">
        <ele>281.32</ele>
        <time>2015-12-20T08:35:13Z</time>
      </trkpt>
      <trkpt lat="41.641929470" lon="2.515030890">
        <ele>282.77</ele>
        <time>2015-12-20T08:35:20Z</time>
      </trkpt>
      <trkpt lat="41.641812710" lon="2.514951100">
        <ele>284.21</ele>
        <time>2015-12-20T08:35:28Z</time>
      </trkpt>
      <trkpt lat="41.641709870" lon="2.514899130">
        <ele>285.65</ele>
        <time>2015-12-20T08:35:35Z</time>
      </trkpt>
      <trkpt lat="41.641599900" lon="2.514843890">
        <ele>288.05</ele>
        <time>2015-12-20T08:35:43Z</time>
      </trkpt>
      <trkpt lat="41.641500990" lon="2.514818830">
        <ele>289.97</ele>
        <time>2015-12-20T08:35:50Z</time>
      </trkpt>
      <trkpt lat="41.641335450" lon="2.514767780">
        <ele>292.38</ele>
        <time>2015-12-20T08:36:01Z</time>
      </trkpt>
      <trkpt lat="41.641215840" lon="2.514747080">
        <ele>294.30</ele>
        <time>2015-12-20T08:36:09Z</time>
      </trkpt>
      <trkpt lat="41.641094800" lon="2.514799800">
        <ele>296.22</ele>
        <time>2015-12-20T08:36:18Z</time>
      </trkpt>
      <trkpt lat="41.641044340" lon="2.514954030">
        <ele>297.67</ele>
        <time>2015-12-20T08:36:26Z</time>
      </trkpt>
      <trkpt lat="41.640975950" lon="2.515172550">
        <ele>298.63</ele>
        <time>2015-12-20T08:36:36Z</time>
      </trkpt>
      <trkpt lat="41.640878050" lon="2.515309420">
        <ele>300.55</ele>
        <time>2015-12-20T08:36:44Z</time>
      </trkpt>
      <trkpt lat="41.640765140" lon="2.515358620">
        <ele>301.51</ele>
        <time>2015-12-20T08:36:52Z</time>
      </trkpt>
      <trkpt lat="41.640751140" lon="2.515360380">
        <ele>301.99</ele>
        <time>2015-12-20T08:36:53Z</time>
      </trkpt>
      <trkpt lat="41.640659780" lon="2.515282010">
        <ele>302.95</ele>
        <time>2015-12-20T08:37:00Z</time>
      </trkpt>
      <trkpt lat="41.640570350" lon="2.515130220">
        <ele>305.36</ele>
        <time>2015-12-20T08:37:10Z</time>
      </trkpt>
      <trkpt lat="41.640522910" lon="2.515013790">
        <ele>307.28</ele>
        <time>2015-12-20T08:37:17Z</time>
      </trkpt>
      <trkpt lat="41.640471610" lon="2.514889490">
        <ele>309.20</ele>
        <time>2015-12-20T08:37:24Z</time>
      </trkpt>
      <trkpt lat="41.640372620" lon="2.514709360">
        <ele>310.64</ele>
        <time>2015-12-20T08:37:34Z</time>
      </trkpt>
      <trkpt lat="41.640360720" lon="2.514693350">
        <ele>310.64</ele>
        <time>2015-12-20T08:37:35Z</time>
      </trkpt>
      <trkpt lat="41.640298690" lon="2.514560500">
        <ele>311.12</ele>
        <time>2015-12-20T08:37:42Z</time>
      </trkpt>
      <trkpt lat="41.640252250" lon="2.514447850">
        <ele>311.60</ele>
        <time>2015-12-20T08:37:48Z</time>
      </trkpt>
      <trkpt lat="41.640120830" lon="2.514308120">
        <ele>313.05</ele>
        <time>2015-12-20T08:37:57Z</time>
      </trkpt>
      <trkpt lat="41.640001300" lon="2.514273420">
        <ele>314.01</ele>
        <time>2015-12-20T08:38:04Z</time>
      </trkpt>
      <trkpt lat="41.639897030" lon="2.514313230">
        <ele>315.45</ele>
        <time>2015-12-20T08:38:11Z</time>
      </trkpt>
      <trkpt lat="41.639798960" lon="2.514445670">
        <ele>318.33</ele>
        <time>2015-12-20T08:38:20Z</time>
      </trkpt>
      <trkpt lat="41.639787560" lon="2.514463270">
        <ele>318.33</ele>
        <time>2015-12-20T08:38:21Z</time>
      </trkpt>
      <trkpt lat="41.639692340" lon="2.514587820">
        <ele>319.30</ele>
        <time>2015-12-20T08:38:28Z</time>
      </trkpt>
      <trkpt lat="41.639536690" lon="2.514834840">
        <ele>321.22</ele>
        <time>2015-12-20T08:38:40Z</time>
      </trkpt>
      <trkpt lat="41.639392690" lon="2.514989900">
        <ele>323.14</ele>
        <time>2015-12-20T08:38:50Z</time>
      </trkpt>
      <trkpt lat="41.639194120" lon="2.514910780">
        <ele>324.10</ele>
        <time>2015-12-20T08:39:00Z</time>
      </trkpt>
      <trkpt lat="41.639110470" lon="2.514912620">
        <ele>324.10</ele>
        <time>2015-12-20T08:39:04Z</time>
      </trkpt>
      <trkpt lat="41.638906540" lon="2.515077330">
        <ele>326.02</ele>
        <time>2015-12-20T08:39:16Z</time>
      </trkpt>
      <trkpt lat="41.638778040" lon="2.515267850">
        <ele>326.99</ele>
        <time>2015-12-20T08:39:25Z</time>
      </trkpt>
      <trkpt lat="41.638672430" lon="2.515461050">
        <ele>327.95</ele>
        <time>2015-12-20T08:39:34Z</time>
      </trkpt>
      <trkpt lat="41.638573270" lon="2.515576390">
        <ele>328.91</ele>
        <time>2015-12-20T08:39:41Z</time>
      </trkpt>
      <trkpt lat="41.638465480" lon="2.515504130">
        <ele>329.39</ele>
        <time>2015-12-20T08:39:47Z</time>
      </trkpt>
      <trkpt lat="41.638363810" lon="2.515392820">
        <ele>329.39</ele>
        <time>2015-12-20T08:39:53Z</time>
      </trkpt>
      <trkpt lat="41.638163820" lon="2.515228120">
        <ele>329.87</ele>
        <time>2015-12-20T08:40:02Z</time>
      </trkpt>
      <trkpt lat="41.638009930" lon="2.515137260">
        <ele>330.35</ele>
        <time>2015-12-20T08:40:09Z</time>
      </trkpt>
      <trkpt lat="41.637827370" lon="2.515102470">
        <ele>330.83</ele>
        <time>2015-12-20T08:40:17Z</time>
      </trkpt>
      <trkpt lat="41.637594860" lon="2.515100710">
        <ele>331.79</ele>
        <time>2015-12-20T08:40:27Z</time>
      </trkpt>
      <trkpt lat="41.637417830" lon="2.515177160">
        <ele>330.83</ele>
        <time>2015-12-20T08:40:33Z</time>
      </trkpt>
      <trkpt lat="41.637283220" lon="2.515293160">
        <ele>329.87</ele>
        <time>2015-12-20T08:40:36Z</time>
      </trkpt>
      <trkpt lat="41.637183720" lon="2.515359290">
        <ele>329.39</ele>
        <time>2015-12-20T08:40:38Z</time>
      </trkpt>
      <trkpt lat="41.636882060" lon="2.515422750">
        <ele>329.39</ele>
        <time>2015-12-20T08:40:45Z</time>
      </trkpt>
      <trkpt lat="41.636721040" lon="2.515394250">
        <ele>330.83</ele>
        <time>2015-12-20T08:40:52Z</time>
      </trkpt>
      <trkpt lat="41.636598750" lon="2.515384360">
        <ele>331.31</ele>
        <time>2015-12-20T08:40:58Z</time>
      </trkpt>
      <trkpt lat="41.636471260" lon="2.515364410">
        <ele>332.27</ele>
        <time>2015-12-20T08:41:04Z</time>
      </trkpt>
      <trkpt lat="41.636383330" lon="2.515333140">
        <ele>332.75</ele>
        <time>2015-12-20T08:41:09Z</time>
      </trkpt>
      <trkpt lat="41.636308820" lon="2.515272040">
        <ele>333.71</ele>
        <time>2015-12-20T08:41:14Z</time>
      </trkpt>
      <trkpt lat="41.636178060" lon="2.515128540">
        <ele>336.12</ele>
        <time>2015-12-20T08:41:24Z</time>
      </trkpt>
      <trkpt lat="41.636166410" lon="2.515115630">
        <ele>336.12</ele>
        <time>2015-12-20T08:41:25Z</time>
      </trkpt>
      <trkpt lat="41.636134900" lon="2.515062740">
        <ele>337.08</ele>
        <time>2015-12-20T08:41:28Z</time>
      </trkpt>
      <trkpt lat="41.635957530" lon="2.514998540">
        <ele>338.52</ele>
        <time>2015-12-20T08:41:38Z</time>
      </trkpt>
      <trkpt lat="41.635835070" lon="2.514975990">
        <ele>340.44</ele>
        <time>2015-12-20T08:41:46Z</time>
      </trkpt>
      <trkpt lat="41.635688480" lon="2.514965600">
        <ele>341.41</ele>
        <time>2015-12-20T08:41:54Z</time>
      </trkpt>
      <trkpt lat="41.635562500" lon="2.515009010">
        <ele>342.37</ele>
        <time>2015-12-20T08:42:01Z</time>
      </trkpt>
      <trkpt lat="41.635503570" lon="2.515061650">
        <ele>343.33</ele>
        <time>2015-12-20T08:42:05Z</time>
      </trkpt>
      <trkpt lat="41.635460150" lon="2.515114880">
        <ele>344.77</ele>
        <time>2015-12-20T08:42:09Z</time>
      </trkpt>
      <trkpt lat="41.635415560" lon="2.515182440">
        <ele>346.21</ele>
        <time>2015-12-20T08:42:14Z</time>
      </trkpt>
      <trkpt lat="41.635371220" lon="2.515324930">
        <ele>347.65</ele>
        <time>2015-12-20T08:42:22Z</time>
      </trkpt>
      <trkpt lat="41.635367450" lon="2.515339090">
        <ele>347.65</ele>
        <time>2015-12-20T08:42:23Z</time>
      </trkpt>
      <trkpt lat="41.635275920" lon="2.515381590">
        <ele>349.58</ele>
        <time>2015-12-20T08:42:31Z</time>
      </trkpt>
      <trkpt lat="41.635232250" lon="2.515292570">
        <ele>350.54</ele>
        <time>2015-12-20T08:42:37Z</time>
      </trkpt>
      <trkpt lat="41.635239120" lon="2.515134580">
        <ele>352.94</ele>
        <time>2015-12-20T08:42:46Z</time>
      </trkpt>
      <trkpt lat="41.635237700" lon="2.515086710">
        <ele>353.90</ele>
        <time>2015-12-20T08:42:49Z</time>
      </trkpt>
      <trkpt lat="41.635233090" lon="2.514948330">
        <ele>357.27</ele>
        <time>2015-12-20T08:42:57Z</time>
      </trkpt>
      <trkpt lat="41.635164860" lon="2.514847830">
        <ele>358.23</ele>
        <time>2015-12-20T08:43:04Z</time>
      </trkpt>
      <trkpt lat="41.635099980" lon="2.514748590">
        <ele>359.67</ele>
        <time>2015-12-20T08:43:12Z</time>
      </trkpt>
      <trkpt lat="41.635058320" lon="2.514712130">
        <ele>361.59</ele>
        <time>2015-12-20T08:43:17Z</time>
      </trkpt>
      <trkpt lat="41.634940980" lon="2.514714730">
        <ele>363.52</ele>
        <time>2015-12-20T08:43:26Z</time>
      </trkpt>
      <trkpt lat="41.634927310" lon="2.514713380">
        <ele>363.04</ele>
        <time>2015-12-20T08:43:27Z</time>
      </trkpt>
      <trkpt lat="41.634816000" lon="2.514686060">
        <ele>364.48</ele>
        <time>2015-12-20T08:43:35Z</time>
      </trkpt>
      <trkpt lat="41.634757500" lon="2.514676250">
        <ele>364.96</ele>
        <time>2015-12-20T08:43:39Z</time>
      </trkpt>
      <trkpt lat="41.634669150" lon="2.514674580">
        <ele>366.88</ele>
        <time>2015-12-20T08:43:47Z</time>
      </trkpt>
      <trkpt lat="41.634571500" lon="2.514677590">
        <ele>367.36</ele>
        <time>2015-12-20T08:43:53Z</time>
      </trkpt>
      <trkpt lat="41.634489610" lon="2.514725290">
        <ele>369.28</ele>
        <time>2015-12-20T08:43:59Z</time>
      </trkpt>
      <trkpt lat="41.634352730" lon="2.514818330">
        <ele>369.76</ele>
        <time>2015-12-20T08:44:08Z</time>
      </trkpt>
      <trkpt lat="41.634253160" lon="2.514841800">
        <ele>370.73</ele>
        <time>2015-12-20T08:44:14Z</time>
      </trkpt>
      <trkpt lat="41.634169760" lon="2.514842470">
        <ele>371.69</ele>
        <time>2015-12-20T08:44:19Z</time>
      </trkpt>
      <trkpt lat="41.634003630" lon="2.514822100">
        <ele>372.65</ele>
        <time>2015-12-20T08:44:28Z</time>
      </trkpt>
      <trkpt lat="41.633857200" lon="2.514778930">
        <ele>374.57</ele>
        <time>2015-12-20T08:44:37Z</time>
      </trkpt>
      <trkpt lat="41.633724010" lon="2.514833080">
        <ele>375.53</ele>
        <time>2015-12-20T08:44:45Z</time>
      </trkpt>
      <trkpt lat="41.633594930" lon="2.514980010">
        <ele>377.45</ele>
        <time>2015-12-20T08:44:55Z</time>
      </trkpt>
      <trkpt lat="41.633474900" lon="2.515066600">
        <ele>377.45</ele>
        <time>2015-12-20T08:45:01Z</time>
      </trkpt>
      <trkpt lat="41.633456540" lon="2.515077830">
        <ele>377.94</ele>
        <time>2015-12-20T08:45:02Z</time>
      </trkpt>
      <trkpt lat="41.633320840" lon="2.515073390">
        <ele>378.90</ele>
        <time>2015-12-20T08:45:09Z</time>
      </trkpt>
      <trkpt lat="41.633231400" lon="2.515060730">
        <ele>379.86</ele>
        <time>2015-12-20T08:45:14Z</time>
      </trkpt>
      <trkpt lat="41.633137530" lon="2.515061150">
        <ele>380.34</ele>
        <time>2015-12-20T08:45:18Z</time>
      </trkpt>
      <trkpt lat="41.632965780" lon="2.515019660">
        <ele>380.82</ele>
        <time>2015-12-20T08:45:26Z</time>
      </trkpt>
      <trkpt lat="41.632812900" lon="2.514953440">
        <ele>382.26</ele>
        <time>2015-12-20T08:45:34Z</time>
      </trkpt>
      <trkpt lat="41.632679370" lon="2.514885720">
        <ele>382.74</ele>
        <time>2015-12-20T08:45:41Z</time>
      </trkpt>
      <trkpt lat="41.632520280" lon="2.514742130">
        <ele>384.66</ele>
        <time>2015-12-20T08:45:51Z</time>
      </trkpt>
      <trkpt lat="41.632394550" lon="2.514669130">
        <ele>386.11</ele>
        <time>2015-12-20T08:45:58Z</time>
      </trkpt>
      <trkpt lat="41.632235550" lon="2.514599060">
        <ele>388.03</ele>
        <time>2015-12-20T08:46:07Z</time>
      </trkpt>
      <trkpt lat="41.632206210" lon="2.514594360">
        <ele>388.99</ele>
        <time>2015-12-20T08:46:09Z</time>
      </trkpt>
      <trkpt lat="41.632056090" lon="2.514622440">
        <ele>389.95</ele>
        <time>2015-12-20T08:46:17Z</time>
      </trkpt>
      <trkpt lat="41.632022570" lon="2.514627050">
        <ele>390.43</ele>
        <time>2015-12-20T08:46:19Z</time>
      </trkpt>
      <trkpt lat="41.631956940" lon="2.514631580">
        <ele>390.91</ele>
        <time>2015-12-20T08:46:23Z</time>
      </trkpt>
      <trkpt lat="41.631813440" lon="2.514665020">
        <ele>392.36</ele>
        <time>2015-12-20T08:46:31Z</time>
      </trkpt>
      <trkpt lat="41.631678740" lon="2.514717410">
        <ele>394.28</ele>
        <time>2015-12-20T08:46:40Z</time>
      </trkpt>
      <trkpt lat="41.631575980" lon="2.514769210">
        <ele>395.24</ele>
        <time>2015-12-20T08:46:48Z</time>
      </trkpt>
      <trkpt lat="41.631506070" lon="2.514810200">
        <ele>396.20</ele>
        <time>2015-12-20T08:46:53Z</time>
      </trkpt>
      <trkpt lat="41.631449750" lon="2.514875240">
        <ele>397.16</ele>
        <time>2015-12-20T08:47:00Z</time>
      </trkpt>
      <trkpt lat="41.631343050" lon="2.514924780">
        <ele>399.57</ele>
        <time>2015-12-20T08:47:10Z</time>
      </trkpt>
      <trkpt lat="41.631268700" lon="2.514992590">
        <ele>401.49</ele>
        <time>2015-12-20T08:47:17Z</time>
      </trkpt>
      <trkpt lat="41.631243220" lon="2.515021590">
        <ele>401.97</ele>
        <time>2015-12-20T08:47:20Z</time>
      </trkpt>
      <trkpt lat="41.631180690" lon="2.515090740">
        <ele>403.89</ele>
        <time>2015-12-20T08:47:26Z</time>
      </trkpt>
      <trkpt lat="41.631091420" lon="2.515270610">
        <ele>403.89</ele>
        <time>2015-12-20T08:47:35Z</time>
      </trkpt>
      <trkpt lat="41.631039030" lon="2.515405060">
        <ele>405.33</ele>
        <time>2015-12-20T08:47:43Z</time>
      </trkpt>
      <trkpt lat="41.631012380" lon="2.515510080">
        <ele>406.29</ele>
        <time>2015-12-20T08:47:49Z</time>
      </trkpt>
      <trkpt lat="41.630940040" lon="2.515643690">
        <ele>408.70</ele>
        <time>2015-12-20T08:47:58Z</time>
      </trkpt>
      <trkpt lat="41.630931240" lon="2.515655760">
        <ele>408.70</ele>
        <time>2015-12-20T08:47:59Z</time>
      </trkpt>
      <trkpt lat="41.630882460" lon="2.515762460">
        <ele>411.10</ele>
        <time>2015-12-20T08:48:07Z</time>
      </trkpt>
      <trkpt lat="41.630836360" lon="2.515824070">
        <ele>412.06</ele>
        <time>2015-12-20T08:48:13Z</time>
      </trkpt>
      <trkpt lat="41.630734690" lon="2.515911330">
        <ele>413.98</ele>
        <time>2015-12-20T08:48:22Z</time>
      </trkpt>
      <trkpt lat="41.630639890" lon="2.515933870">
        <ele>414.95</ele>
        <time>2015-12-20T08:48:29Z</time>
      </trkpt>
      <trkpt lat="41.630537880" lon="2.515958680">
        <ele>415.91</ele>
        <time>2015-12-20T08:48:36Z</time>
      </trkpt>
      <trkpt lat="41.630458420" lon="2.515987770">
        <ele>416.87</ele>
        <time>2015-12-20T08:48:43Z</time>
      </trkpt>
      <trkpt lat="41.630367140" lon="2.515974110">
        <ele>418.79</ele>
        <time>2015-12-20T08:48:51Z</time>
      </trkpt>
      <trkpt lat="41.630314750" lon="2.515892380">
        <ele>420.23</ele>
        <time>2015-12-20T08:48:57Z</time>
      </trkpt>
      <trkpt lat="41.630290280" lon="2.515854330">
        <ele>421.19</ele>
        <time>2015-12-20T08:49:00Z</time>
      </trkpt>
      <trkpt lat="41.630254740" lon="2.515773440">
        <ele>422.64</ele>
        <time>2015-12-20T08:49:05Z</time>
      </trkpt>
      <trkpt lat="41.630186090" lon="2.515629610">
        <ele>424.56</ele>
        <time>2015-12-20T08:49:15Z</time>
      </trkpt>
      <trkpt lat="41.630121210" lon="2.515547220">
        <ele>425.04</ele>
        <time>2015-12-20T08:49:22Z</time>
      </trkpt>
      <trkpt lat="41.630045610" lon="2.515540850">
        <ele>425.52</ele>
        <time>2015-12-20T08:49:27Z</time>
      </trkpt>
      <trkpt lat="41.629912090" lon="2.515583510">
        <ele>426.48</ele>
        <time>2015-12-20T08:49:36Z</time>
      </trkpt>
      <trkpt lat="41.629825170" lon="2.515648810">
        <ele>426.96</ele>
        <time>2015-12-20T08:49:44Z</time>
      </trkpt>
      <trkpt lat="41.629729110" lon="2.515642690">
        <ele>427.92</ele>
        <time>2015-12-20T08:49:52Z</time>
      </trkpt>
      <trkpt lat="41.629621490" lon="2.515642600">
        <ele>428.89</ele>
        <time>2015-12-20T08:50:00Z</time>
      </trkpt>
      <trkpt lat="41.629493330" lon="2.515630280">
        <ele>430.81</ele>
        <time>2015-12-20T08:50:10Z</time>
      </trkpt>
      <trkpt lat="41.629393330" lon="2.515588790">
        <ele>432.25</ele>
        <time>2015-12-20T08:50:18Z</time>
      </trkpt>
      <trkpt lat="41.629357200" lon="2.515607060">
        <ele>433.21</ele>
        <time>2015-12-20T08:50:25Z</time>
      </trkpt>
      <trkpt lat="41.629340940" lon="2.515607730">
        <ele>433.21</ele>
        <time>2015-12-20T08:50:35Z</time>
      </trkpt>
      <trkpt lat="41.629324600" lon="2.515626010">
        <ele>433.21</ele>
        <time>2015-12-20T08:50:44Z</time>
      </trkpt>
      <trkpt lat="41.629307580" lon="2.515608070">
        <ele>433.69</ele>
        <time>2015-12-20T08:50:51Z</time>
      </trkpt>
      <trkpt lat="41.629254440" lon="2.515588870">
        <ele>434.65</ele>
        <time>2015-12-20T08:50:58Z</time>
      </trkpt>
      <trkpt lat="41.629201890" lon="2.515569260">
        <ele>435.61</ele>
        <time>2015-12-20T08:51:03Z</time>
      </trkpt>
      <trkpt lat="41.629173810" lon="2.515557780">
        <ele>436.58</ele>
        <time>2015-12-20T08:51:05Z</time>
      </trkpt>
      <trkpt lat="41.629144560" lon="2.515533470">
        <ele>437.06</ele>
        <time>2015-12-20T08:51:08Z</time>
      </trkpt>
      <trkpt lat="41.629042460" lon="2.515496760">
        <ele>439.94</ele>
        <time>2015-12-20T08:51:16Z</time>
      </trkpt>
      <trkpt lat="41.628962080" lon="2.515475380">
        <ele>441.38</ele>
        <time>2015-12-20T08:51:23Z</time>
      </trkpt>
      <trkpt lat="41.628843230" lon="2.515404720">
        <ele>443.31</ele>
        <time>2015-12-20T08:51:31Z</time>
      </trkpt>
      <trkpt lat="41.628813640" lon="2.515376810">
        <ele>443.79</ele>
        <time>2015-12-20T08:51:33Z</time>
      </trkpt>
      <trkpt lat="41.628758230" lon="2.515311770">
        <ele>444.75</ele>
        <time>2015-12-20T08:51:39Z</time>
      </trkpt>
      <trkpt lat="41.628644580" lon="2.515252340">
        <ele>446.67</ele>
        <time>2015-12-20T08:51:48Z</time>
      </trkpt>
      <trkpt lat="41.628550110" lon="2.515181600">
        <ele>448.11</ele>
        <time>2015-12-20T08:51:56Z</time>
      </trkpt>
      <trkpt lat="41.628468220" lon="2.515078000">
        <ele>450.03</ele>
        <time>2015-12-20T08:52:04Z</time>
      </trkpt>
      <trkpt lat="41.628438550" lon="2.515042290">
        <ele>450.03</ele>
        <time>2015-12-20T08:52:07Z</time>
      </trkpt>
      <trkpt lat="41.628333190" lon="2.514987560">
        <ele>450.52</ele>
        <time>2015-12-20T08:52:14Z</time>
      </trkpt>
      <trkpt lat="41.628173600" lon="2.514956290">
        <ele>451.00</ele>
        <time>2015-12-20T08:52:22Z</time>
      </trkpt>
      <trkpt lat="41.628142500" lon="2.514950170">
        <ele>451.48</ele>
        <time>2015-12-20T08:52:24Z</time>
      </trkpt>
      <trkpt lat="41.628000170" lon="2.514971380">
        <ele>452.44</ele>
        <time>2015-12-20T08:52:34Z</time>
      </trkpt>
      <trkpt lat="41.627947700" lon="2.514979590">
        <ele>452.44</ele>
        <time>2015-12-20T08:52:40Z</time>
      </trkpt>
      <trkpt lat="41.627918870" lon="2.514960900">
        <ele>452.44</ele>
        <time>2015-12-20T08:52:47Z</time>
      </trkpt>
      <trkpt lat="41.627903200" lon="2.514918910">
        <ele>453.40</ele>
        <time>2015-12-20T08:52:55Z</time>
      </trkpt>
      <trkpt lat="41.627885760" lon="2.514913710">
        <ele>453.40</ele>
        <time>2015-12-20T08:53:00Z</time>
      </trkpt>
      <trkpt lat="41.627798090" lon="2.514921420">
        <ele>453.88</ele>
        <time>2015-12-20T08:53:08Z</time>
      </trkpt>
      <trkpt lat="41.627784840" lon="2.514957800">
        <ele>453.88</ele>
        <time>2015-12-20T08:53:10Z</time>
      </trkpt>
      <trkpt lat="41.627640000" lon="2.515060810">
        <ele>451.00</ele>
        <time>2015-12-20T08:53:15Z</time>
      </trkpt>
      <trkpt lat="41.627523410" lon="2.515165500">
        <ele>448.11</ele>
        <time>2015-12-20T08:53:18Z</time>
      </trkpt>
      <trkpt lat="41.627352670" lon="2.515332300">
        <ele>443.79</ele>
        <time>2015-12-20T08:53:23Z</time>
      </trkpt>
      <trkpt lat="41.627253100" lon="2.515369690">
        <ele>442.34</ele>
        <time>2015-12-20T08:53:26Z</time>
      </trkpt>
      <trkpt lat="41.627123760" lon="2.515388800">
        <ele>440.42</ele>
        <time>2015-12-20T08:53:32Z</time>
      </trkpt>
      <trkpt lat="41.627121330" lon="2.515394500">
        <ele>440.90</ele>
        <time>2015-12-20T08:53:38Z</time>
      </trkpt>
      <trkpt lat="41.627117390" lon="2.515380920">
        <ele>440.90</ele>
        <time>2015-12-20T08:53:55Z</time>
      </trkpt>
      <trkpt lat="41.627065930" lon="2.515443280">
        <ele>439.94</ele>
        <time>2015-12-20T08:54:05Z</time>
      </trkpt>
      <trkpt lat="41.627056370" lon="2.515451580">
        <ele>439.46</ele>
        <time>2015-12-20T08:54:13Z</time>
      </trkpt>
      <trkpt lat="41.627058220" lon="2.515450150">
        <ele>439.46</ele>
        <time>2015-12-20T08:54:24Z</time>
      </trkpt>
      <trkpt lat="41.626988650" lon="2.515487450">
        <ele>438.98</ele>
        <time>2015-12-20T08:54:33Z</time>
      </trkpt>
      <trkpt lat="41.626767280" lon="2.515608660">
        <ele>435.61</ele>
        <time>2015-12-20T08:54:39Z</time>
      </trkpt>
      <trkpt lat="41.626498560" lon="2.515748210">
        <ele>432.25</ele>
        <time>2015-12-20T08:54:44Z</time>
      </trkpt>
      <trkpt lat="41.626293700" lon="2.515856010">
        <ele>428.89</ele>
        <time>2015-12-20T08:54:48Z</time>
      </trkpt>
      <trkpt lat="41.626242660" lon="2.515881400">
        <ele>427.92</ele>
        <time>2015-12-20T08:54:49Z</time>
      </trkpt>
      <trkpt lat="41.626073170" lon="2.516154650">
        <ele>426.48</ele>
        <time>2015-12-20T08:54:55Z</time>
      </trkpt>
      <trkpt lat="41.625965720" lon="2.516320530">
        <ele>425.52</ele>
        <time>2015-12-20T08:55:00Z</time>
      </trkpt>
      <trkpt lat="41.625940070" lon="2.516216510">
        <ele>424.08</ele>
        <time>2015-12-20T08:55:04Z</time>
      </trkpt>
      <trkpt lat="41.625948450" lon="2.516196480">
        <ele>424.08</ele>
        <time>2015-12-20T08:55:05Z</time>
      </trkpt>
      <trkpt lat="41.626007540" lon="2.516045860">
        <ele>423.12</ele>
        <time>2015-12-20T08:55:13Z</time>
      </trkpt>
      <trkpt lat="41.626057580" lon="2.515904290">
        <ele>421.68</ele>
        <time>2015-12-20T08:55:19Z</time>
      </trkpt>
      <trkpt lat="41.626148610" lon="2.515677560">
        <ele>419.75</ele>
        <time>2015-12-20T08:55:25Z</time>
      </trkpt>
      <trkpt lat="41.626203090" lon="2.515580070">
        <ele>418.79</ele>
        <time>2015-12-20T08:55:27Z</time>
      </trkpt>
      <trkpt lat="41.626267470" lon="2.515479910">
        <ele>416.87</ele>
        <time>2015-12-20T08:55:29Z</time>
      </trkpt>
      <trkpt lat="41.626492770" lon="2.515044890">
        <ele>412.54</ele>
        <time>2015-12-20T08:55:36Z</time>
      </trkpt>
      <trkpt lat="41.626564440" lon="2.514918660">
        <ele>411.10</ele>
        <time>2015-12-20T08:55:38Z</time>
      </trkpt>
      <trkpt lat="41.626625790" lon="2.514666280">
        <ele>408.70</ele>
        <time>2015-12-20T08:55:42Z</time>
      </trkpt>
      <trkpt lat="41.626524620" lon="2.514480620">
        <ele>406.29</ele>
        <time>2015-12-20T08:55:46Z</time>
      </trkpt>
      <trkpt lat="41.626410460" lon="2.514377190">
        <ele>405.33</ele>
        <time>2015-12-20T08:55:49Z</time>
      </trkpt>
      <trkpt lat="41.626294460" lon="2.514249780">
        <ele>403.41</ele>
        <time>2015-12-20T08:55:52Z</time>
      </trkpt>
      <trkpt lat="41.626063790" lon="2.514231340">
        <ele>400.53</ele>
        <time>2015-12-20T08:55:57Z</time>
      </trkpt>
      <trkpt lat="41.625910650" lon="2.514199240">
        <ele>398.60</ele>
        <time>2015-12-20T08:56:00Z</time>
      </trkpt>
      <trkpt lat="41.625612090" lon="2.514068820">
        <ele>394.28</ele>
        <time>2015-12-20T08:56:07Z</time>
      </trkpt>
      <trkpt lat="41.625570010" lon="2.514059680">
        <ele>393.80</ele>
        <time>2015-12-20T08:56:08Z</time>
      </trkpt>
      <trkpt lat="41.625397840" lon="2.514057250">
        <ele>389.95</ele>
        <time>2015-12-20T08:56:12Z</time>
      </trkpt>
      <trkpt lat="41.625268680" lon="2.514061690">
        <ele>388.03</ele>
        <time>2015-12-20T08:56:15Z</time>
      </trkpt>
      <trkpt lat="41.625068860" lon="2.514096980">
        <ele>383.70</ele>
        <time>2015-12-20T08:56:20Z</time>
      </trkpt>
      <trkpt lat="41.624955450" lon="2.514095470">
        <ele>380.34</ele>
        <time>2015-12-20T08:56:23Z</time>
      </trkpt>
      <trkpt lat="41.624817400" lon="2.514098910">
        <ele>376.97</ele>
        <time>2015-12-20T08:56:28Z</time>
      </trkpt>
      <trkpt lat="41.624764090" lon="2.514041740">
        <ele>375.05</ele>
        <time>2015-12-20T08:56:34Z</time>
      </trkpt>
      <trkpt lat="41.624774570" lon="2.514003940">
        <ele>375.53</ele>
        <time>2015-12-20T08:56:41Z</time>
      </trkpt>
      <trkpt lat="41.624823940" lon="2.513840070">
        <ele>375.05</ele>
        <time>2015-12-20T08:56:47Z</time>
      </trkpt>
      <trkpt lat="41.624847320" lon="2.513718790">
        <ele>374.57</ele>
        <time>2015-12-20T08:56:50Z</time>
      </trkpt>
      <trkpt lat="41.624877500" lon="2.513633960">
        <ele>374.09</ele>
        <time>2015-12-20T08:56:52Z</time>
      </trkpt>
      <trkpt lat="41.624953690" lon="2.513481250">
        <ele>372.65</ele>
        <time>2015-12-20T08:56:55Z</time>
      </trkpt>
      <trkpt lat="41.624992160" lon="2.513249070">
        <ele>370.73</ele>
        <time>2015-12-20T08:56:59Z</time>
      </trkpt>
      <trkpt lat="41.624989730" lon="2.513189050">
        <ele>369.76</ele>
        <time>2015-12-20T08:57:00Z</time>
      </trkpt>
      <trkpt lat="41.624934240" lon="2.512886800">
        <ele>368.32</ele>
        <time>2015-12-20T08:57:05Z</time>
      </trkpt>
      <trkpt lat="41.624768620" lon="2.512718580">
        <ele>365.44</ele>
        <time>2015-12-20T08:57:10Z</time>
      </trkpt>
      <trkpt lat="41.624635090" lon="2.512669040">
        <ele>364.00</ele>
        <time>2015-12-20T08:57:13Z</time>
      </trkpt>
      <trkpt lat="41.624476670" lon="2.512615230">
        <ele>361.59</ele>
        <time>2015-12-20T08:57:17Z</time>
      </trkpt>
      <trkpt lat="41.624409200" lon="2.512573150">
        <ele>360.63</ele>
        <time>2015-12-20T08:57:19Z</time>
      </trkpt>
      <trkpt lat="41.624340470" lon="2.512626120">
        <ele>358.71</ele>
        <time>2015-12-20T08:57:24Z</time>
      </trkpt>
      <trkpt lat="41.624390510" lon="2.512691000">
        <ele>357.75</ele>
        <time>2015-12-20T08:57:27Z</time>
      </trkpt>
      <trkpt lat="41.624414060" lon="2.512712790">
        <ele>356.79</ele>
        <time>2015-12-20T08:57:28Z</time>
      </trkpt>
      <trkpt lat="41.624562920" lon="2.512855790">
        <ele>352.94</ele>
        <time>2015-12-20T08:57:33Z</time>
      </trkpt>
      <trkpt lat="41.624591420" lon="2.513092240">
        <ele>350.06</ele>
        <time>2015-12-20T08:57:37Z</time>
      </trkpt>
      <trkpt lat="41.624521430" lon="2.513199030">
        <ele>349.10</ele>
        <time>2015-12-20T08:57:39Z</time>
      </trkpt>
      <trkpt lat="41.624379700" lon="2.513289380">
        <ele>346.21</ele>
        <time>2015-12-20T08:57:42Z</time>
      </trkpt>
      <trkpt lat="41.624297130" lon="2.513315200">
        <ele>344.77</ele>
        <time>2015-12-20T08:57:44Z</time>
      </trkpt>
      <trkpt lat="41.624168720" lon="2.513357860">
        <ele>343.33</ele>
        <time>2015-12-20T08:57:47Z</time>
      </trkpt>
      <trkpt lat="41.623940480" lon="2.513479820">
        <ele>339.00</ele>
        <time>2015-12-20T08:57:53Z</time>
      </trkpt>
      <trkpt lat="41.623908130" lon="2.513515950">
        <ele>338.52</ele>
        <time>2015-12-20T08:57:54Z</time>
      </trkpt>
      <trkpt lat="41.623870750" lon="2.513555090">
        <ele>338.04</ele>
        <time>2015-12-20T08:57:55Z</time>
      </trkpt>
      <trkpt lat="41.623710230" lon="2.513646450">
        <ele>335.16</ele>
        <time>2015-12-20T08:58:00Z</time>
      </trkpt>
      <trkpt lat="41.623683330" lon="2.513643100">
        <ele>334.68</ele>
        <time>2015-12-20T08:58:06Z</time>
      </trkpt>
      <trkpt lat="41.623521810" lon="2.513678140">
        <ele>330.83</ele>
        <time>2015-12-20T08:58:13Z</time>
      </trkpt>
      <trkpt lat="41.623444110" lon="2.513719210">
        <ele>328.43</ele>
        <time>2015-12-20T08:58:15Z</time>
      </trkpt>
      <trkpt lat="41.623354670" lon="2.513650810">
        <ele>325.54</ele>
        <time>2015-12-20T08:58:19Z</time>
      </trkpt>
      <trkpt lat="41.623396670" lon="2.513504300">
        <ele>324.10</ele>
        <time>2015-12-20T08:58:22Z</time>
      </trkpt>
      <trkpt lat="41.623514680" lon="2.513340760">
        <ele>321.70</ele>
        <time>2015-12-20T08:58:26Z</time>
      </trkpt>
      <trkpt lat="41.623581570" lon="2.513111940">
        <ele>317.85</ele>
        <time>2015-12-20T08:58:31Z</time>
      </trkpt>
      <trkpt lat="41.623516690" lon="2.513108590">
        <ele>315.93</ele>
        <time>2015-12-20T08:58:34Z</time>
      </trkpt>
      <trkpt lat="41.623475710" lon="2.513151420">
        <ele>314.97</ele>
        <time>2015-12-20T08:58:36Z</time>
      </trkpt>
      <trkpt lat="41.623384260" lon="2.513211100">
        <ele>313.53</ele>
        <time>2015-12-20T08:58:41Z</time>
      </trkpt>
      <trkpt lat="41.623208660" lon="2.513227270">
        <ele>310.64</ele>
        <time>2015-12-20T08:58:46Z</time>
      </trkpt>
      <trkpt lat="41.623063150" lon="2.513241350">
        <ele>307.28</ele>
        <time>2015-12-20T08:58:50Z</time>
      </trkpt>
      <trkpt lat="41.622985110" lon="2.513296090">
        <ele>305.36</ele>
        <time>2015-12-20T08:58:52Z</time>
      </trkpt>
      <trkpt lat="41.622895760" lon="2.513370600">
        <ele>304.39</ele>
        <time>2015-12-20T08:58:54Z</time>
      </trkpt>
      <trkpt lat="41.622724770" lon="2.513439250">
        <ele>301.03</ele>
        <time>2015-12-20T08:58:57Z</time>
      </trkpt>
      <trkpt lat="41.622568030" lon="2.513576300">
        <ele>297.67</ele>
        <time>2015-12-20T08:59:01Z</time>
      </trkpt>
      <trkpt lat="41.622460990" lon="2.513748460">
        <ele>294.78</ele>
        <time>2015-12-20T08:59:05Z</time>
      </trkpt>
      <trkpt lat="41.622411880" lon="2.513791960">
        <ele>294.30</ele>
        <time>2015-12-20T08:59:06Z</time>
      </trkpt>
      <trkpt lat="41.622292100" lon="2.513869080">
        <ele>291.90</ele>
        <time>2015-12-20T08:59:10Z</time>
      </trkpt>
      <trkpt lat="41.622157570" lon="2.513914170">
        <ele>288.53</ele>
        <time>2015-12-20T08:59:15Z</time>
      </trkpt>
      <trkpt lat="41.622044080" lon="2.513974770">
        <ele>285.65</ele>
        <time>2015-12-20T08:59:20Z</time>
      </trkpt>
      <trkpt lat="41.621923630" lon="2.514037130">
        <ele>282.28</ele>
        <time>2015-12-20T08:59:25Z</time>
      </trkpt>
      <trkpt lat="41.621808970" lon="2.514117180">
        <ele>278.92</ele>
        <time>2015-12-20T08:59:29Z</time>
      </trkpt>
      <trkpt lat="41.621640490" lon="2.514176020">
        <ele>275.07</ele>
        <time>2015-12-20T08:59:33Z</time>
      </trkpt>
      <trkpt lat="41.621504280" lon="2.514199320">
        <ele>272.67</ele>
        <time>2015-12-20T08:59:36Z</time>
      </trkpt>
      <trkpt lat="41.621331700" lon="2.514380870">
        <ele>266.90</ele>
        <time>2015-12-20T08:59:41Z</time>
      </trkpt>
      <trkpt lat="41.621309570" lon="2.514436450">
        <ele>265.94</ele>
        <time>2015-12-20T08:59:42Z</time>
      </trkpt>
      <trkpt lat="41.621226090" lon="2.514632160">
        <ele>262.58</ele>
        <time>2015-12-20T08:59:45Z</time>
      </trkpt>
      <trkpt lat="41.621035730" lon="2.514903150">
        <ele>258.73</ele>
        <time>2015-12-20T08:59:49Z</time>
      </trkpt>
      <trkpt lat="41.620946890" lon="2.515065090">
        <ele>257.29</ele>
        <time>2015-12-20T08:59:51Z</time>
      </trkpt>
      <trkpt lat="41.620846640" lon="2.515210520">
        <ele>256.33</ele>
        <time>2015-12-20T08:59:53Z</time>
      </trkpt>
      <trkpt lat="41.620746640" lon="2.515341610">
        <ele>254.41</ele>
        <time>2015-12-20T08:59:55Z</time>
      </trkpt>
      <trkpt lat="41.620666680" lon="2.515494490">
        <ele>252.96</ele>
        <time>2015-12-20T08:59:57Z</time>
      </trkpt>
      <trkpt lat="41.620490160" lon="2.515722400">
        <ele>248.64</ele>
        <time>2015-12-20T09:00:01Z</time>
      </trkpt>
      <trkpt lat="41.620379930" lon="2.515863470">
        <ele>245.75</ele>
        <time>2015-12-20T09:00:03Z</time>
      </trkpt>
      <trkpt lat="41.620265940" lon="2.516070080">
        <ele>241.91</ele>
        <time>2015-12-20T09:00:06Z</time>
      </trkpt>
      <trkpt lat="41.620165940" lon="2.516250880">
        <ele>237.58</ele>
        <time>2015-12-20T09:00:10Z</time>
      </trkpt>
      <trkpt lat="41.620053960" lon="2.516310310">
        <ele>234.22</ele>
        <time>2015-12-20T09:00:15Z</time>
      </trkpt>
      <trkpt lat="41.620039380" lon="2.516309470">
        <ele>233.74</ele>
        <time>2015-12-20T09:00:16Z</time>
      </trkpt>
      <trkpt lat="41.619909790" lon="2.516284150">
        <ele>230.37</ele>
        <time>2015-12-20T09:00:20Z</time>
      </trkpt>
      <trkpt lat="41.619803510" lon="2.516240990">
        <ele>228.45</ele>
        <time>2015-12-20T09:00:23Z</time>
      </trkpt>
      <trkpt lat="41.619657000" lon="2.516416500">
        <ele>226.53</ele>
        <time>2015-12-20T09:00:28Z</time>
      </trkpt>
      <trkpt lat="41.619586500" lon="2.516502750">
        <ele>225.09</ele>
        <time>2015-12-20T09:00:30Z</time>
      </trkpt>
      <trkpt lat="41.619453480" lon="2.516711460">
        <ele>223.64</ele>
        <time>2015-12-20T09:00:35Z</time>
      </trkpt>
      <trkpt lat="41.619411820" lon="2.516843730">
        <ele>222.20</ele>
        <time>2015-12-20T09:00:38Z</time>
      </trkpt>
      <trkpt lat="41.619298420" lon="2.517072300">
        <ele>219.80</ele>
        <time>2015-12-20T09:00:43Z</time>
      </trkpt>
      <trkpt lat="41.619266820" lon="2.517264420">
        <ele>218.84</ele>
        <time>2015-12-20T09:00:48Z</time>
      </trkpt>
      <trkpt lat="41.619260280" lon="2.517339020">
        <ele>217.88</ele>
        <time>2015-12-20T09:00:50Z</time>
      </trkpt>
      <trkpt lat="41.619225410" lon="2.517678230">
        <ele>216.91</ele>
        <time>2015-12-20T09:00:58Z</time>
      </trkpt>
      <trkpt lat="41.619225500" lon="2.517698100">
        <ele>216.43</ele>
        <time>2015-12-20T09:01:03Z</time>
      </trkpt>
      <trkpt lat="41.619232700" lon="2.517719970">
        <ele>216.43</ele>
        <time>2015-12-20T09:01:17Z</time>
      </trkpt>
      <trkpt lat="41.619227510" lon="2.517736070">
        <ele>216.43</ele>
        <time>2015-12-20T09:01:27Z</time>
      </trkpt>
      <trkpt lat="41.619216610" lon="2.517786440">
        <ele>216.43</ele>
        <time>2015-12-20T09:01:33Z</time>
      </trkpt>
      <trkpt lat="41.619139250" lon="2.517924320">
        <ele>215.47</ele>
        <time>2015-12-20T09:01:39Z</time>
      </trkpt>
      <trkpt lat="41.619116200" lon="2.517940170">
        <ele>214.51</ele>
        <time>2015-12-20T09:01:40Z</time>
      </trkpt>
      <trkpt lat="41.618894070" lon="2.518150300">
        <ele>212.59</ele>
        <time>2015-12-20T09:01:47Z</time>
      </trkpt>
      <trkpt lat="41.618811510" lon="2.518310060">
        <ele>211.15</ele>
        <time>2015-12-20T09:01:51Z</time>
      </trkpt>
      <trkpt lat="41.618710260" lon="2.518736360">
        <ele>208.26</ele>
        <time>2015-12-20T09:01:59Z</time>
      </trkpt>
      <trkpt lat="41.618619060" lon="2.519103570">
        <ele>205.86</ele>
        <time>2015-12-20T09:02:04Z</time>
      </trkpt>
      <trkpt lat="41.618558880" lon="2.519278760">
        <ele>204.90</ele>
        <time>2015-12-20T09:02:06Z</time>
      </trkpt>
      <trkpt lat="41.618471210" lon="2.519421670">
        <ele>204.42</ele>
        <time>2015-12-20T09:02:08Z</time>
      </trkpt>
      <trkpt lat="41.618357550" lon="2.519496940">
        <ele>202.98</ele>
        <time>2015-12-20T09:02:10Z</time>
      </trkpt>
      <trkpt lat="41.617893440" lon="2.519590480">
        <ele>201.05</ele>
        <time>2015-12-20T09:02:17Z</time>
      </trkpt>
      <trkpt lat="41.617366050" lon="2.519660470">
        <ele>198.17</ele>
        <time>2015-12-20T09:02:24Z</time>
      </trkpt>
      <trkpt lat="41.616926760" lon="2.519726850">
        <ele>195.77</ele>
        <time>2015-12-20T09:02:30Z</time>
      </trkpt>
      <trkpt lat="41.616860370" lon="2.519741270">
        <ele>195.28</ele>
        <time>2015-12-20T09:02:31Z</time>
      </trkpt>
      <trkpt lat="41.616550910" lon="2.519858200">
        <ele>193.36</ele>
        <time>2015-12-20T09:02:36Z</time>
      </trkpt>
      <trkpt lat="41.616330390" lon="2.520050810">
        <ele>193.84</ele>
        <time>2015-12-20T09:02:43Z</time>
      </trkpt>
      <trkpt lat="41.616318650" lon="2.520067740">
        <ele>193.84</ele>
        <time>2015-12-20T09:02:44Z</time>
      </trkpt>
      <trkpt lat="41.616227290" lon="2.520204290">
        <ele>194.32</ele>
        <time>2015-12-20T09:02:50Z</time>
      </trkpt>
      <trkpt lat="41.616183450" lon="2.520336890">
        <ele>194.32</ele>
        <time>2015-12-20T09:02:53Z</time>
      </trkpt>
      <trkpt lat="41.616106250" lon="2.520540400">
        <ele>193.36</ele>
        <time>2015-12-20T09:02:57Z</time>
      </trkpt>
      <trkpt lat="41.616084630" lon="2.520649780">
        <ele>193.36</ele>
        <time>2015-12-20T09:02:59Z</time>
      </trkpt>
      <trkpt lat="41.616051860" lon="2.520754730">
        <ele>192.88</ele>
        <time>2015-12-20T09:03:01Z</time>
      </trkpt>
      <trkpt lat="41.615998710" lon="2.520969550">
        <ele>192.88</ele>
        <time>2015-12-20T09:03:05Z</time>
      </trkpt>
      <trkpt lat="41.615946830" lon="2.521202910">
        <ele>192.40</ele>
        <time>2015-12-20T09:03:09Z</time>
      </trkpt>
      <trkpt lat="41.615939960" lon="2.521327960">
        <ele>191.92</ele>
        <time>2015-12-20T09:03:11Z</time>
      </trkpt>
      <trkpt lat="41.615851780" lon="2.521895330">
        <ele>190.96</ele>
        <time>2015-12-20T09:03:20Z</time>
      </trkpt>
      <trkpt lat="41.615820010" lon="2.522143610">
        <ele>190.00</ele>
        <time>2015-12-20T09:03:24Z</time>
      </trkpt>
      <trkpt lat="41.615793110" lon="2.522350720">
        <ele>189.04</ele>
        <time>2015-12-20T09:03:27Z</time>
      </trkpt>
      <trkpt lat="41.615742310" lon="2.522866460">
        <ele>187.11</ele>
        <time>2015-12-20T09:03:34Z</time>
      </trkpt>
      <trkpt lat="41.615729070" lon="2.522939800">
        <ele>186.63</ele>
        <time>2015-12-20T09:03:35Z</time>
      </trkpt>
      <trkpt lat="41.615700070" lon="2.523090590">
        <ele>186.15</ele>
        <time>2015-12-20T09:03:37Z</time>
      </trkpt>
      <trkpt lat="41.615628320" lon="2.523817890">
        <ele>184.71</ele>
        <time>2015-12-20T09:03:46Z</time>
      </trkpt>
      <trkpt lat="41.615575340" lon="2.524289210">
        <ele>182.31</ele>
        <time>2015-12-20T09:03:51Z</time>
      </trkpt>
      <trkpt lat="41.615506190" lon="2.524899410">
        <ele>179.42</ele>
        <time>2015-12-20T09:03:57Z</time>
      </trkpt>
      <trkpt lat="41.615473670" lon="2.525733320">
        <ele>177.50</ele>
        <time>2015-12-20T09:04:05Z</time>
      </trkpt>
      <trkpt lat="41.615477950" lon="2.525839100">
        <ele>177.02</ele>
        <time>2015-12-20T09:04:06Z</time>
      </trkpt>
      <trkpt lat="41.615529080" lon="2.526525830">
        <ele>175.10</ele>
        <time>2015-12-20T09:04:13Z</time>
      </trkpt>
      <trkpt lat="41.615542490" lon="2.526837140">
        <ele>174.14</ele>
        <time>2015-12-20T09:04:16Z</time>
      </trkpt>
      <trkpt lat="41.615447350" lon="2.527494450">
        <ele>171.25</ele>
        <time>2015-12-20T09:04:22Z</time>
      </trkpt>
      <trkpt lat="41.615387590" lon="2.527834840">
        <ele>170.77</ele>
        <time>2015-12-20T09:04:25Z</time>
      </trkpt>
      <trkpt lat="41.615361940" lon="2.528057210">
        <ele>169.81</ele>
        <time>2015-12-20T09:04:27Z</time>
      </trkpt>
      <trkpt lat="41.615177120" lon="2.529068400">
        <ele>167.89</ele>
        <time>2015-12-20T09:04:37Z</time>
      </trkpt>
      <trkpt lat="41.615151300" lon="2.529837440">
        <ele>164.52</ele>
        <time>2015-12-20T09:04:46Z</time>
      </trkpt>
      <trkpt lat="41.615142590" lon="2.530117140">
        <ele>164.04</ele>
        <time>2015-12-20T09:04:49Z</time>
      </trkpt>
      <trkpt lat="41.615133620" lon="2.530610840">
        <ele>162.12</ele>
        <time>2015-12-20T09:04:54Z</time>
      </trkpt>
      <trkpt lat="41.615110060" lon="2.530934630">
        <ele>160.68</ele>
        <time>2015-12-20T09:04:57Z</time>
      </trkpt>
      <trkpt lat="41.615090280" lon="2.531146020">
        <ele>160.68</ele>
        <time>2015-12-20T09:04:59Z</time>
      </trkpt>
      <trkpt lat="41.615140410" lon="2.531588340">
        <ele>159.24</ele>
        <time>2015-12-20T09:05:04Z</time>
      </trkpt>
      <trkpt lat="41.615191450" lon="2.531987230">
        <ele>157.31</ele>
        <time>2015-12-20T09:05:08Z</time>
      </trkpt>
      <trkpt lat="41.615138400" lon="2.532297360">
        <ele>156.83</ele>
        <time>2015-12-20T09:05:11Z</time>
      </trkpt>
      <trkpt lat="41.614799100" lon="2.533523970">
        <ele>152.99</ele>
        <time>2015-12-20T09:05:23Z</time>
      </trkpt>
      <trkpt lat="41.614583510" lon="2.534261830">
        <ele>150.58</ele>
        <time>2015-12-20T09:05:30Z</time>
      </trkpt>
      <trkpt lat="41.614312190" lon="2.535076880">
        <ele>148.18</ele>
        <time>2015-12-20T09:05:38Z</time>
      </trkpt>
      <trkpt lat="41.614122840" lon="2.535623800">
        <ele>145.78</ele>
        <time>2015-12-20T09:05:44Z</time>
      </trkpt>
      <trkpt lat="41.613933330" lon="2.536157730">
        <ele>144.82</ele>
        <time>2015-12-20T09:05:51Z</time>
      </trkpt>
      <trkpt lat="41.613905170" lon="2.536224030">
        <ele>143.85</ele>
        <time>2015-12-20T09:05:52Z</time>
      </trkpt>
      <trkpt lat="41.613789580" lon="2.536502810">
        <ele>142.89</ele>
        <time>2015-12-20T09:05:58Z</time>
      </trkpt>
      <trkpt lat="41.613679360" lon="2.536670200">
        <ele>142.41</ele>
        <time>2015-12-20T09:06:03Z</time>
      </trkpt>
      <trkpt lat="41.613569050" lon="2.536920230">
        <ele>142.89</ele>
        <time>2015-12-20T09:06:09Z</time>
      </trkpt>
      <trkpt lat="41.613346930" lon="2.537225750">
        <ele>141.93</ele>
        <time>2015-12-20T09:06:17Z</time>
      </trkpt>
      <trkpt lat="41.613241320" lon="2.537351400">
        <ele>141.45</ele>
        <time>2015-12-20T09:06:20Z</time>
      </trkpt>
      <trkpt lat="41.612919450" lon="2.537720700">
        <ele>139.53</ele>
        <time>2015-12-20T09:06:28Z</time>
      </trkpt>
      <trkpt lat="41.612457700" lon="2.538242730">
        <ele>137.61</ele>
        <time>2015-12-20T09:06:38Z</time>
      </trkpt>
      <trkpt lat="41.612373620" lon="2.538347330">
        <ele>137.13</ele>
        <time>2015-12-20T09:06:40Z</time>
      </trkpt>
      <trkpt lat="41.612084370" lon="2.538863070">
        <ele>135.20</ele>
        <time>2015-12-20T09:06:48Z</time>
      </trkpt>
      <trkpt lat="41.611904150" lon="2.539138750">
        <ele>133.76</ele>
        <time>2015-12-20T09:06:54Z</time>
      </trkpt>
      <trkpt lat="41.611838860" lon="2.539078990">
        <ele>133.76</ele>
        <time>2015-12-20T09:06:59Z</time>
      </trkpt>
      <trkpt lat="41.611824440" lon="2.539016630">
        <ele>133.76</ele>
        <time>2015-12-20T09:07:01Z</time>
      </trkpt>
      <trkpt lat="41.611774740" lon="2.538786460">
        <ele>135.20</ele>
        <time>2015-12-20T09:07:09Z</time>
      </trkpt>
      <trkpt lat="41.611644900" lon="2.538772800">
        <ele>135.68</ele>
        <time>2015-12-20T09:07:15Z</time>
      </trkpt>
      <trkpt lat="41.611357240" lon="2.538796770">
        <ele>134.24</ele>
        <time>2015-12-20T09:07:21Z</time>
      </trkpt>
      <trkpt lat="41.611189930" lon="2.538816640">
        <ele>133.76</ele>
        <time>2015-12-20T09:07:24Z</time>
      </trkpt>
      <trkpt lat="41.610837640" lon="2.538952930">
        <ele>132.32</ele>
        <time>2015-12-20T09:07:30Z</time>
      </trkpt>
      <trkpt lat="41.610729430" lon="2.539004980">
        <ele>131.84</ele>
        <time>2015-12-20T09:07:32Z</time>
      </trkpt>
      <trkpt lat="41.610286360" lon="2.539263560">
        <ele>129.43</ele>
        <time>2015-12-20T09:07:41Z</time>
      </trkpt>
      <trkpt lat="41.610095090" lon="2.539365230">
        <ele>128.47</ele>
        <time>2015-12-20T09:07:46Z</time>
      </trkpt>
      <trkpt lat="41.610055270" lon="2.539388280">
        <ele>128.47</ele>
        <time>2015-12-20T09:07:47Z</time>
      </trkpt>
      <trkpt lat="41.609721420" lon="2.539596490">
        <ele>126.55</ele>
        <time>2015-12-20T09:07:55Z</time>
      </trkpt>
      <trkpt lat="41.609464940" lon="2.539754490">
        <ele>126.07</ele>
        <time>2015-12-20T09:08:03Z</time>
      </trkpt>
      <trkpt lat="41.609273830" lon="2.539864460">
        <ele>124.63</ele>
        <time>2015-12-20T09:08:10Z</time>
      </trkpt>
      <trkpt lat="41.609256650" lon="2.539869400">
        <ele>124.63</ele>
        <time>2015-12-20T09:08:11Z</time>
      </trkpt>
      <trkpt lat="41.609173330" lon="2.540007450">
        <ele>124.15</ele>
        <time>2015-12-20T09:08:19Z</time>
      </trkpt>
      <trkpt lat="41.609099150" lon="2.540231840">
        <ele>123.19</ele>
        <time>2015-12-20T09:08:26Z</time>
      </trkpt>
      <trkpt lat="41.608996720" lon="2.540363270">
        <ele>123.19</ele>
        <time>2015-12-20T09:08:31Z</time>
      </trkpt>
      <trkpt lat="41.608870240" lon="2.540496370">
        <ele>123.19</ele>
        <time>2015-12-20T09:08:37Z</time>
      </trkpt>
      <trkpt lat="41.608849960" lon="2.540508860">
        <ele>123.19</ele>
        <time>2015-12-20T09:08:38Z</time>
      </trkpt>
      <trkpt lat="41.608804780" lon="2.540393780">
        <ele>122.22</ele>
        <time>2015-12-20T09:08:43Z</time>
      </trkpt>
      <trkpt lat="41.608686170" lon="2.540326300">
        <ele>121.26</ele>
        <time>2015-12-20T09:08:48Z</time>
      </trkpt>
      <trkpt lat="41.608533460" lon="2.540348510">
        <ele>121.26</ele>
        <time>2015-12-20T09:08:54Z</time>
      </trkpt>
      <trkpt lat="41.608267250" lon="2.540400570">
        <ele>120.30</ele>
        <time>2015-12-20T09:09:02Z</time>
      </trkpt>
      <trkpt lat="41.608013110" lon="2.540439880">
        <ele>119.82</ele>
        <time>2015-12-20T09:09:09Z</time>
      </trkpt>
      <trkpt lat="41.607762070" lon="2.540470050">
        <ele>119.34</ele>
        <time>2015-12-20T09:09:16Z</time>
      </trkpt>
      <trkpt lat="41.607688560" lon="2.540494190">
        <ele>119.34</ele>
        <time>2015-12-20T09:09:19Z</time>
      </trkpt>
      <trkpt lat="41.607569200" lon="2.540696200">
        <ele>118.86</ele>
        <time>2015-12-20T09:09:26Z</time>
      </trkpt>
      <trkpt lat="41.607503990" lon="2.540795190">
        <ele>118.86</ele>
        <time>2015-12-20T09:09:31Z</time>
      </trkpt>
      <trkpt lat="41.607480020" lon="2.540836510">
        <ele>118.86</ele>
        <time>2015-12-20T09:09:33Z</time>
      </trkpt>
      <trkpt lat="41.607315650" lon="2.540865010">
        <ele>118.38</ele>
        <time>2015-12-20T09:09:39Z</time>
      </trkpt>
      <trkpt lat="41.607115660" lon="2.540827620">
        <ele>117.42</ele>
        <time>2015-12-20T09:09:46Z</time>
      </trkpt>
      <trkpt lat="41.606882640" lon="2.540738610">
        <ele>116.94</ele>
        <time>2015-12-20T09:09:53Z</time>
      </trkpt>
      <trkpt lat="41.606630010" lon="2.540619170">
        <ele>115.98</ele>
        <time>2015-12-20T09:10:00Z</time>
      </trkpt>
      <trkpt lat="41.606438730" lon="2.540521010">
        <ele>115.50</ele>
        <time>2015-12-20T09:10:06Z</time>
      </trkpt>
      <trkpt lat="41.606175790" lon="2.540367120">
        <ele>114.53</ele>
        <time>2015-12-20T09:10:14Z</time>
      </trkpt>
      <trkpt lat="41.605932470" lon="2.540265110">
        <ele>114.05</ele>
        <time>2015-12-20T09:10:21Z</time>
      </trkpt>
      <trkpt lat="41.605700540" lon="2.540183810">
        <ele>113.57</ele>
        <time>2015-12-20T09:10:27Z</time>
      </trkpt>
      <trkpt lat="41.605325280" lon="2.540098730">
        <ele>112.13</ele>
        <time>2015-12-20T09:10:36Z</time>
      </trkpt>
      <trkpt lat="41.605202990" lon="2.540084480">
        <ele>111.65</ele>
        <time>2015-12-20T09:10:39Z</time>
      </trkpt>
      <trkpt lat="41.605117660" lon="2.540066460">
        <ele>111.17</ele>
        <time>2015-12-20T09:10:41Z</time>
      </trkpt>
      <trkpt lat="41.604772910" lon="2.540011640">
        <ele>110.69</ele>
        <time>2015-12-20T09:10:50Z</time>
      </trkpt>
      <trkpt lat="41.604564620" lon="2.539968310">
        <ele>109.73</ele>
        <time>2015-12-20T09:10:57Z</time>
      </trkpt>
      <trkpt lat="41.604492960" lon="2.539928160">
        <ele>109.73</ele>
        <time>2015-12-20T09:11:00Z</time>
      </trkpt>
      <trkpt lat="41.604478370" lon="2.539893120">
        <ele>109.73</ele>
        <time>2015-12-20T09:11:04Z</time>
      </trkpt>
      <trkpt lat="41.604476780" lon="2.539874010">
        <ele>109.73</ele>
        <time>2015-12-20T09:11:06Z</time>
      </trkpt>
      <trkpt lat="41.604486920" lon="2.539850880">
        <ele>109.73</ele>
        <time>2015-12-20T09:11:14Z</time>
      </trkpt>
      <trkpt lat="41.604495140" lon="2.539829420">
        <ele>109.73</ele>
        <time>2015-12-20T09:11:27Z</time>
      </trkpt>
      <trkpt lat="41.604487930" lon="2.539822470">
        <ele>109.73</ele>
        <time>2015-12-20T09:11:42Z</time>
      </trkpt>
      <trkpt lat="41.604505780" lon="2.539828000">
        <ele>109.73</ele>
        <time>2015-12-20T09:12:04Z</time>
      </trkpt>
      <trkpt lat="41.604506200" lon="2.539834450">
        <ele>109.73</ele>
        <time>2015-12-20T09:12:16Z</time>
      </trkpt>
      <trkpt lat="41.604501170" lon="2.539832360">
        <ele>109.25</ele>
        <time>2015-12-20T09:12:30Z</time>
      </trkpt>
      <trkpt lat="41.604498160" lon="2.539838060">
        <ele>109.25</ele>
        <time>2015-12-20T09:12:40Z</time>
      </trkpt>
      <trkpt lat="41.604479130" lon="2.539820370">
        <ele>109.25</ele>
        <time>2015-12-20T09:12:48Z</time>
      </trkpt>
      <trkpt lat="41.604464290" lon="2.539842160">
        <ele>109.25</ele>
        <time>2015-12-20T09:12:55Z</time>
      </trkpt>
      <trkpt lat="41.604438900" lon="2.539837050">
        <ele>109.25</ele>
        <time>2015-12-20T09:12:57Z</time>
      </trkpt>
      <trkpt lat="41.604292380" lon="2.539945430">
        <ele>109.25</ele>
        <time>2015-12-20T09:13:05Z</time>
      </trkpt>
      <trkpt lat="41.604100770" lon="2.540116420">
        <ele>109.25</ele>
        <time>2015-12-20T09:13:12Z</time>
      </trkpt>
      <trkpt lat="41.603768180" lon="2.540393780">
        <ele>107.81</ele>
        <time>2015-12-20T09:13:21Z</time>
      </trkpt>
      <trkpt lat="41.603552170" lon="2.540543480">
        <ele>107.32</ele>
        <time>2015-12-20T09:13:26Z</time>
      </trkpt>
      <trkpt lat="41.602999140" lon="2.540888480">
        <ele>104.92</ele>
        <time>2015-12-20T09:13:37Z</time>
      </trkpt>
      <trkpt lat="41.602561680" lon="2.541059550">
        <ele>103.00</ele>
        <time>2015-12-20T09:13:45Z</time>
      </trkpt>
      <trkpt lat="41.602266640" lon="2.541167840">
        <ele>101.08</ele>
        <time>2015-12-20T09:13:51Z</time>
      </trkpt>
      <trkpt lat="41.601910750" lon="2.541275470">
        <ele>99.63</ele>
        <time>2015-12-20T09:13:58Z</time>
      </trkpt>
      <trkpt lat="41.601608330" lon="2.541353840">
        <ele>98.19</ele>
        <time>2015-12-20T09:14:05Z</time>
      </trkpt>
      <trkpt lat="41.601561470" lon="2.541364320">
        <ele>97.23</ele>
        <time>2015-12-20T09:14:06Z</time>
      </trkpt>
      <trkpt lat="41.601237680" lon="2.541364820">
        <ele>96.75</ele>
        <time>2015-12-20T09:14:14Z</time>
      </trkpt>
      <trkpt lat="41.600958310" lon="2.541431790">
        <ele>96.75</ele>
        <time>2015-12-20T09:14:22Z</time>
      </trkpt>
      <trkpt lat="41.600643910" lon="2.541489880">
        <ele>96.75</ele>
        <time>2015-12-20T09:14:31Z</time>
      </trkpt>
      <trkpt lat="41.600482390" lon="2.541515270">
        <ele>96.75</ele>
        <time>2015-12-20T09:14:36Z</time>
      </trkpt>
      <trkpt lat="41.600414740" lon="2.541515610">
        <ele>96.27</ele>
        <time>2015-12-20T09:14:38Z</time>
      </trkpt>
      <trkpt lat="41.600208470" lon="2.541400780">
        <ele>95.31</ele>
        <time>2015-12-20T09:14:44Z</time>
      </trkpt>
      <trkpt lat="41.600126410" lon="2.541324670">
        <ele>97.23</ele>
        <time>2015-12-20T09:14:48Z</time>
      </trkpt>
      <trkpt lat="41.599977630" lon="2.541195840">
        <ele>99.15</ele>
        <time>2015-12-20T09:14:55Z</time>
      </trkpt>
      <trkpt lat="41.599896240" lon="2.541159550">
        <ele>99.63</ele>
        <time>2015-12-20T09:14:59Z</time>
      </trkpt>
      <trkpt lat="41.599689120" lon="2.541147480">
        <ele>102.04</ele>
        <time>2015-12-20T09:15:07Z</time>
      </trkpt>
      <trkpt lat="41.599652830" lon="2.541156450">
        <ele>102.04</ele>
        <time>2015-12-20T09:15:08Z</time>
      </trkpt>
      <trkpt lat="41.599517380" lon="2.541201620">
        <ele>99.63</ele>
        <time>2015-12-20T09:15:11Z</time>
      </trkpt>
      <trkpt lat="41.599353930" lon="2.541248230">
        <ele>98.19</ele>
        <time>2015-12-20T09:15:14Z</time>
      </trkpt>
      <trkpt lat="41.599120410" lon="2.541125940">
        <ele>96.27</ele>
        <time>2015-12-20T09:15:19Z</time>
      </trkpt>
      <trkpt lat="41.599092250" lon="2.541076820">
        <ele>95.79</ele>
        <time>2015-12-20T09:15:20Z</time>
      </trkpt>
      <trkpt lat="41.599013370" lon="2.540953270">
        <ele>95.31</ele>
        <time>2015-12-20T09:15:23Z</time>
      </trkpt>
      <trkpt lat="41.598782370" lon="2.540904900">
        <ele>94.83</ele>
        <time>2015-12-20T09:15:29Z</time>
      </trkpt>
      <trkpt lat="41.598697800" lon="2.540901300">
        <ele>94.35</ele>
        <time>2015-12-20T09:15:31Z</time>
      </trkpt>
      <trkpt lat="41.598314320" lon="2.540768450">
        <ele>93.87</ele>
        <time>2015-12-20T09:15:41Z</time>
      </trkpt>
      <trkpt lat="41.598166720" lon="2.540677590">
        <ele>93.87</ele>
        <time>2015-12-20T09:15:46Z</time>
      </trkpt>
      <trkpt lat="41.597972430" lon="2.540592180">
        <ele>95.31</ele>
        <time>2015-12-20T09:15:54Z</time>
      </trkpt>
      <trkpt lat="41.597863800" lon="2.540531240">
        <ele>95.79</ele>
        <time>2015-12-20T09:15:59Z</time>
      </trkpt>
      <trkpt lat="41.597843760" lon="2.540410120">
        <ele>95.79</ele>
        <time>2015-12-20T09:16:03Z</time>
      </trkpt>
      <trkpt lat="41.597852730" lon="2.540294120">
        <ele>96.27</ele>
        <time>2015-12-20T09:16:07Z</time>
      </trkpt>
      <trkpt lat="41.597916020" lon="2.540193280">
        <ele>97.23</ele>
        <time>2015-12-20T09:16:12Z</time>
      </trkpt>
      <trkpt lat="41.598027410" lon="2.540016420">
        <ele>98.67</ele>
        <time>2015-12-20T09:16:21Z</time>
      </trkpt>
      <trkpt lat="41.598124890" lon="2.539876110">
        <ele>100.11</ele>
        <time>2015-12-20T09:16:29Z</time>
      </trkpt>
      <trkpt lat="41.598234950" lon="2.539714420">
        <ele>101.08</ele>
        <time>2015-12-20T09:16:38Z</time>
      </trkpt>
      <trkpt lat="41.598279710" lon="2.539657260">
        <ele>101.56</ele>
        <time>2015-12-20T09:16:41Z</time>
      </trkpt>
      <trkpt lat="41.598389430" lon="2.539498760">
        <ele>102.52</ele>
        <time>2015-12-20T09:16:50Z</time>
      </trkpt>
      <trkpt lat="41.598400410" lon="2.539478890">
        <ele>102.52</ele>
        <time>2015-12-20T09:16:51Z</time>
      </trkpt>
      <trkpt lat="41.598454890" lon="2.539411920">
        <ele>103.48</ele>
        <time>2015-12-20T09:16:55Z</time>
      </trkpt>
      <trkpt lat="41.598594950" lon="2.539222740">
        <ele>105.40</ele>
        <time>2015-12-20T09:17:06Z</time>
      </trkpt>
      <trkpt lat="41.598683380" lon="2.539078820">
        <ele>106.36</ele>
        <time>2015-12-20T09:17:13Z</time>
      </trkpt>
      <trkpt lat="41.598754460" lon="2.539004480">
        <ele>106.84</ele>
        <time>2015-12-20T09:17:18Z</time>
      </trkpt>
      <trkpt lat="41.598807600" lon="2.538956870">
        <ele>107.81</ele>
        <time>2015-12-20T09:17:22Z</time>
      </trkpt>
      <trkpt lat="41.598848750" lon="2.538888470">
        <ele>108.29</ele>
        <time>2015-12-20T09:17:26Z</time>
      </trkpt>
      <trkpt lat="41.598841800" lon="2.538848570">
        <ele>108.77</ele>
        <time>2015-12-20T09:17:29Z</time>
      </trkpt>
      <trkpt lat="41.598795950" lon="2.538878660">
        <ele>109.25</ele>
        <time>2015-12-20T09:17:33Z</time>
      </trkpt>
      <trkpt lat="41.598662340" lon="2.538982850">
        <ele>110.21</ele>
        <time>2015-12-20T09:17:42Z</time>
      </trkpt>
      <trkpt lat="41.598509370" lon="2.539084440">
        <ele>110.69</ele>
        <time>2015-12-20T09:17:50Z</time>
      </trkpt>
      <trkpt lat="41.598391940" lon="2.539115540">
        <ele>111.65</ele>
        <time>2015-12-20T09:17:57Z</time>
      </trkpt>
      <trkpt lat="41.598316330" lon="2.539061810">
        <ele>113.09</ele>
        <time>2015-12-20T09:18:03Z</time>
      </trkpt>
      <trkpt lat="41.598255900" lon="2.538980000">
        <ele>114.53</ele>
        <time>2015-12-20T09:18:09Z</time>
      </trkpt>
      <trkpt lat="41.598232100" lon="2.538898280">
        <ele>115.50</ele>
        <time>2015-12-20T09:18:14Z</time>
      </trkpt>
      <trkpt lat="41.598303680" lon="2.538866510">
        <ele>116.46</ele>
        <time>2015-12-20T09:18:21Z</time>
      </trkpt>
      <trkpt lat="41.598383050" lon="2.538834160">
        <ele>117.42</ele>
        <time>2015-12-20T09:18:27Z</time>
      </trkpt>
      <trkpt lat="41.598479700" lon="2.538758720">
        <ele>118.86</ele>
        <time>2015-12-20T09:18:35Z</time>
      </trkpt>
      <trkpt lat="41.598534680" lon="2.538636340">
        <ele>119.82</ele>
        <time>2015-12-20T09:18:43Z</time>
      </trkpt>
      <trkpt lat="41.598555550" lon="2.538574400">
        <ele>121.26</ele>
        <time>2015-12-20T09:18:47Z</time>
      </trkpt>
      <trkpt lat="41.598573410" lon="2.538498800">
        <ele>122.22</ele>
        <time>2015-12-20T09:18:51Z</time>
      </trkpt>
      <trkpt lat="41.598596040" lon="2.538443060">
        <ele>122.71</ele>
        <time>2015-12-20T09:18:54Z</time>
      </trkpt>
      <trkpt lat="41.598603500" lon="2.538409860">
        <ele>123.67</ele>
        <time>2015-12-20T09:18:56Z</time>
      </trkpt>
      <trkpt lat="41.598611210" lon="2.538353450">
        <ele>124.15</ele>
        <time>2015-12-20T09:19:00Z</time>
      </trkpt>
      <trkpt lat="41.598548930" lon="2.538385300">
        <ele>125.59</ele>
        <time>2015-12-20T09:19:07Z</time>
      </trkpt>
      <trkpt lat="41.598520940" lon="2.538394690">
        <ele>126.07</ele>
        <time>2015-12-20T09:19:09Z</time>
      </trkpt>
      <trkpt lat="41.598446920" lon="2.538378600">
        <ele>126.55</ele>
        <time>2015-12-20T09:19:14Z</time>
      </trkpt>
      <trkpt lat="41.598384400" lon="2.538332160">
        <ele>126.55</ele>
        <time>2015-12-20T09:19:19Z</time>
      </trkpt>
      <trkpt lat="41.598337370" lon="2.538189420">
        <ele>127.99</ele>
        <time>2015-12-20T09:19:27Z</time>
      </trkpt>
      <trkpt lat="41.598394540" lon="2.538163100">
        <ele>129.43</ele>
        <time>2015-12-20T09:19:33Z</time>
      </trkpt>
      <trkpt lat="41.598425300" lon="2.538156980">
        <ele>129.92</ele>
        <time>2015-12-20T09:19:36Z</time>
      </trkpt>
      <trkpt lat="41.598522530" lon="2.538103170">
        <ele>131.36</ele>
        <time>2015-12-20T09:19:44Z</time>
      </trkpt>
      <trkpt lat="41.598553880" lon="2.538034270">
        <ele>131.84</ele>
        <time>2015-12-20T09:19:49Z</time>
      </trkpt>
      <trkpt lat="41.598498810" lon="2.538004600">
        <ele>132.80</ele>
        <time>2015-12-20T09:19:54Z</time>
      </trkpt>
      <trkpt lat="41.598482050" lon="2.537993370">
        <ele>133.28</ele>
        <time>2015-12-20T09:19:56Z</time>
      </trkpt>
      <trkpt lat="41.598449190" lon="2.537902170">
        <ele>133.76</ele>
        <time>2015-12-20T09:20:02Z</time>
      </trkpt>
      <trkpt lat="41.598468300" lon="2.537847270">
        <ele>134.24</ele>
        <time>2015-12-20T09:20:06Z</time>
      </trkpt>
      <trkpt lat="41.598499140" lon="2.537857750">
        <ele>134.72</ele>
        <time>2015-12-20T09:20:09Z</time>
      </trkpt>
      <trkpt lat="41.598614310" lon="2.537817600">
        <ele>136.16</ele>
        <time>2015-12-20T09:20:18Z</time>
      </trkpt>
      <trkpt lat="41.598674240" lon="2.537776190">
        <ele>136.16</ele>
        <time>2015-12-20T09:20:22Z</time>
      </trkpt>
      <trkpt lat="41.598720760" lon="2.537724810">
        <ele>136.64</ele>
        <time>2015-12-20T09:20:26Z</time>
      </trkpt>
      <trkpt lat="41.598808020" lon="2.537585420">
        <ele>138.09</ele>
        <time>2015-12-20T09:20:35Z</time>
      </trkpt>
      <trkpt lat="41.598853780" lon="2.537463040">
        <ele>139.05</ele>
        <time>2015-12-20T09:20:42Z</time>
      </trkpt>
      <trkpt lat="41.598899040" lon="2.537345950">
        <ele>140.49</ele>
        <time>2015-12-20T09:20:49Z</time>
      </trkpt>
      <trkpt lat="41.598985040" lon="2.537217960">
        <ele>141.93</ele>
        <time>2015-12-20T09:20:58Z</time>
      </trkpt>
      <trkpt lat="41.598985210" lon="2.537203120">
        <ele>141.93</ele>
        <time>2015-12-20T09:21:00Z</time>
      </trkpt>
      <trkpt lat="41.598904910" lon="2.537278140">
        <ele>143.37</ele>
        <time>2015-12-20T09:21:08Z</time>
      </trkpt>
      <trkpt lat="41.598875070" lon="2.537250390">
        <ele>143.85</ele>
        <time>2015-12-20T09:21:13Z</time>
      </trkpt>
      <trkpt lat="41.598916650" lon="2.537169090">
        <ele>144.82</ele>
        <time>2015-12-20T09:21:18Z</time>
      </trkpt>
      <trkpt lat="41.598998200" lon="2.537053250">
        <ele>146.26</ele>
        <time>2015-12-20T09:21:26Z</time>
      </trkpt>
      <trkpt lat="41.599024270" lon="2.537038670">
        <ele>146.74</ele>
        <time>2015-12-20T09:21:28Z</time>
      </trkpt>
      <trkpt lat="41.599138260" lon="2.536946630">
        <ele>148.66</ele>
        <time>2015-12-20T09:21:38Z</time>
      </trkpt>
      <trkpt lat="41.599158630" lon="2.536893580">
        <ele>149.62</ele>
        <time>2015-12-20T09:21:42Z</time>
      </trkpt>
      <trkpt lat="41.599075570" lon="2.536911260">
        <ele>150.58</ele>
        <time>2015-12-20T09:21:49Z</time>
      </trkpt>
      <trkpt lat="41.599028040" lon="2.536923750">
        <ele>151.06</ele>
        <time>2015-12-20T09:21:53Z</time>
      </trkpt>
      <trkpt lat="41.598931820" lon="2.536945960">
        <ele>152.03</ele>
        <time>2015-12-20T09:22:00Z</time>
      </trkpt>
      <trkpt lat="41.598907260" lon="2.536943030">
        <ele>152.51</ele>
        <time>2015-12-20T09:22:02Z</time>
      </trkpt>
      <trkpt lat="41.598943640" lon="2.536864660">
        <ele>153.95</ele>
        <time>2015-12-20T09:22:09Z</time>
      </trkpt>
      <trkpt lat="41.599006250" lon="2.536798610">
        <ele>155.39</ele>
        <time>2015-12-20T09:22:16Z</time>
      </trkpt>
      <trkpt lat="41.599044220" lon="2.536760720">
        <ele>156.35</ele>
        <time>2015-12-20T09:22:19Z</time>
      </trkpt>
      <trkpt lat="41.599045060" lon="2.536734400">
        <ele>156.83</ele>
        <time>2015-12-20T09:22:21Z</time>
      </trkpt>
      <trkpt lat="41.598955790" lon="2.536759890">
        <ele>158.27</ele>
        <time>2015-12-20T09:22:29Z</time>
      </trkpt>
      <trkpt lat="41.598906340" lon="2.536770030">
        <ele>158.75</ele>
        <time>2015-12-20T09:22:32Z</time>
      </trkpt>
      <trkpt lat="41.598902730" lon="2.536719650">
        <ele>159.72</ele>
        <time>2015-12-20T09:22:38Z</time>
      </trkpt>
      <trkpt lat="41.598969870" lon="2.536642870">
        <ele>161.16</ele>
        <time>2015-12-20T09:22:45Z</time>
      </trkpt>
      <trkpt lat="41.599054860" lon="2.536593670">
        <ele>162.12</ele>
        <time>2015-12-20T09:22:51Z</time>
      </trkpt>
      <trkpt lat="41.599153180" lon="2.536501050">
        <ele>162.60</ele>
        <time>2015-12-20T09:22:57Z</time>
      </trkpt>
      <trkpt lat="41.599241950" lon="2.536443640">
        <ele>161.16</ele>
        <time>2015-12-20T09:23:00Z</time>
      </trkpt>
      <trkpt lat="41.599264750" lon="2.536417150">
        <ele>160.20</ele>
        <time>2015-12-20T09:23:01Z</time>
      </trkpt>
      <trkpt lat="41.599333810" lon="2.536394100">
        <ele>159.24</ele>
        <time>2015-12-20T09:23:03Z</time>
      </trkpt>
      <trkpt lat="41.599419900" lon="2.536337100">
        <ele>159.24</ele>
        <time>2015-12-20T09:23:07Z</time>
      </trkpt>
      <trkpt lat="41.599502630" lon="2.536174580">
        <ele>161.64</ele>
        <time>2015-12-20T09:23:14Z</time>
      </trkpt>
      <trkpt lat="41.599599350" lon="2.536035440">
        <ele>162.12</ele>
        <time>2015-12-20T09:23:21Z</time>
      </trkpt>
      <trkpt lat="41.599680150" lon="2.535956560">
        <ele>163.08</ele>
        <time>2015-12-20T09:23:27Z</time>
      </trkpt>
      <trkpt lat="41.599751150" lon="2.535854220">
        <ele>164.04</ele>
        <time>2015-12-20T09:23:33Z</time>
      </trkpt>
      <trkpt lat="41.599845030" lon="2.535740900">
        <ele>165.00</ele>
        <time>2015-12-20T09:23:40Z</time>
      </trkpt>
      <trkpt lat="41.599959770" lon="2.535629500">
        <ele>165.96</ele>
        <time>2015-12-20T09:23:48Z</time>
      </trkpt>
      <trkpt lat="41.600083160" lon="2.535496310">
        <ele>166.45</ele>
        <time>2015-12-20T09:23:55Z</time>
      </trkpt>
      <trkpt lat="41.600204440" lon="2.535353490">
        <ele>166.93</ele>
        <time>2015-12-20T09:24:03Z</time>
      </trkpt>
      <trkpt lat="41.600315080" lon="2.535187440">
        <ele>167.41</ele>
        <time>2015-12-20T09:24:11Z</time>
      </trkpt>
      <trkpt lat="41.600360010" lon="2.535141000">
        <ele>167.89</ele>
        <time>2015-12-20T09:24:14Z</time>
      </trkpt>
      <trkpt lat="41.600351210" lon="2.535079150">
        <ele>168.85</ele>
        <time>2015-12-20T09:24:20Z</time>
      </trkpt>
      <trkpt lat="41.600258170" lon="2.535181410">
        <ele>170.29</ele>
        <time>2015-12-20T09:24:28Z</time>
      </trkpt>
      <trkpt lat="41.600159520" lon="2.535252150">
        <ele>171.25</ele>
        <time>2015-12-20T09:24:35Z</time>
      </trkpt>
      <trkpt lat="41.600058930" lon="2.535310320">
        <ele>172.21</ele>
        <time>2015-12-20T09:24:42Z</time>
      </trkpt>
      <trkpt lat="41.599964130" lon="2.535336550">
        <ele>173.17</ele>
        <time>2015-12-20T09:24:48Z</time>
      </trkpt>
      <trkpt lat="41.599828850" lon="2.535366230">
        <ele>174.14</ele>
        <time>2015-12-20T09:24:56Z</time>
      </trkpt>
      <trkpt lat="41.599782080" lon="2.535378720">
        <ele>174.62</ele>
        <time>2015-12-20T09:24:59Z</time>
      </trkpt>
      <trkpt lat="41.599688030" lon="2.535430260">
        <ele>176.06</ele>
        <time>2015-12-20T09:25:06Z</time>
      </trkpt>
      <trkpt lat="41.599499860" lon="2.535543500">
        <ele>177.02</ele>
        <time>2015-12-20T09:25:17Z</time>
      </trkpt>
      <trkpt lat="41.599370780" lon="2.535545180">
        <ele>177.50</ele>
        <time>2015-12-20T09:25:24Z</time>
      </trkpt>
      <trkpt lat="41.599250500" lon="2.535537640">
        <ele>178.46</ele>
        <time>2015-12-20T09:25:31Z</time>
      </trkpt>
      <trkpt lat="41.599187380" lon="2.535526150">
        <ele>179.42</ele>
        <time>2015-12-20T09:25:35Z</time>
      </trkpt>
      <trkpt lat="41.599159390" lon="2.535429340">
        <ele>180.38</ele>
        <time>2015-12-20T09:25:40Z</time>
      </trkpt>
      <trkpt lat="41.599162820" lon="2.535389440">
        <ele>180.87</ele>
        <time>2015-12-20T09:25:42Z</time>
      </trkpt>
      <trkpt lat="41.599177740" lon="2.535246700">
        <ele>183.27</ele>
        <time>2015-12-20T09:25:50Z</time>
      </trkpt>
      <trkpt lat="41.599236330" lon="2.535144270">
        <ele>185.19</ele>
        <time>2015-12-20T09:25:58Z</time>
      </trkpt>
      <trkpt lat="41.599270530" lon="2.535108820">
        <ele>185.67</ele>
        <time>2015-12-20T09:26:03Z</time>
      </trkpt>
      <trkpt lat="41.599282850" lon="2.535055510">
        <ele>186.15</ele>
        <time>2015-12-20T09:26:07Z</time>
      </trkpt>
      <trkpt lat="41.599358960" lon="2.534960290">
        <ele>187.59</ele>
        <time>2015-12-20T09:26:15Z</time>
      </trkpt>
      <trkpt lat="41.599432720" lon="2.534860290">
        <ele>188.56</ele>
        <time>2015-12-20T09:26:22Z</time>
      </trkpt>
      <trkpt lat="41.599531960" lon="2.534746300">
        <ele>189.52</ele>
        <time>2015-12-20T09:26:29Z</time>
      </trkpt>
      <trkpt lat="41.599638920" lon="2.534647140">
        <ele>190.48</ele>
        <time>2015-12-20T09:26:36Z</time>
      </trkpt>
      <trkpt lat="41.599714600" lon="2.534512110">
        <ele>190.96</ele>
        <time>2015-12-20T09:26:43Z</time>
      </trkpt>
      <trkpt lat="41.599730950" lon="2.534470870">
        <ele>190.96</ele>
        <time>2015-12-20T09:26:45Z</time>
      </trkpt>
      <trkpt lat="41.599709570" lon="2.534358390">
        <ele>192.40</ele>
        <time>2015-12-20T09:26:52Z</time>
      </trkpt>
      <trkpt lat="41.599647130" lon="2.534347150">
        <ele>193.84</ele>
        <time>2015-12-20T09:26:57Z</time>
      </trkpt>
      <trkpt lat="41.599540010" lon="2.534363250">
        <ele>195.28</ele>
        <time>2015-12-20T09:27:06Z</time>
      </trkpt>
      <trkpt lat="41.599455270" lon="2.534370370">
        <ele>196.25</ele>
        <time>2015-12-20T09:27:12Z</time>
      </trkpt>
      <trkpt lat="41.599311600" lon="2.534371550">
        <ele>197.69</ele>
        <time>2015-12-20T09:27:21Z</time>
      </trkpt>
      <trkpt lat="41.599299280" lon="2.534374730">
        <ele>197.69</ele>
        <time>2015-12-20T09:27:22Z</time>
      </trkpt>
      <trkpt lat="41.599178330" lon="2.534336760">
        <ele>199.13</ele>
        <time>2015-12-20T09:27:32Z</time>
      </trkpt>
      <trkpt lat="41.599169440" lon="2.534331560">
        <ele>199.61</ele>
        <time>2015-12-20T09:27:33Z</time>
      </trkpt>
      <trkpt lat="41.599142120" lon="2.534291330">
        <ele>199.61</ele>
        <time>2015-12-20T09:27:36Z</time>
      </trkpt>
      <trkpt lat="41.599126280" lon="2.534162170">
        <ele>202.01</ele>
        <time>2015-12-20T09:27:45Z</time>
      </trkpt>
      <trkpt lat="41.599079000" lon="2.533988660">
        <ele>204.90</ele>
        <time>2015-12-20T09:27:56Z</time>
      </trkpt>
      <trkpt lat="41.599047910" lon="2.533870730">
        <ele>206.34</ele>
        <time>2015-12-20T09:28:03Z</time>
      </trkpt>
      <trkpt lat="41.599003400" lon="2.533798640">
        <ele>206.82</ele>
        <time>2015-12-20T09:28:08Z</time>
      </trkpt>
      <trkpt lat="41.598926370" lon="2.533707780">
        <ele>208.26</ele>
        <time>2015-12-20T09:28:17Z</time>
      </trkpt>
      <trkpt lat="41.598911700" lon="2.533691440">
        <ele>209.22</ele>
        <time>2015-12-20T09:28:19Z</time>
      </trkpt>
      <trkpt lat="41.598852190" lon="2.533583560">
        <ele>210.67</ele>
        <time>2015-12-20T09:28:28Z</time>
      </trkpt>
      <trkpt lat="41.598834420" lon="2.533489850">
        <ele>211.63</ele>
        <time>2015-12-20T09:28:35Z</time>
      </trkpt>
      <trkpt lat="41.598802150" lon="2.533360860">
        <ele>212.59</ele>
        <time>2015-12-20T09:28:43Z</time>
      </trkpt>
      <trkpt lat="41.598786140" lon="2.533227250">
        <ele>214.03</ele>
        <time>2015-12-20T09:28:51Z</time>
      </trkpt>
      <trkpt lat="41.598805500" lon="2.533147290">
        <ele>215.47</ele>
        <time>2015-12-20T09:28:55Z</time>
      </trkpt>
      <trkpt lat="41.598842550" lon="2.533085260">
        <ele>217.40</ele>
        <time>2015-12-20T09:28:59Z</time>
      </trkpt>
      <trkpt lat="41.598889740" lon="2.532957770">
        <ele>218.36</ele>
        <time>2015-12-20T09:29:06Z</time>
      </trkpt>
      <trkpt lat="41.598888400" lon="2.532762890">
        <ele>220.28</ele>
        <time>2015-12-20T09:29:15Z</time>
      </trkpt>
      <trkpt lat="41.598800810" lon="2.532682930">
        <ele>222.20</ele>
        <time>2015-12-20T09:29:22Z</time>
      </trkpt>
      <trkpt lat="41.598683460" lon="2.532645710">
        <ele>223.16</ele>
        <time>2015-12-20T09:29:30Z</time>
      </trkpt>
      <trkpt lat="41.598599980" lon="2.532570360">
        <ele>224.61</ele>
        <time>2015-12-20T09:29:37Z</time>
      </trkpt>
      <trkpt lat="41.598573830" lon="2.532502880">
        <ele>225.09</ele>
        <time>2015-12-20T09:29:41Z</time>
      </trkpt>
      <trkpt lat="41.598545330" lon="2.532320580">
        <ele>226.53</ele>
        <time>2015-12-20T09:29:50Z</time>
      </trkpt>
      <trkpt lat="41.598561420" lon="2.532191660">
        <ele>227.49</ele>
        <time>2015-12-20T09:29:57Z</time>
      </trkpt>
      <trkpt lat="41.598582380" lon="2.532000470">
        <ele>227.97</ele>
        <time>2015-12-20T09:30:05Z</time>
      </trkpt>
      <trkpt lat="41.598576510" lon="2.531811630">
        <ele>227.97</ele>
        <time>2015-12-20T09:30:10Z</time>
      </trkpt>
      <trkpt lat="41.598507110" lon="2.531671820">
        <ele>227.97</ele>
        <time>2015-12-20T09:30:16Z</time>
      </trkpt>
      <trkpt lat="41.598400820" lon="2.531476860">
        <ele>226.05</ele>
        <time>2015-12-20T09:30:22Z</time>
      </trkpt>
      <trkpt lat="41.598390770" lon="2.531423460">
        <ele>225.09</ele>
        <time>2015-12-20T09:30:23Z</time>
      </trkpt>
      <trkpt lat="41.598318600" lon="2.531168990">
        <ele>221.24</ele>
        <time>2015-12-20T09:30:27Z</time>
      </trkpt>
      <trkpt lat="41.598259760" lon="2.531082320">
        <ele>219.32</ele>
        <time>2015-12-20T09:30:29Z</time>
      </trkpt>
      <trkpt lat="41.598026320" lon="2.530944440">
        <ele>214.99</ele>
        <time>2015-12-20T09:30:34Z</time>
      </trkpt>
      <trkpt lat="41.597919790" lon="2.530867410">
        <ele>213.55</ele>
        <time>2015-12-20T09:30:36Z</time>
      </trkpt>
      <trkpt lat="41.597767740" lon="2.530714520">
        <ele>212.11</ele>
        <time>2015-12-20T09:30:39Z</time>
      </trkpt>
      <trkpt lat="41.597717530" lon="2.530679400">
        <ele>211.63</ele>
        <time>2015-12-20T09:30:40Z</time>
      </trkpt>
      <trkpt lat="41.597612000" lon="2.530632710">
        <ele>210.67</ele>
        <time>2015-12-20T09:30:42Z</time>
      </trkpt>
      <trkpt lat="41.597510160" lon="2.530644280">
        <ele>210.67</ele>
        <time>2015-12-20T09:30:44Z</time>
      </trkpt>
      <trkpt lat="41.597271950" lon="2.530766820">
        <ele>210.67</ele>
        <time>2015-12-20T09:30:51Z</time>
      </trkpt>
      <trkpt lat="41.597179330" lon="2.530870680">
        <ele>212.11</ele>
        <time>2015-12-20T09:30:56Z</time>
      </trkpt>
      <trkpt lat="41.597047900" lon="2.530908230">
        <ele>213.07</ele>
        <time>2015-12-20T09:31:02Z</time>
      </trkpt>
      <trkpt lat="41.596927290" lon="2.530922230">
        <ele>214.99</ele>
        <time>2015-12-20T09:31:09Z</time>
      </trkpt>
      <trkpt lat="41.596869370" lon="2.530906720">
        <ele>216.91</ele>
        <time>2015-12-20T09:31:14Z</time>
      </trkpt>
      <trkpt lat="41.596913370" lon="2.530678650">
        <ele>219.32</ele>
        <time>2015-12-20T09:31:25Z</time>
      </trkpt>
      <trkpt lat="41.596888310" lon="2.530503300">
        <ele>220.76</ele>
        <time>2015-12-20T09:31:33Z</time>
      </trkpt>
      <trkpt lat="41.596878080" lon="2.530352170">
        <ele>222.20</ele>
        <time>2015-12-20T09:31:40Z</time>
      </trkpt>
      <trkpt lat="41.596974810" lon="2.530239270">
        <ele>222.20</ele>
        <time>2015-12-20T09:31:46Z</time>
      </trkpt>
      <trkpt lat="41.597137420" lon="2.530177660">
        <ele>222.68</ele>
        <time>2015-12-20T09:31:53Z</time>
      </trkpt>
      <trkpt lat="41.597340770" lon="2.530076830">
        <ele>223.16</ele>
        <time>2015-12-20T09:32:01Z</time>
      </trkpt>
      <trkpt lat="41.597511000" lon="2.530006920">
        <ele>223.64</ele>
        <time>2015-12-20T09:32:08Z</time>
      </trkpt>
      <trkpt lat="41.597712500" lon="2.529943140">
        <ele>225.09</ele>
        <time>2015-12-20T09:32:16Z</time>
      </trkpt>
      <trkpt lat="41.597794980" lon="2.529900810">
        <ele>225.57</ele>
        <time>2015-12-20T09:32:20Z</time>
      </trkpt>
      <trkpt lat="41.597959270" lon="2.529759320">
        <ele>226.05</ele>
        <time>2015-12-20T09:32:28Z</time>
      </trkpt>
      <trkpt lat="41.598066640" lon="2.529532170">
        <ele>227.49</ele>
        <time>2015-12-20T09:32:37Z</time>
      </trkpt>
      <trkpt lat="41.598120530" lon="2.529485060">
        <ele>228.45</ele>
        <time>2015-12-20T09:32:40Z</time>
      </trkpt>
      <trkpt lat="41.598297560" lon="2.529382720">
        <ele>228.93</ele>
        <time>2015-12-20T09:32:49Z</time>
      </trkpt>
      <trkpt lat="41.598366040" lon="2.529334020">
        <ele>229.41</ele>
        <time>2015-12-20T09:32:52Z</time>
      </trkpt>
      <trkpt lat="41.598561760" lon="2.529167560">
        <ele>231.33</ele>
        <time>2015-12-20T09:33:02Z</time>
      </trkpt>
      <trkpt lat="41.598702990" lon="2.529140400">
        <ele>231.81</ele>
        <time>2015-12-20T09:33:09Z</time>
      </trkpt>
      <trkpt lat="41.598877420" lon="2.529154650">
        <ele>232.78</ele>
        <time>2015-12-20T09:33:17Z</time>
      </trkpt>
      <trkpt lat="41.599068860" lon="2.529211810">
        <ele>234.22</ele>
        <time>2015-12-20T09:33:26Z</time>
      </trkpt>
      <trkpt lat="41.599151590" lon="2.529340220">
        <ele>235.18</ele>
        <time>2015-12-20T09:33:33Z</time>
      </trkpt>
      <trkpt lat="41.599162320" lon="2.529357910">
        <ele>235.18</ele>
        <time>2015-12-20T09:33:34Z</time>
      </trkpt>
      <trkpt lat="41.599228120" lon="2.529512140">
        <ele>235.66</ele>
        <time>2015-12-20T09:33:41Z</time>
      </trkpt>
      <trkpt lat="41.599326520" lon="2.529661670">
        <ele>237.10</ele>
        <time>2015-12-20T09:33:48Z</time>
      </trkpt>
      <trkpt lat="41.599435150" lon="2.529776920">
        <ele>239.02</ele>
        <time>2015-12-20T09:33:56Z</time>
      </trkpt>
      <trkpt lat="41.599556270" lon="2.529861580">
        <ele>240.47</ele>
        <time>2015-12-20T09:34:03Z</time>
      </trkpt>
      <trkpt lat="41.599678390" lon="2.529922680">
        <ele>241.43</ele>
        <time>2015-12-20T09:34:12Z</time>
      </trkpt>
      <trkpt lat="41.599835550" lon="2.529997790">
        <ele>243.35</ele>
        <time>2015-12-20T09:34:22Z</time>
      </trkpt>
      <trkpt lat="41.599973520" lon="2.530074400">
        <ele>244.79</ele>
        <time>2015-12-20T09:34:31Z</time>
      </trkpt>
      <trkpt lat="41.600096320" lon="2.530104240">
        <ele>246.23</ele>
        <time>2015-12-20T09:34:38Z</time>
      </trkpt>
      <trkpt lat="41.600223550" lon="2.530112700">
        <ele>247.20</ele>
        <time>2015-12-20T09:34:46Z</time>
      </trkpt>
      <trkpt lat="41.600355230" lon="2.530080430">
        <ele>249.12</ele>
        <time>2015-12-20T09:34:55Z</time>
      </trkpt>
      <trkpt lat="41.600384570" lon="2.530067020">
        <ele>249.12</ele>
        <time>2015-12-20T09:34:57Z</time>
      </trkpt>
      <trkpt lat="41.600460760" lon="2.529948250">
        <ele>251.04</ele>
        <time>2015-12-20T09:35:05Z</time>
      </trkpt>
      <trkpt lat="41.600528240" lon="2.529787230">
        <ele>252.48</ele>
        <time>2015-12-20T09:35:14Z</time>
      </trkpt>
      <trkpt lat="41.600635360" lon="2.529591770">
        <ele>253.93</ele>
        <time>2015-12-20T09:35:26Z</time>
      </trkpt>
      <trkpt lat="41.600678270" lon="2.529506020">
        <ele>254.89</ele>
        <time>2015-12-20T09:35:31Z</time>
      </trkpt>
      <trkpt lat="41.600746580" lon="2.529387670">
        <ele>256.33</ele>
        <time>2015-12-20T09:35:38Z</time>
      </trkpt>
      <trkpt lat="41.600816410" lon="2.529229580">
        <ele>257.77</ele>
        <time>2015-12-20T09:35:47Z</time>
      </trkpt>
      <trkpt lat="41.600898210" lon="2.529082230">
        <ele>259.21</ele>
        <time>2015-12-20T09:35:55Z</time>
      </trkpt>
      <trkpt lat="41.600971050" lon="2.528895310">
        <ele>261.14</ele>
        <time>2015-12-20T09:36:05Z</time>
      </trkpt>
      <trkpt lat="41.601024360" lon="2.528699430">
        <ele>263.06</ele>
        <time>2015-12-20T09:36:15Z</time>
      </trkpt>
      <trkpt lat="41.601059650" lon="2.528529950">
        <ele>264.50</ele>
        <time>2015-12-20T09:36:23Z</time>
      </trkpt>
      <trkpt lat="41.601100380" lon="2.528330710">
        <ele>266.42</ele>
        <time>2015-12-20T09:36:33Z</time>
      </trkpt>
      <trkpt lat="41.601150000" lon="2.528130880">
        <ele>268.35</ele>
        <time>2015-12-20T09:36:43Z</time>
      </trkpt>
      <trkpt lat="41.601181690" lon="2.527961490">
        <ele>270.75</ele>
        <time>2015-12-20T09:36:52Z</time>
      </trkpt>
      <trkpt lat="41.601213290" lon="2.527845560">
        <ele>271.71</ele>
        <time>2015-12-20T09:36:58Z</time>
      </trkpt>
      <trkpt lat="41.601249830" lon="2.527775160">
        <ele>272.67</ele>
        <time>2015-12-20T09:37:03Z</time>
      </trkpt>
      <trkpt lat="41.601344880" lon="2.527595950">
        <ele>275.56</ele>
        <time>2015-12-20T09:37:15Z</time>
      </trkpt>
      <trkpt lat="41.601442030" lon="2.527467200">
        <ele>277.96</ele>
        <time>2015-12-20T09:37:25Z</time>
      </trkpt>
      <trkpt lat="41.601546800" lon="2.527453460">
        <ele>279.40</ele>
        <time>2015-12-20T09:37:34Z</time>
      </trkpt>
      <trkpt lat="41.601650990" lon="2.527462680">
        <ele>279.88</ele>
        <time>2015-12-20T09:37:42Z</time>
      </trkpt>
      <trkpt lat="41.601791970" lon="2.527459660">
        <ele>279.88</ele>
        <time>2015-12-20T09:37:49Z</time>
      </trkpt>
      <trkpt lat="41.601925830" lon="2.527454630">
        <ele>279.88</ele>
        <time>2015-12-20T09:37:53Z</time>
      </trkpt>
      <trkpt lat="41.602135720" lon="2.527405680">
        <ele>278.44</ele>
        <time>2015-12-20T09:37:57Z</time>
      </trkpt>
      <trkpt lat="41.602458420" lon="2.527318510">
        <ele>276.52</ele>
        <time>2015-12-20T09:38:02Z</time>
      </trkpt>
      <trkpt lat="41.602873830" lon="2.526996560">
        <ele>275.07</ele>
        <time>2015-12-20T09:38:09Z</time>
      </trkpt>
      <trkpt lat="41.603009360" lon="2.526893130">
        <ele>275.07</ele>
        <time>2015-12-20T09:38:12Z</time>
      </trkpt>
      <trkpt lat="41.603170290" lon="2.526834200">
        <ele>276.04</ele>
        <time>2015-12-20T09:38:17Z</time>
      </trkpt>
      <trkpt lat="41.603299040" lon="2.526775530">
        <ele>277.00</ele>
        <time>2015-12-20T09:38:23Z</time>
      </trkpt>
      <trkpt lat="41.603411190" lon="2.526706970">
        <ele>278.44</ele>
        <time>2015-12-20T09:38:30Z</time>
      </trkpt>
      <trkpt lat="41.603421250" lon="2.526707970">
        <ele>278.44</ele>
        <time>2015-12-20T09:38:31Z</time>
      </trkpt>
      <trkpt lat="41.603404900" lon="2.526842170">
        <ele>277.00</ele>
        <time>2015-12-20T09:38:37Z</time>
      </trkpt>
      <trkpt lat="41.603309180" lon="2.527059680">
        <ele>275.56</ele>
        <time>2015-12-20T09:38:43Z</time>
      </trkpt>
      <trkpt lat="41.603250590" lon="2.527225970">
        <ele>272.67</ele>
        <time>2015-12-20T09:38:46Z</time>
      </trkpt>
      <trkpt lat="41.603104830" lon="2.527473160">
        <ele>270.27</ele>
        <time>2015-12-20T09:38:50Z</time>
      </trkpt>
      <trkpt lat="41.603059230" lon="2.527514730">
        <ele>269.31</ele>
        <time>2015-12-20T09:38:51Z</time>
      </trkpt>
      <trkpt lat="41.602968210" lon="2.527605590">
        <ele>268.35</ele>
        <time>2015-12-20T09:38:53Z</time>
      </trkpt>
      <trkpt lat="41.602875340" lon="2.527818160">
        <ele>266.90</ele>
        <time>2015-12-20T09:38:56Z</time>
      </trkpt>
      <trkpt lat="41.602793530" lon="2.528000550">
        <ele>266.90</ele>
        <time>2015-12-20T09:38:59Z</time>
      </trkpt>
      <trkpt lat="41.602801580" lon="2.528373790">
        <ele>263.54</ele>
        <time>2015-12-20T09:39:04Z</time>
      </trkpt>
      <trkpt lat="41.602888500" lon="2.528672690">
        <ele>264.98</ele>
        <time>2015-12-20T09:39:09Z</time>
      </trkpt>
      <trkpt lat="41.602902160" lon="2.528699930">
        <ele>264.98</ele>
        <time>2015-12-20T09:39:10Z</time>
      </trkpt>
      <trkpt lat="41.602933510" lon="2.528769000">
        <ele>265.46</ele>
        <time>2015-12-20T09:39:13Z</time>
      </trkpt>
      <trkpt lat="41.603090830" lon="2.529023810">
        <ele>265.94</ele>
        <time>2015-12-20T09:39:21Z</time>
      </trkpt>
      <trkpt lat="41.603261320" lon="2.529327320">
        <ele>264.50</ele>
        <time>2015-12-20T09:39:27Z</time>
      </trkpt>
      <trkpt lat="41.603453690" lon="2.529716150">
        <ele>263.54</ele>
        <time>2015-12-20T09:39:34Z</time>
      </trkpt>
      <trkpt lat="41.603567260" lon="2.530004740">
        <ele>263.06</ele>
        <time>2015-12-20T09:39:40Z</time>
      </trkpt>
      <trkpt lat="41.603531970" lon="2.530098700">
        <ele>263.06</ele>
        <time>2015-12-20T09:39:45Z</time>
      </trkpt>
      <trkpt lat="41.603390240" lon="2.530041290">
        <ele>263.06</ele>
        <time>2015-12-20T09:39:50Z</time>
      </trkpt>
      <trkpt lat="41.603294770" lon="2.530043800">
        <ele>262.58</ele>
        <time>2015-12-20T09:39:53Z</time>
      </trkpt>
      <trkpt lat="41.603227540" lon="2.530062160">
        <ele>261.62</ele>
        <time>2015-12-20T09:39:55Z</time>
      </trkpt>
      <trkpt lat="41.603114470" lon="2.530093590">
        <ele>259.69</ele>
        <time>2015-12-20T09:40:00Z</time>
      </trkpt>
      <trkpt lat="41.603146320" lon="2.530128040">
        <ele>259.21</ele>
        <time>2015-12-20T09:40:02Z</time>
      </trkpt>
      <trkpt lat="41.603337430" lon="2.530273130">
        <ele>255.37</ele>
        <time>2015-12-20T09:40:09Z</time>
      </trkpt>
      <trkpt lat="41.603418400" lon="2.530353430">
        <ele>253.93</ele>
        <time>2015-12-20T09:40:12Z</time>
      </trkpt>
      <trkpt lat="41.603551760" lon="2.530490810">
        <ele>250.56</ele>
        <time>2015-12-20T09:40:17Z</time>
      </trkpt>
      <trkpt lat="41.603688800" lon="2.530584770">
        <ele>249.12</ele>
        <time>2015-12-20T09:40:20Z</time>
      </trkpt>
      <trkpt lat="41.603797930" lon="2.530636910">
        <ele>251.52</ele>
        <time>2015-12-20T09:40:24Z</time>
      </trkpt>
      <trkpt lat="41.603900360" lon="2.530762050">
        <ele>252.00</ele>
        <time>2015-12-20T09:40:30Z</time>
      </trkpt>
      <trkpt lat="41.604011340" lon="2.530909230">
        <ele>248.64</ele>
        <time>2015-12-20T09:40:34Z</time>
      </trkpt>
      <trkpt lat="41.604066150" lon="2.530967240">
        <ele>247.20</ele>
        <time>2015-12-20T09:40:36Z</time>
      </trkpt>
      <trkpt lat="41.604105800" lon="2.531137140">
        <ele>244.31</ele>
        <time>2015-12-20T09:40:41Z</time>
      </trkpt>
      <trkpt lat="41.604172520" lon="2.531223890">
        <ele>242.39</ele>
        <time>2015-12-20T09:40:44Z</time>
      </trkpt>
      <trkpt lat="41.604212750" lon="2.531367890">
        <ele>240.47</ele>
        <time>2015-12-20T09:40:47Z</time>
      </trkpt>
      <trkpt lat="41.604254580" lon="2.531602580">
        <ele>237.10</ele>
        <time>2015-12-20T09:40:52Z</time>
      </trkpt>
      <trkpt lat="41.604267150" lon="2.531762590">
        <ele>234.70</ele>
        <time>2015-12-20T09:40:56Z</time>
      </trkpt>
      <trkpt lat="41.604283500" lon="2.531795370">
        <ele>234.70</ele>
        <time>2015-12-20T09:40:57Z</time>
      </trkpt>
      <trkpt lat="41.604321970" lon="2.531868880">
        <ele>232.78</ele>
        <time>2015-12-20T09:41:00Z</time>
      </trkpt>
      <trkpt lat="41.604406630" lon="2.531808110">
        <ele>230.85</ele>
        <time>2015-12-20T09:41:05Z</time>
      </trkpt>
      <trkpt lat="41.604443930" lon="2.531768630">
        <ele>229.41</ele>
        <time>2015-12-20T09:41:07Z</time>
      </trkpt>
      <trkpt lat="41.604510140" lon="2.531599150">
        <ele>226.05</ele>
        <time>2015-12-20T09:41:15Z</time>
      </trkpt>
      <trkpt lat="41.604522210" lon="2.531576270">
        <ele>226.05</ele>
        <time>2015-12-20T09:41:19Z</time>
      </trkpt>
      <trkpt lat="41.604553900" lon="2.531651530">
        <ele>224.12</ele>
        <time>2015-12-20T09:41:24Z</time>
      </trkpt>
      <trkpt lat="41.604570160" lon="2.531768970">
        <ele>222.20</ele>
        <time>2015-12-20T09:41:28Z</time>
      </trkpt>
      <trkpt lat="41.604558420" lon="2.531859910">
        <ele>221.24</ele>
        <time>2015-12-20T09:41:30Z</time>
      </trkpt>
      <trkpt lat="41.604567560" lon="2.532083540">
        <ele>218.36</ele>
        <time>2015-12-20T09:41:36Z</time>
      </trkpt>
      <trkpt lat="41.604562190" lon="2.532296520">
        <ele>215.47</ele>
        <time>2015-12-20T09:41:41Z</time>
      </trkpt>
      <trkpt lat="41.604560100" lon="2.532320660">
        <ele>215.47</ele>
        <time>2015-12-20T09:41:42Z</time>
      </trkpt>
      <trkpt lat="41.604586250" lon="2.532357790">
        <ele>214.99</ele>
        <time>2015-12-20T09:41:45Z</time>
      </trkpt>
      <trkpt lat="41.604668560" lon="2.532205830">
        <ele>212.11</ele>
        <time>2015-12-20T09:41:51Z</time>
      </trkpt>
      <trkpt lat="41.604725890" lon="2.531987060">
        <ele>210.19</ele>
        <time>2015-12-20T09:41:56Z</time>
      </trkpt>
      <trkpt lat="41.604798900" lon="2.531769220">
        <ele>207.78</ele>
        <time>2015-12-20T09:42:02Z</time>
      </trkpt>
      <trkpt lat="41.604804680" lon="2.531746670">
        <ele>207.78</ele>
        <time>2015-12-20T09:42:03Z</time>
      </trkpt>
      <trkpt lat="41.604847930" lon="2.531622110">
        <ele>205.86</ele>
        <time>2015-12-20T09:42:10Z</time>
      </trkpt>
      <trkpt lat="41.604858240" lon="2.531617670">
        <ele>205.38</ele>
        <time>2015-12-20T09:42:22Z</time>
      </trkpt>
      <trkpt lat="41.604868300" lon="2.531551790">
        <ele>204.42</ele>
        <time>2015-12-20T09:42:35Z</time>
      </trkpt>
      <trkpt lat="41.604902830" lon="2.531407120">
        <ele>203.46</ele>
        <time>2015-12-20T09:42:40Z</time>
      </trkpt>
      <trkpt lat="41.604968300" lon="2.531023480">
        <ele>199.61</ele>
        <time>2015-12-20T09:42:48Z</time>
      </trkpt>
      <trkpt lat="41.605008110" lon="2.530762130">
        <ele>197.69</ele>
        <time>2015-12-20T09:42:54Z</time>
      </trkpt>
      <trkpt lat="41.605013140" lon="2.530732210">
        <ele>197.69</ele>
        <time>2015-12-20T09:42:55Z</time>
      </trkpt>
      <trkpt lat="41.605068040" lon="2.530746370">
        <ele>196.25</ele>
        <time>2015-12-20T09:42:59Z</time>
      </trkpt>
      <trkpt lat="41.605109030" lon="2.530870010">
        <ele>192.88</ele>
        <time>2015-12-20T09:43:04Z</time>
      </trkpt>
      <trkpt lat="41.605126630" lon="2.530895820">
        <ele>192.40</ele>
        <time>2015-12-20T09:43:05Z</time>
      </trkpt>
      <trkpt lat="41.605153700" lon="2.530941340">
        <ele>191.44</ele>
        <time>2015-12-20T09:43:07Z</time>
      </trkpt>
      <trkpt lat="41.605207010" lon="2.531086930">
        <ele>188.56</ele>
        <time>2015-12-20T09:43:13Z</time>
      </trkpt>
      <trkpt lat="41.605218080" lon="2.531121970">
        <ele>188.56</ele>
        <time>2015-12-20T09:43:14Z</time>
      </trkpt>
      <trkpt lat="41.605260320" lon="2.531260850">
        <ele>186.63</ele>
        <time>2015-12-20T09:43:18Z</time>
      </trkpt>
      <trkpt lat="41.605280440" lon="2.531471740">
        <ele>183.75</ele>
        <time>2015-12-20T09:43:24Z</time>
      </trkpt>
      <trkpt lat="41.605308770" lon="2.531722280">
        <ele>181.35</ele>
        <time>2015-12-20T09:43:30Z</time>
      </trkpt>
      <trkpt lat="41.605334170" lon="2.531893520">
        <ele>178.94</ele>
        <time>2015-12-20T09:43:35Z</time>
      </trkpt>
      <trkpt lat="41.605343890" lon="2.531933250">
        <ele>178.94</ele>
        <time>2015-12-20T09:43:36Z</time>
      </trkpt>
      <trkpt lat="41.605386810" lon="2.532053450">
        <ele>177.02</ele>
        <time>2015-12-20T09:43:39Z</time>
      </trkpt>
      <trkpt lat="41.605482530" lon="2.532389480">
        <ele>174.14</ele>
        <time>2015-12-20T09:43:46Z</time>
      </trkpt>
      <trkpt lat="41.605499210" lon="2.532612940">
        <ele>170.77</ele>
        <time>2015-12-20T09:43:52Z</time>
      </trkpt>
      <trkpt lat="41.605581770" lon="2.532814440">
        <ele>169.33</ele>
        <time>2015-12-20T09:43:57Z</time>
      </trkpt>
      <trkpt lat="41.605686120" lon="2.533043010">
        <ele>166.93</ele>
        <time>2015-12-20T09:44:02Z</time>
      </trkpt>
      <trkpt lat="41.605686790" lon="2.533247450">
        <ele>165.48</ele>
        <time>2015-12-20T09:44:07Z</time>
      </trkpt>
      <trkpt lat="41.605610690" lon="2.533395720">
        <ele>163.08</ele>
        <time>2015-12-20T09:44:12Z</time>
      </trkpt>
      <trkpt lat="41.605519570" lon="2.533600160">
        <ele>162.12</ele>
        <time>2015-12-20T09:44:17Z</time>
      </trkpt>
      <trkpt lat="41.605439860" lon="2.533817590">
        <ele>160.20</ele>
        <time>2015-12-20T09:44:23Z</time>
      </trkpt>
      <trkpt lat="41.605367020" lon="2.533950190">
        <ele>158.27</ele>
        <time>2015-12-20T09:44:27Z</time>
      </trkpt>
      <trkpt lat="41.605269290" lon="2.534130480">
        <ele>156.83</ele>
        <time>2015-12-20T09:44:32Z</time>
      </trkpt>
      <trkpt lat="41.605235930" lon="2.534188570">
        <ele>155.87</ele>
        <time>2015-12-20T09:44:34Z</time>
      </trkpt>
      <trkpt lat="41.605027890" lon="2.534266770">
        <ele>153.47</ele>
        <time>2015-12-20T09:44:41Z</time>
      </trkpt>
      <trkpt lat="41.604859500" lon="2.534292170">
        <ele>150.10</ele>
        <time>2015-12-20T09:44:45Z</time>
      </trkpt>
      <trkpt lat="41.604672830" lon="2.534369200">
        <ele>146.74</ele>
        <time>2015-12-20T09:44:51Z</time>
      </trkpt>
      <trkpt lat="41.604650120" lon="2.534417560">
        <ele>146.74</ele>
        <time>2015-12-20T09:44:52Z</time>
      </trkpt>
      <trkpt lat="41.604624640" lon="2.534464080">
        <ele>145.30</ele>
        <time>2015-12-20T09:44:53Z</time>
      </trkpt>
      <trkpt lat="41.604506620" lon="2.534718980">
        <ele>141.45</ele>
        <time>2015-12-20T09:44:59Z</time>
      </trkpt>
      <trkpt lat="41.604531600" lon="2.534973870">
        <ele>140.49</ele>
        <time>2015-12-20T09:45:05Z</time>
      </trkpt>
      <trkpt lat="41.604586420" lon="2.535154000">
        <ele>140.01</ele>
        <time>2015-12-20T09:45:08Z</time>
      </trkpt>
      <trkpt lat="41.604632600" lon="2.535312830">
        <ele>138.57</ele>
        <time>2015-12-20T09:45:10Z</time>
      </trkpt>
      <trkpt lat="41.604684990" lon="2.535478800">
        <ele>137.13</ele>
        <time>2015-12-20T09:45:12Z</time>
      </trkpt>
      <trkpt lat="41.604811220" lon="2.535721950">
        <ele>136.16</ele>
        <time>2015-12-20T09:45:15Z</time>
      </trkpt>
      <trkpt lat="41.604867800" lon="2.535797480">
        <ele>135.20</ele>
        <time>2015-12-20T09:45:16Z</time>
      </trkpt>
      <trkpt lat="41.605074660" lon="2.536076430">
        <ele>131.36</ele>
        <time>2015-12-20T09:45:20Z</time>
      </trkpt>
      <trkpt lat="41.605203160" lon="2.536262500">
        <ele>129.92</ele>
        <time>2015-12-20T09:45:23Z</time>
      </trkpt>
      <trkpt lat="41.605434080" lon="2.536585460">
        <ele>127.03</ele>
        <time>2015-12-20T09:45:29Z</time>
      </trkpt>
      <trkpt lat="41.605609090" lon="2.536873210">
        <ele>124.15</ele>
        <time>2015-12-20T09:45:35Z</time>
      </trkpt>
      <trkpt lat="41.605607840" lon="2.537092900">
        <ele>123.19</ele>
        <time>2015-12-20T09:45:39Z</time>
      </trkpt>
      <trkpt lat="41.605339620" lon="2.537676700">
        <ele>120.30</ele>
        <time>2015-12-20T09:45:49Z</time>
      </trkpt>
      <trkpt lat="41.605130990" lon="2.538119350">
        <ele>117.90</ele>
        <time>2015-12-20T09:45:56Z</time>
      </trkpt>
      <trkpt lat="41.604916410" lon="2.538577500">
        <ele>115.50</ele>
        <time>2015-12-20T09:46:04Z</time>
      </trkpt>
      <trkpt lat="41.604876930" lon="2.538698200">
        <ele>115.01</ele>
        <time>2015-12-20T09:46:06Z</time>
      </trkpt>
      <trkpt lat="41.604679370" lon="2.539155770">
        <ele>112.61</ele>
        <time>2015-12-20T09:46:15Z</time>
      </trkpt>
      <trkpt lat="41.604656740" lon="2.539179660">
        <ele>112.61</ele>
        <time>2015-12-20T09:46:19Z</time>
      </trkpt>
      <trkpt lat="41.604670240" lon="2.539173450">
        <ele>112.61</ele>
        <time>2015-12-20T09:46:34Z</time>
      </trkpt>
      <trkpt lat="41.604663450" lon="2.539172870">
        <ele>112.61</ele>
        <time>2015-12-20T09:46:47Z</time>
      </trkpt>
      <trkpt lat="41.604657080" lon="2.539188460">
        <ele>112.61</ele>
        <time>2015-12-20T09:47:05Z</time>
      </trkpt>
      <trkpt lat="41.604646930" lon="2.539186530">
        <ele>112.61</ele>
        <time>2015-12-20T09:47:21Z</time>
      </trkpt>
      <trkpt lat="41.604632690" lon="2.539213440">
        <ele>112.61</ele>
        <time>2015-12-20T09:47:27Z</time>
      </trkpt>
      <trkpt lat="41.604561020" lon="2.539443520">
        <ele>112.13</ele>
        <time>2015-12-20T09:47:34Z</time>
      </trkpt>
      <trkpt lat="41.604541070" lon="2.539491040">
        <ele>112.13</ele>
        <time>2015-12-20T09:47:35Z</time>
      </trkpt>
      <trkpt lat="41.604465300" lon="2.539787260">
        <ele>110.69</ele>
        <time>2015-12-20T09:47:42Z</time>
      </trkpt>
      <trkpt lat="41.604489690" lon="2.539871420">
        <ele>110.21</ele>
        <time>2015-12-20T09:47:44Z</time>
      </trkpt>
      <trkpt lat="41.604670910" lon="2.540033610">
        <ele>109.73</ele>
        <time>2015-12-20T09:47:49Z</time>
      </trkpt>
      <trkpt lat="41.604803420" lon="2.540006030">
        <ele>109.73</ele>
        <time>2015-12-20T09:47:54Z</time>
      </trkpt>
      <trkpt lat="41.605038120" lon="2.540066880">
        <ele>111.17</ele>
        <time>2015-12-20T09:48:02Z</time>
      </trkpt>
      <trkpt lat="41.605069470" lon="2.540069480">
        <ele>111.17</ele>
        <time>2015-12-20T09:48:03Z</time>
      </trkpt>
      <trkpt lat="41.605246240" lon="2.540098730">
        <ele>111.65</ele>
        <time>2015-12-20T09:48:09Z</time>
      </trkpt>
      <trkpt lat="41.605477410" lon="2.540132510">
        <ele>111.65</ele>
        <time>2015-12-20T09:48:17Z</time>
      </trkpt>
      <trkpt lat="41.605766590" lon="2.540205020">
        <ele>112.61</ele>
        <time>2015-12-20T09:48:27Z</time>
      </trkpt>
      <trkpt lat="41.605978990" lon="2.540288830">
        <ele>113.57</ele>
        <time>2015-12-20T09:48:35Z</time>
      </trkpt>
      <trkpt lat="41.605969930" lon="2.540391930">
        <ele>113.57</ele>
        <time>2015-12-20T09:48:40Z</time>
      </trkpt>
      <trkpt lat="41.605879070" lon="2.540406180">
        <ele>114.53</ele>
        <time>2015-12-20T09:48:45Z</time>
      </trkpt>
      <trkpt lat="41.605892740" lon="2.540499470">
        <ele>114.53</ele>
        <time>2015-12-20T09:48:48Z</time>
      </trkpt>
      <trkpt lat="41.605951240" lon="2.540583040">
        <ele>115.01</ele>
        <time>2015-12-20T09:48:51Z</time>
      </trkpt>
      <trkpt lat="41.606171270" lon="2.540676500">
        <ele>115.50</ele>
        <time>2015-12-20T09:49:00Z</time>
      </trkpt>
      <trkpt lat="41.606352400" lon="2.540729470">
        <ele>116.46</ele>
        <time>2015-12-20T09:49:07Z</time>
      </trkpt>
      <trkpt lat="41.606503860" lon="2.540823680">
        <ele>116.94</ele>
        <time>2015-12-20T09:49:14Z</time>
      </trkpt>
      <trkpt lat="41.606588100" lon="2.540981430">
        <ele>117.42</ele>
        <time>2015-12-20T09:49:20Z</time>
      </trkpt>
      <trkpt lat="41.606645930" lon="2.541183520">
        <ele>118.38</ele>
        <time>2015-12-20T09:49:27Z</time>
      </trkpt>
      <trkpt lat="41.606729750" lon="2.541455260">
        <ele>120.30</ele>
        <time>2015-12-20T09:49:36Z</time>
      </trkpt>
      <trkpt lat="41.606822040" lon="2.541794060">
        <ele>122.71</ele>
        <time>2015-12-20T09:49:46Z</time>
      </trkpt>
      <trkpt lat="41.606881130" lon="2.541984580">
        <ele>123.67</ele>
        <time>2015-12-20T09:49:52Z</time>
      </trkpt>
      <trkpt lat="41.606990430" lon="2.542163530">
        <ele>125.59</ele>
        <time>2015-12-20T09:49:59Z</time>
      </trkpt>
      <trkpt lat="41.607036280" lon="2.542300990">
        <ele>126.07</ele>
        <time>2015-12-20T09:50:04Z</time>
      </trkpt>
      <trkpt lat="41.607067540" lon="2.542355140">
        <ele>126.55</ele>
        <time>2015-12-20T09:50:11Z</time>
      </trkpt>
      <trkpt lat="41.607085730" lon="2.542364030">
        <ele>127.03</ele>
        <time>2015-12-20T09:50:18Z</time>
      </trkpt>
      <trkpt lat="41.607077520" lon="2.542380370">
        <ele>127.51</ele>
        <time>2015-12-20T09:50:33Z</time>
      </trkpt>
    </trkseg>
  </trk>
</gpx>
